Darstellungsparameter: Aktuell verwendete Einstellungen:
Skalierung der Graphiken ... ?
xyx+y,   Skalierungsfaktor:      Skalierung: Modus: x, Faktor: 1
Darstellungszeitraum ... ?
Vom - - bis: - -   Zeitraum: 06.09.2018 - 05.03.2019
Min/Max/Avg-Anzeige ... ?
Zeige MMA aktuell
Zeige MMA Monat
Zeige MMA alles
Zeige --A aktuell
Zeige --A Monat
Zeige --A alles
Keine MMA-Anzeige
MMA:
Keine MMA-Graphiken
MMA-Basis: 06.09.2018 - 05.03.2019
Quicknavigation für Darstellung... ?
Tage:      1T, 2T, 3T, 5T -1T -2T -3T -5T +1T +2T +3T +5T
Wochen: 1W, 2W, 3W -1W -2W -3W +1W +2W +3W
Monate: 1M, 3M, 6M -1M -3M -6M +1M +3M +6M
Jahre:    1J, 3J, 5J, 10J -1J -3J -5J -10J +1J +3J +5J +10J
Nutze für die Darstellung ... ?
Originaldaten oder Mittelwerte auf ...
Stundenbasis Tagesbasis Wochenbasis
Monatsbasis Jahresbasis      Datenbasis: Original-Daten
Darstellen als:
Statistik (Auto) Statistik J:M      Darstellung:
Zur Graphik,    zurück zur Übersicht aller Sensoren.
 
Tabellarische Datenbersicht: ?
 
Sensor: Nr:Datum:Temp:Feuchte:Taupunkt:
Aussen-T/F 1 06-09-2018 00:00:00 17.7 C 82 % 14.59 C
2 06-09-2018 00:05:00 17.7 C 82 % 14.59 C
3 06-09-2018 00:10:00 17.6 C 82 % 14.49 C
4 06-09-2018 00:15:00 17.5 C 83 % 14.58 C
5 06-09-2018 00:20:00 17.4 C 83 % 14.48 C
6 06-09-2018 00:25:00 17.3 C 83 % 14.39 C
7 06-09-2018 00:30:00 17.2 C 84 % 14.47 C
8 06-09-2018 00:35:00 17.1 C 84 % 14.38 C
9 06-09-2018 00:40:00 17 C 84 % 14.28 C
10 06-09-2018 00:45:00 16.9 C 84 % 14.18 C
11 06-09-2018 00:50:00 16.8 C 85 % 14.26 C
12 06-09-2018 00:55:00 16.8 C 85 % 14.26 C
13 06-09-2018 01:00:00 16.7 C 85 % 14.17 C
14 06-09-2018 01:05:00 16.7 C 86 % 14.35 C
15 06-09-2018 01:10:00 16.6 C 86 % 14.25 C
16 06-09-2018 01:15:00 16.5 C 86 % 14.15 C
17 06-09-2018 01:20:00 16.4 C 87 % 14.23 C
18 06-09-2018 01:25:00 16.4 C 87 % 14.23 C
19 06-09-2018 01:30:00 16.3 C 87 % 14.13 C
20 06-09-2018 01:35:00 16.3 C 87 % 14.13 C
21 06-09-2018 01:40:00 16.2 C 87 % 14.03 C
22 06-09-2018 01:45:00 16.2 C 88 % 14.21 C
23 06-09-2018 01:50:00 16.2 C 88 % 14.21 C
24 06-09-2018 01:55:00 16.2 C 88 % 14.21 C
25 06-09-2018 02:00:00 16.1 C 88 % 14.11 C
Sensor: Nr:Datum:Temp:Feuchte:Taupunkt:
Aussen-T/F 26 06-09-2018 02:05:00 16.1 C 88 % 14.11 C
27 06-09-2018 02:10:00 15.9 C 88 % 13.92 C
28 06-09-2018 02:15:00 15.9 C 88 % 13.92 C
29 06-09-2018 02:20:00 15.8 C 89 % 13.99 C
30 06-09-2018 02:25:00 15.8 C 89 % 13.99 C
31 06-09-2018 02:30:00 15.8 C 89 % 13.99 C
32 06-09-2018 02:35:00 15.8 C 90 % 14.16 C
33 06-09-2018 02:40:00 15.8 C 90 % 14.16 C
34 06-09-2018 02:45:00 15.8 C 90 % 14.16 C
35 06-09-2018 02:50:00 15.7 C 89 % 13.89 C
36 06-09-2018 02:55:00 15.6 C 89 % 13.79 C
37 06-09-2018 03:00:00 15.6 C 90 % 13.97 C
38 06-09-2018 03:05:00 15.5 C 90 % 13.87 C
39 06-09-2018 03:10:00 15.4 C 90 % 13.77 C
40 06-09-2018 03:15:00 15.4 C 90 % 13.77 C
41 06-09-2018 03:20:00 15.4 C 91 % 13.94 C
42 06-09-2018 03:25:00 15.4 C 91 % 13.94 C
43 06-09-2018 03:30:00 15.3 C 91 % 13.84 C
44 06-09-2018 03:35:00 15.3 C 91 % 13.84 C
45 06-09-2018 03:40:00 15.2 C 91 % 13.74 C
46 06-09-2018 03:45:00 15.2 C 91 % 13.74 C
47 06-09-2018 03:50:00 15.2 C 91 % 13.74 C
48 06-09-2018 03:55:00 15.2 C 92 % 13.91 C
49 06-09-2018 04:00:00 15.2 C 92 % 13.91 C
50 06-09-2018 04:05:00 15.2 C 92 % 13.91 C
Sensor: Nr:Datum:Temp:Feuchte:Taupunkt:
Aussen-T/F 51 06-09-2018 04:10:00 15.2 C 92 % 13.91 C
52 06-09-2018 04:15:00 15.4 C 93 % 14.27 C
53 06-09-2018 04:20:00 15.7 C 93 % 14.57 C
54 06-09-2018 04:25:00 15.8 C 93 % 14.67 C
55 06-09-2018 04:30:00 15.8 C 93 % 14.67 C
56 06-09-2018 04:35:00 15.8 C 92 % 14.5 C
57 06-09-2018 04:40:00 15.8 C 92 % 14.5 C
58 06-09-2018 04:45:00 15.8 C 92 % 14.5 C
59 06-09-2018 04:50:00 15.7 C 92 % 14.4 C
60 06-09-2018 04:55:00 15.7 C 92 % 14.4 C
61 06-09-2018 05:00:00 15.6 C 92 % 14.31 C
62 06-09-2018 05:05:00 15.5 C 92 % 14.21 C
63 06-09-2018 05:10:00 15.4 C 92 % 14.11 C
64 06-09-2018 05:15:00 15.3 C 92 % 14.01 C
65 06-09-2018 05:20:00 15.3 C 92 % 14.01 C
66 06-09-2018 05:25:00 15.2 C 92 % 13.91 C
67 06-09-2018 05:30:00 15.3 C 92 % 14.01 C
68 06-09-2018 05:35:00 15.2 C 93 % 14.08 C
69 06-09-2018 05:40:00 15.2 C 93 % 14.08 C
70 06-09-2018 05:45:00 15.2 C 92 % 13.91 C
71 06-09-2018 05:50:00 15.1 C 92 % 13.81 C
72 06-09-2018 05:55:00 15 C 92 % 13.71 C
73 06-09-2018 06:00:00 15 C 92 % 13.71 C
74 06-09-2018 06:05:00 15 C 93 % 13.88 C
75 06-09-2018 06:10:00 15.1 C 93 % 13.98 C
Sensor: Nr:Datum:Temp:Feuchte:Taupunkt:
Aussen-T/F 76 06-09-2018 06:15:00 15.2 C 93 % 14.08 C
77 06-09-2018 06:20:00 15.3 C 94 % 14.34 C
78 06-09-2018 06:25:00 15.3 C 94 % 14.34 C
79 06-09-2018 06:30:00 15.4 C 94 % 14.44 C
80 06-09-2018 06:35:00 15.4 C 94 % 14.44 C
81 06-09-2018 06:40:00 15.4 C 93 % 14.27 C
82 06-09-2018 06:45:00 15.5 C 94 % 14.54 C
83 06-09-2018 06:50:00 15.5 C 94 % 14.54 C
84 06-09-2018 06:55:00 15.6 C 94 % 14.64 C
85 06-09-2018 07:00:00 15.6 C 94 % 14.64 C
86 06-09-2018 07:05:00 15.7 C 94 % 14.74 C
87 06-09-2018 07:10:00 15.7 C 94 % 14.74 C
88 06-09-2018 07:15:00 15.8 C 94 % 14.84 C
89 06-09-2018 07:20:00 15.9 C 94 % 14.94 C
90 06-09-2018 07:25:00 16.1 C 94 % 15.13 C
91 06-09-2018 07:30:00 16.1 C 94 % 15.13 C
92 06-09-2018 07:35:00 16.1 C 94 % 15.13 C
93 06-09-2018 07:40:00 16.2 C 94 % 15.23 C
94 06-09-2018 07:45:00 16.2 C 94 % 15.23 C
95 06-09-2018 07:50:00 16.2 C 94 % 15.23 C
96 06-09-2018 07:55:00 16.2 C 94 % 15.23 C
97 06-09-2018 08:00:00 16.3 C 94 % 15.33 C
98 06-09-2018 08:05:00 16.3 C 94 % 15.33 C
99 06-09-2018 08:10:00 16.5 C 95 % 15.7 C
100 06-09-2018 08:15:00 16.6 C 94 % 15.63 C
Sensor: Nr:Datum:Temp:Feuchte:Taupunkt:
Aussen-T/F 101 06-09-2018 08:20:00 16.7 C 95 % 15.9 C
102 06-09-2018 08:25:00 16.8 C 95 % 15.99 C
103 06-09-2018 08:30:00 16.9 C 95 % 16.09 C
104 06-09-2018 08:35:00 17.1 C 95 % 16.29 C
105 06-09-2018 08:40:00 17.2 C 95 % 16.39 C
106 06-09-2018 08:45:00 17.2 C 95 % 16.39 C
107 06-09-2018 08:50:00 17.3 C 95 % 16.49 C
108 06-09-2018 08:55:00 17.4 C 95 % 16.59 C
109 06-09-2018 09:00:00 17.5 C 95 % 16.69 C
110 06-09-2018 09:05:00 17.6 C 95 % 16.79 C
111 06-09-2018 09:10:00 17.6 C 95 % 16.79 C
112 06-09-2018 09:15:00 17.7 C 95 % 16.89 C
113 06-09-2018 09:20:00 17.8 C 95 % 16.99 C
114 06-09-2018 09:25:00 17.9 C 95 % 17.09 C
115 06-09-2018 09:30:00 17.9 C 95 % 17.09 C
116 06-09-2018 09:35:00 18 C 94 % 17.02 C
117 06-09-2018 09:40:00 18.1 C 94 % 17.12 C
118 06-09-2018 09:45:00 18.2 C 94 % 17.22 C
119 06-09-2018 09:50:00 18.3 C 94 % 17.32 C
120 06-09-2018 09:55:00 18.4 C 94 % 17.42 C
121 06-09-2018 10:00:00 18.4 C 93 % 17.25 C
122 06-09-2018 10:05:00 18.4 C 93 % 17.25 C
123 06-09-2018 10:10:00 18.6 C 93 % 17.45 C
124 06-09-2018 10:15:00 18.5 C 91 % 17 C
125 06-09-2018 10:20:00 18.6 C 90 % 16.93 C
Sensor: Nr:Datum:Temp:Feuchte:Taupunkt:
Aussen-T/F 126 06-09-2018 10:25:00 18.7 C 90 % 17.03 C
127 06-09-2018 10:30:00 18.8 C 90 % 17.12 C
128 06-09-2018 10:35:00 18.9 C 88 % 16.87 C
129 06-09-2018 10:40:00 19 C 87 % 16.79 C
130 06-09-2018 10:45:00 19.1 C 87 % 16.89 C
131 06-09-2018 10:50:00 19.2 C 87 % 16.98 C
132 06-09-2018 10:55:00 19.3 C 86 % 16.9 C
133 06-09-2018 11:00:00 19.4 C 85 % 16.81 C
134 06-09-2018 11:05:00 19.6 C 84 % 16.82 C
135 06-09-2018 11:10:00 19.7 C 83 % 16.73 C
136 06-09-2018 11:15:00 19.8 C 84 % 17.02 C
137 06-09-2018 11:20:00 19.9 C 83 % 16.93 C
138 06-09-2018 11:25:00 19.9 C 82 % 16.74 C
139 06-09-2018 11:30:00 19.9 C 82 % 16.74 C
140 06-09-2018 11:35:00 20 C 82 % 16.83 C
141 06-09-2018 11:40:00 20.1 C 82 % 16.93 C
142 06-09-2018 11:45:00 20.3 C 82 % 17.13 C
143 06-09-2018 11:50:00 20.4 C 83 % 17.42 C
144 06-09-2018 11:55:00 20.7 C 81 % 17.32 C
145 06-09-2018 12:00:00 20.8 C 80 % 17.22 C
146 06-09-2018 12:05:00 20.8 C 80 % 17.22 C
147 06-09-2018 12:10:00 20.8 C 79 % 17.02 C
148 06-09-2018 12:15:00 20.7 C 79 % 16.93 C
149 06-09-2018 12:20:00 20.6 C 80 % 17.03 C
150 06-09-2018 12:25:00 20.6 C 82 % 17.42 C
Sensor: Nr:Datum:Temp:Feuchte:Taupunkt:
Aussen-T/F 151 06-09-2018 12:30:00 20.4 C 82 % 17.22 C
152 06-09-2018 12:35:00 20.4 C 83 % 17.42 C
153 06-09-2018 12:40:00 20.6 C 84 % 17.8 C
154 06-09-2018 12:45:00 20.6 C 83 % 17.61 C
155 06-09-2018 12:50:00 20.6 C 83 % 17.61 C
156 06-09-2018 12:55:00 20.7 C 84 % 17.9 C
157 06-09-2018 13:00:00 20.8 C 82 % 17.61 C
158 06-09-2018 13:05:00 20.8 C 81 % 17.42 C
159 06-09-2018 13:10:00 20.9 C 81 % 17.52 C
160 06-09-2018 13:15:00 20.8 C 82 % 17.61 C
161 06-09-2018 13:20:00 20.8 C 82 % 17.61 C
162 06-09-2018 13:25:00 20.8 C 82 % 17.61 C
163 06-09-2018 13:30:00 20.8 C 81 % 17.42 C
164 06-09-2018 13:35:00 20.8 C 82 % 17.61 C
165 06-09-2018 13:40:00 20.8 C 82 % 17.61 C
166 06-09-2018 13:45:00 20.7 C 82 % 17.52 C
167 06-09-2018 13:50:00 20.7 C 82 % 17.52 C
168 06-09-2018 13:55:00 20.8 C 81 % 17.42 C
169 06-09-2018 14:00:00 20.9 C 81 % 17.52 C
170 06-09-2018 14:05:00 21.1 C 80 % 17.51 C
171 06-09-2018 14:10:00 21.1 C 80 % 17.51 C
172 06-09-2018 14:15:00 21.1 C 80 % 17.51 C
173 06-09-2018 14:20:00 21.2 C 79 % 17.41 C
174 06-09-2018 14:25:00 21.2 C 79 % 17.41 C
175 06-09-2018 14:30:00 21.3 C 77 % 17.1 C
Sensor: Nr:Datum:Temp:Feuchte:Taupunkt:
Aussen-T/F 176 06-09-2018 14:35:00 21.5 C 77 % 17.3 C
177 06-09-2018 14:40:00 21.6 C 76 % 17.19 C
178 06-09-2018 14:45:00 21.7 C 76 % 17.28 C
179 06-09-2018 14:50:00 21.7 C 75 % 17.07 C
180 06-09-2018 14:55:00 21.8 C 75 % 17.17 C
181 06-09-2018 15:00:00 21.8 C 75 % 17.17 C
182 06-09-2018 15:05:00 21.8 C 75 % 17.17 C
183 06-09-2018 15:10:00 21.8 C 76 % 17.38 C
184 06-09-2018 15:15:00 21.8 C 75 % 17.17 C
185 06-09-2018 15:20:00 21.7 C 76 % 17.28 C
186 06-09-2018 15:25:00 21.6 C 76 % 17.19 C
187 06-09-2018 15:30:00 21.5 C 76 % 17.09 C
188 06-09-2018 15:35:00 21.4 C 77 % 17.2 C
189 06-09-2018 15:40:00 21.4 C 77 % 17.2 C
190 06-09-2018 15:45:00 21.3 C 76 % 16.9 C
191 06-09-2018 15:50:00 21.3 C 77 % 17.1 C
192 06-09-2018 15:55:00 21.2 C 76 % 16.8 C
193 06-09-2018 16:00:00 21.2 C 77 % 17.01 C
194 06-09-2018 16:05:00 21.1 C 77 % 16.91 C
195 06-09-2018 16:10:00 21.1 C 77 % 16.91 C
196 06-09-2018 16:15:00 21.1 C 78 % 17.11 C
197 06-09-2018 16:20:00 21.1 C 77 % 16.91 C
198 06-09-2018 16:25:00 21.1 C 76 % 16.7 C
199 06-09-2018 16:30:00 21.1 C 76 % 16.7 C
200 06-09-2018 16:35:00 21.2 C 76 % 16.8 C
Sensor: Nr:Datum:Temp:Feuchte:Taupunkt:
Aussen-T/F 201 06-09-2018 16:40:00 21.2 C 77 % 17.01 C
202 06-09-2018 16:45:00 21.3 C 78 % 17.31 C
203 06-09-2018 16:50:00 21.3 C 78 % 17.31 C
204 06-09-2018 16:55:00 21.3 C 78 % 17.31 C
205 06-09-2018 17:00:00 21.3 C 76 % 16.9 C
206 06-09-2018 17:05:00 21.3 C 76 % 16.9 C
207 06-09-2018 17:10:00 21.3 C 77 % 17.1 C
208 06-09-2018 17:15:00 21.3 C 77 % 17.1 C
209 06-09-2018 17:20:00 21.3 C 77 % 17.1 C
210 06-09-2018 17:25:00 21.3 C 77 % 17.1 C
211 06-09-2018 17:30:00 21.3 C 76 % 16.9 C
212 06-09-2018 17:35:00 21.3 C 76 % 16.9 C
213 06-09-2018 17:40:00 21.2 C 76 % 16.8 C
214 06-09-2018 17:45:00 21.2 C 77 % 17.01 C
215 06-09-2018 17:50:00 21.1 C 79 % 17.32 C
216 06-09-2018 17:55:00 20.9 C 80 % 17.32 C
217 06-09-2018 18:00:00 20.8 C 81 % 17.42 C
218 06-09-2018 18:05:00 20.6 C 81 % 17.22 C
219 06-09-2018 18:10:00 20.4 C 82 % 17.22 C
220 06-09-2018 18:15:00 20.3 C 82 % 17.13 C
221 06-09-2018 18:20:00 20.2 C 83 % 17.22 C
222 06-09-2018 18:25:00 20.1 C 84 % 17.31 C
223 06-09-2018 18:30:00 20 C 85 % 17.4 C
224 06-09-2018 18:35:00 19.8 C 86 % 17.39 C
225 06-09-2018 18:40:00 19.6 C 86 % 17.19 C
Sensor: Nr:Datum:Temp:Feuchte:Taupunkt:
Aussen-T/F 226 06-09-2018 18:45:00 19.4 C 87 % 17.18 C
227 06-09-2018 18:50:00 19.2 C 88 % 17.16 C
228 06-09-2018 18:55:00 19.1 C 88 % 17.07 C
229 06-09-2018 19:00:00 18.9 C 89 % 17.05 C
230 06-09-2018 19:05:00 18.8 C 90 % 17.12 C
231 06-09-2018 19:10:00 18.7 C 90 % 17.03 C
232 06-09-2018 19:15:00 18.7 C 91 % 17.2 C
233 06-09-2018 19:20:00 18.7 C 91 % 17.2 C
234 06-09-2018 19:25:00 18.6 C 91 % 17.1 C
235 06-09-2018 19:30:00 18.5 C 91 % 17 C
236 06-09-2018 19:35:00 18.4 C 91 % 16.9 C
237 06-09-2018 19:40:00 18.4 C 92 % 17.08 C
238 06-09-2018 19:45:00 18.3 C 92 % 16.98 C
239 06-09-2018 19:50:00 18.3 C 92 % 16.98 C
240 06-09-2018 19:55:00 18.3 C 92 % 16.98 C
241 06-09-2018 20:00:00 18.2 C 92 % 16.88 C
242 06-09-2018 20:05:00 18.1 C 92 % 16.78 C
243 06-09-2018 20:10:00 18.1 C 92 % 16.78 C
244 06-09-2018 20:15:00 18.1 C 92 % 16.78 C
245 06-09-2018 20:20:00 18 C 92 % 16.68 C
246 06-09-2018 20:25:00 17.9 C 92 % 16.58 C
247 06-09-2018 20:30:00 17.9 C 93 % 16.75 C
248 06-09-2018 20:35:00 17.8 C 93 % 16.65 C
249 06-09-2018 20:40:00 17.8 C 93 % 16.65 C
250 06-09-2018 20:45:00 17.8 C 93 % 16.65 C
Sensor: Nr:Datum:Temp:Feuchte:Taupunkt:
Aussen-T/F 251 06-09-2018 20:50:00 17.7 C 93 % 16.55 C
252 06-09-2018 20:55:00 17.7 C 93 % 16.55 C
253 06-09-2018 21:00:00 17.7 C 94 % 16.72 C
254 06-09-2018 21:05:00 17.7 C 93 % 16.55 C
255 06-09-2018 21:10:00 17.6 C 93 % 16.45 C
256 06-09-2018 21:15:00 17.6 C 94 % 16.62 C
257 06-09-2018 21:20:00 17.5 C 94 % 16.52 C
258 06-09-2018 21:25:00 17.4 C 94 % 16.42 C
259 06-09-2018 21:30:00 17.3 C 93 % 16.16 C
260 06-09-2018 21:35:00 17.2 C 93 % 16.06 C
261 06-09-2018 21:40:00 17.2 C 94 % 16.23 C
262 06-09-2018 21:45:00 17.1 C 94 % 16.13 C
263 06-09-2018 21:50:00 17.1 C 94 % 16.13 C
264 06-09-2018 21:55:00 17 C 94 % 16.03 C
265 06-09-2018 22:00:00 16.9 C 94 % 15.93 C
266 06-09-2018 22:05:00 16.9 C 94 % 15.93 C
267 06-09-2018 22:10:00 16.8 C 94 % 15.83 C
268 06-09-2018 22:15:00 16.8 C 94 % 15.83 C
269 06-09-2018 22:20:00 16.7 C 94 % 15.73 C
270 06-09-2018 22:25:00 16.6 C 94 % 15.63 C
271 06-09-2018 22:30:00 16.6 C 94 % 15.63 C
272 06-09-2018 22:35:00 16.4 C 94 % 15.43 C
273 06-09-2018 22:40:00 16.3 C 94 % 15.33 C
274 06-09-2018 22:45:00 16.3 C 94 % 15.33 C
275 06-09-2018 22:50:00 16.2 C 94 % 15.23 C
Sensor: Nr:Datum:Temp:Feuchte:Taupunkt:
Aussen-T/F 276 06-09-2018 22:55:00 16.2 C 94 % 15.23 C
277 06-09-2018 23:00:00 16.1 C 94 % 15.13 C
278 06-09-2018 23:05:00 16.1 C 94 % 15.13 C
279 06-09-2018 23:10:00 16 C 94 % 15.03 C
280 06-09-2018 23:15:00 15.9 C 94 % 14.94 C
281 06-09-2018 23:20:00 15.9 C 94 % 14.94 C
282 06-09-2018 23:25:00 15.9 C 94 % 14.94 C
283 06-09-2018 23:30:00 16 C 95 % 15.2 C
284 06-09-2018 23:35:00 16.1 C 95 % 15.3 C
285 06-09-2018 23:40:00 16.1 C 95 % 15.3 C
286 06-09-2018 23:45:00 16.2 C 95 % 15.4 C
287 06-09-2018 23:50:00 16.2 C 95 % 15.4 C
288 06-09-2018 23:55:00 16.3 C 95 % 15.5 C
289 07-09-2018 00:00:00 16.3 C 95 % 15.5 C
290 07-09-2018 00:05:00 16.3 C 95 % 15.5 C
291 07-09-2018 00:10:00 16.3 C 95 % 15.5 C
292 07-09-2018 00:15:00 16.2 C 95 % 15.4 C
293 07-09-2018 00:20:00 16.2 C 95 % 15.4 C
294 07-09-2018 00:25:00 16.2 C 95 % 15.4 C
295 07-09-2018 00:30:00 16.2 C 95 % 15.4 C
296 07-09-2018 00:35:00 16.1 C 95 % 15.3 C
297 07-09-2018 00:40:00 16.1 C 95 % 15.3 C
298 07-09-2018 00:45:00 16.1 C 95 % 15.3 C
299 07-09-2018 00:50:00 16.1 C 95 % 15.3 C
300 07-09-2018 00:55:00 16.2 C 95 % 15.4 C
Sensor: Nr:Datum:Temp:Feuchte:Taupunkt:
Aussen-T/F 301 07-09-2018 01:00:00 16.1 C 95 % 15.3 C
302 07-09-2018 01:05:00 16.1 C 95 % 15.3 C
303 07-09-2018 01:10:00 16.1 C 95 % 15.3 C
304 07-09-2018 01:15:00 16.1 C 95 % 15.3 C
305 07-09-2018 01:20:00 16.2 C 95 % 15.4 C
306 07-09-2018 01:25:00 16.2 C 95 % 15.4 C
307 07-09-2018 01:30:00 16.2 C 95 % 15.4 C
308 07-09-2018 01:35:00 16.1 C 95 % 15.3 C
309 07-09-2018 01:40:00 15.9 C 95 % 15.1 C
310 07-09-2018 01:45:00 15.8 C 95 % 15 C
311 07-09-2018 01:50:00 15.7 C 95 % 14.9 C
312 07-09-2018 01:55:00 15.6 C 95 % 14.8 C
313 07-09-2018 02:00:00 15.5 C 95 % 14.7 C
314 07-09-2018 02:05:00 15.4 C 95 % 14.6 C
315 07-09-2018 02:10:00 15.4 C 95 % 14.6 C
316 07-09-2018 02:15:00 15.4 C 95 % 14.6 C
317 07-09-2018 02:20:00 15.4 C 95 % 14.6 C
318 07-09-2018 02:25:00 15.4 C 95 % 14.6 C
319 07-09-2018 02:30:00 15.4 C 95 % 14.6 C
320 07-09-2018 02:35:00 15.4 C 95 % 14.6 C
321 07-09-2018 02:40:00 15.4 C 95 % 14.6 C
322 07-09-2018 02:45:00 15.4 C 95 % 14.6 C
323 07-09-2018 02:50:00 15.4 C 95 % 14.6 C
324 07-09-2018 02:55:00 15.4 C 95 % 14.6 C
325 07-09-2018 03:00:00 15.4 C 95 % 14.6 C
Sensor: Nr:Datum:Temp:Feuchte:Taupunkt:
Aussen-T/F 326 07-09-2018 03:05:00 15.4 C 95 % 14.6 C
327 07-09-2018 03:10:00 15.4 C 95 % 14.6 C
328 07-09-2018 03:15:00 15.4 C 95 % 14.6 C
329 07-09-2018 03:20:00 15.4 C 95 % 14.6 C
330 07-09-2018 03:25:00 15.4 C 95 % 14.6 C
331 07-09-2018 03:30:00 15.4 C 96 % 14.77 C
332 07-09-2018 03:35:00 15.4 C 96 % 14.77 C
333 07-09-2018 03:40:00 15.4 C 95 % 14.6 C
334 07-09-2018 03:45:00 15.4 C 95 % 14.6 C
335 07-09-2018 03:50:00 15.4 C 95 % 14.6 C
336 07-09-2018 03:55:00 15.3 C 95 % 14.5 C
337 07-09-2018 04:00:00 15.3 C 95 % 14.5 C
338 07-09-2018 04:05:00 15.3 C 95 % 14.5 C
339 07-09-2018 04:10:00 15.3 C 95 % 14.5 C
340 07-09-2018 04:15:00 15.3 C 95 % 14.5 C
341 07-09-2018 04:20:00 15.3 C 95 % 14.5 C
342 07-09-2018 04:25:00 15.2 C 95 % 14.4 C
343 07-09-2018 04:30:00 15.2 C 95 % 14.4 C
344 07-09-2018 04:35:00 15.2 C 95 % 14.4 C
345 07-09-2018 04:40:00 15.3 C 95 % 14.5 C
346 07-09-2018 04:45:00 15.3 C 95 % 14.5 C
347 07-09-2018 04:50:00 15.3 C 95 % 14.5 C
348 07-09-2018 04:55:00 15.3 C 95 % 14.5 C
349 07-09-2018 05:00:00 15.3 C 95 % 14.5 C
350 07-09-2018 05:05:00 15.3 C 95 % 14.5 C
Sensor: Nr:Datum:Temp:Feuchte:Taupunkt:
Aussen-T/F 351 07-09-2018 05:10:00 15.3 C 95 % 14.5 C
352 07-09-2018 05:15:00 15.3 C 95 % 14.5 C
353 07-09-2018 05:20:00 15.3 C 95 % 14.5 C
354 07-09-2018 05:25:00 15.3 C 95 % 14.5 C
355 07-09-2018 05:30:00 15.3 C 95 % 14.5 C
356 07-09-2018 05:35:00 15.3 C 95 % 14.5 C
357 07-09-2018 05:40:00 15.3 C 95 % 14.5 C
358 07-09-2018 05:45:00 15.3 C 95 % 14.5 C
359 07-09-2018 05:50:00 15.2 C 95 % 14.4 C
360 07-09-2018 05:55:00 14.9 C 95 % 14.11 C
361 07-09-2018 06:00:00 14.7 C 94 % 13.74 C
362 07-09-2018 06:05:00 14.6 C 94 % 13.65 C
363 07-09-2018 06:10:00 14.4 C 94 % 13.45 C
364 07-09-2018 06:15:00 14.3 C 95 % 13.51 C
365 07-09-2018 06:20:00 14.2 C 95 % 13.41 C
366 07-09-2018 06:25:00 14.1 C 94 % 13.15 C
367 07-09-2018 06:30:00 13.9 C 94 % 12.95 C
368 07-09-2018 06:35:00 13.8 C 94 % 12.85 C
369 07-09-2018 06:40:00 13.7 C 94 % 12.75 C
370 07-09-2018 06:45:00 13.7 C 95 % 12.91 C
371 07-09-2018 06:50:00 13.7 C 95 % 12.91 C
372 07-09-2018 06:55:00 13.7 C 95 % 12.91 C
373 07-09-2018 07:00:00 13.7 C 95 % 12.91 C
374 07-09-2018 07:05:00 13.7 C 95 % 12.91 C
375 07-09-2018 07:10:00 13.7 C 95 % 12.91 C
Sensor: Nr:Datum:Temp:Feuchte:Taupunkt:
Aussen-T/F 376 07-09-2018 07:15:00 13.7 C 95 % 12.91 C
377 07-09-2018 07:20:00 13.8 C 95 % 13.01 C
378 07-09-2018 07:25:00 13.8 C 95 % 13.01 C
379 07-09-2018 07:30:00 13.8 C 95 % 13.01 C
380 07-09-2018 07:35:00 13.9 C 95 % 13.11 C
381 07-09-2018 07:40:00 13.9 C 96 % 13.27 C
382 07-09-2018 07:45:00 14.1 C 96 % 13.47 C
383 07-09-2018 07:50:00 14.2 C 96 % 13.57 C
384 07-09-2018 07:55:00 14.2 C 96 % 13.57 C
385 07-09-2018 08:00:00 14.3 C 96 % 13.67 C
386 07-09-2018 08:05:00 14.4 C 96 % 13.77 C
387 07-09-2018 08:10:00 14.5 C 96 % 13.87 C
388 07-09-2018 08:15:00 14.6 C 96 % 13.97 C
389 07-09-2018 08:20:00 14.7 C 96 % 14.07 C
390 07-09-2018 08:25:00 14.8 C 96 % 14.17 C
391 07-09-2018 08:30:00 14.8 C 96 % 14.17 C
392 07-09-2018 08:35:00 14.8 C 96 % 14.17 C
393 07-09-2018 08:40:00 14.9 C 96 % 14.27 C
394 07-09-2018 08:45:00 14.9 C 96 % 14.27 C
395 07-09-2018 08:50:00 15 C 96 % 14.37 C
396 07-09-2018 08:55:00 15.1 C 96 % 14.47 C
397 07-09-2018 09:00:00 15.1 C 96 % 14.47 C
398 07-09-2018 09:05:00 15.1 C 96 % 14.47 C
399 07-09-2018 09:10:00 15.2 C 96 % 14.57 C
400 07-09-2018 09:15:00 15.2 C 96 % 14.57 C
Sensor: Nr:Datum:Temp:Feuchte:Taupunkt:
Aussen-T/F 401 07-09-2018 09:20:00 15.2 C 96 % 14.57 C
402 07-09-2018 09:25:00 15.3 C 96 % 14.67 C
403 07-09-2018 09:30:00 15.3 C 96 % 14.67 C
404 07-09-2018 09:35:00 15.5 C 96 % 14.86 C
405 07-09-2018 09:40:00 15.7 C 96 % 15.06 C
406 07-09-2018 09:45:00 15.8 C 96 % 15.16 C
407 07-09-2018 09:50:00 16 C 96 % 15.36 C
408 07-09-2018 09:55:00 16.2 C 96 % 15.56 C
409 07-09-2018 10:00:00 16.2 C 94 % 15.23 C
410 07-09-2018 10:05:00 16.3 C 93 % 15.17 C
411 07-09-2018 10:10:00 16.4 C 92 % 15.1 C
412 07-09-2018 10:15:00 16.7 C 90 % 15.05 C
413 07-09-2018 10:20:00 16.8 C 89 % 14.98 C
414 07-09-2018 10:25:00 17 C 87 % 14.82 C
415 07-09-2018 10:30:00 17.2 C 85 % 14.66 C
416 07-09-2018 10:35:00 17.3 C 84 % 14.57 C
417 07-09-2018 10:40:00 17.4 C 83 % 14.48 C
418 07-09-2018 10:45:00 17.6 C 82 % 14.49 C
419 07-09-2018 10:50:00 17.8 C 82 % 14.69 C
420 07-09-2018 10:55:00 17.9 C 80 % 14.4 C
421 07-09-2018 11:00:00 18.1 C 79 % 14.4 C
422 07-09-2018 11:05:00 18.1 C 76 % 13.81 C
423 07-09-2018 11:10:00 18.1 C 77 % 14.01 C
424 07-09-2018 11:15:00 18.1 C 75 % 13.6 C
425 07-09-2018 11:20:00 18.2 C 75 % 13.7 C
Sensor: Nr:Datum:Temp:Feuchte:Taupunkt:
Aussen-T/F 426 07-09-2018 11:25:00 18.3 C 74 % 13.59 C
427 07-09-2018 11:30:00 18.4 C 74 % 13.68 C
428 07-09-2018 11:35:00 18.6 C 75 % 14.08 C
429 07-09-2018 11:40:00 18.7 C 73 % 13.76 C
430 07-09-2018 11:45:00 18.8 C 74 % 14.07 C
431 07-09-2018 11:50:00 18.9 C 73 % 13.96 C
432 07-09-2018 11:55:00 19.1 C 73 % 14.15 C
433 07-09-2018 12:00:00 19.2 C 71 % 13.82 C
434 07-09-2018 12:05:00 19.3 C 71 % 13.91 C
435 07-09-2018 12:10:00 19.3 C 71 % 13.91 C
436 07-09-2018 12:15:00 19.4 C 70 % 13.79 C
437 07-09-2018 12:20:00 19.3 C 71 % 13.91 C
438 07-09-2018 12:25:00 19.3 C 71 % 13.91 C
439 07-09-2018 12:30:00 19.2 C 71 % 13.82 C
440 07-09-2018 12:35:00 19 C 71 % 13.63 C
441 07-09-2018 12:40:00 18.8 C 72 % 13.65 C
442 07-09-2018 12:45:00 18.7 C 73 % 13.76 C
443 07-09-2018 12:50:00 18.6 C 74 % 13.88 C
444 07-09-2018 12:55:00 18.4 C 74 % 13.68 C
445 07-09-2018 13:00:00 18.4 C 74 % 13.68 C
446 07-09-2018 13:05:00 18.4 C 75 % 13.89 C
447 07-09-2018 13:10:00 18.5 C 75 % 13.99 C
448 07-09-2018 13:15:00 18.6 C 75 % 14.08 C
449 07-09-2018 13:20:00 18.6 C 75 % 14.08 C
450 07-09-2018 13:25:00 18.8 C 74 % 14.07 C
Sensor: Nr:Datum:Temp:Feuchte:Taupunkt:
Aussen-T/F 451 07-09-2018 13:30:00 18.8 C 74 % 14.07 C
452 07-09-2018 13:35:00 18.7 C 74 % 13.97 C
453 07-09-2018 13:40:00 18.7 C 74 % 13.97 C
454 07-09-2018 13:45:00 18.7 C 74 % 13.97 C
455 07-09-2018 13:50:00 18.8 C 74 % 14.07 C
456 07-09-2018 13:55:00 18.9 C 75 % 14.37 C
457 07-09-2018 14:00:00 19.1 C 73 % 14.15 C
458 07-09-2018 14:05:00 19.2 C 72 % 14.03 C
459 07-09-2018 14:10:00 19.3 C 73 % 14.34 C
460 07-09-2018 14:15:00 19.4 C 72 % 14.22 C
461 07-09-2018 14:20:00 19.4 C 72 % 14.22 C
462 07-09-2018 14:25:00 19.4 C 72 % 14.22 C
463 07-09-2018 14:30:00 19.3 C 72 % 14.13 C
464 07-09-2018 14:35:00 19.3 C 72 % 14.13 C
465 07-09-2018 14:40:00 19.3 C 72 % 14.13 C
466 07-09-2018 14:45:00 19.3 C 71 % 13.91 C
467 07-09-2018 14:50:00 19.6 C 71 % 14.2 C
468 07-09-2018 14:55:00 19.7 C 70 % 14.08 C
469 07-09-2018 15:00:00 19.7 C 70 % 14.08 C
470 07-09-2018 15:05:00 19.7 C 71 % 14.3 C
471 07-09-2018 15:10:00 19.6 C 71 % 14.2 C
472 07-09-2018 15:15:00 19.5 C 71 % 14.1 C
473 07-09-2018 15:20:00 19.4 C 72 % 14.22 C
474 07-09-2018 15:25:00 19.3 C 72 % 14.13 C
475 07-09-2018 15:30:00 19.2 C 73 % 14.25 C
Sensor: Nr:Datum:Temp:Feuchte:Taupunkt:
Aussen-T/F 476 07-09-2018 15:35:00 18.9 C 77 % 14.78 C
477 07-09-2018 15:40:00 18.7 C 79 % 14.99 C
478 07-09-2018 15:45:00 18.7 C 80 % 15.18 C
479 07-09-2018 15:50:00 18.6 C 79 % 14.89 C
480 07-09-2018 15:55:00 18.4 C 79 % 14.69 C
481 07-09-2018 16:00:00 18.4 C 80 % 14.89 C
482 07-09-2018 16:05:00 18.2 C 79 % 14.5 C
483 07-09-2018 16:10:00 17.8 C 79 % 14.11 C
484 07-09-2018 16:15:00 17.4 C 80 % 13.92 C
485 07-09-2018 16:20:00 17.1 C 82 % 14 C
486 07-09-2018 16:25:00 16.5 C 83 % 13.6 C
487 07-09-2018 16:30:00 16.2 C 84 % 13.5 C
488 07-09-2018 16:35:00 16 C 85 % 13.48 C
489 07-09-2018 16:40:00 15.9 C 85 % 13.38 C
490 07-09-2018 16:45:00 15.8 C 86 % 13.46 C
491 07-09-2018 16:50:00 15.7 C 87 % 13.54 C
492 07-09-2018 16:55:00 15.6 C 88 % 13.62 C
493 07-09-2018 17:00:00 15.6 C 88 % 13.62 C
494 07-09-2018 17:05:00 15.6 C 90 % 13.97 C
495 07-09-2018 17:10:00 15.6 C 90 % 13.97 C
496 07-09-2018 17:15:00 15.5 C 89 % 13.7 C
497 07-09-2018 17:20:00 15.5 C 89 % 13.7 C
498 07-09-2018 17:25:00 15.6 C 87 % 13.45 C
499 07-09-2018 17:30:00 15.6 C 87 % 13.45 C
500 07-09-2018 17:35:00 15.7 C 88 % 13.72 C
Sensor: Nr:Datum:Temp:Feuchte:Taupunkt:
Aussen-T/F 501 07-09-2018 17:40:00 15.8 C 85 % 13.28 C
502 07-09-2018 17:45:00 16 C 85 % 13.48 C
503 07-09-2018 17:50:00 16.2 C 84 % 13.5 C
504 07-09-2018 17:55:00 16.3 C 84 % 13.59 C
505 07-09-2018 18:00:00 16.3 C 83 % 13.41 C
506 07-09-2018 18:05:00 16.3 C 82 % 13.22 C
507 07-09-2018 18:10:00 16.3 C 83 % 13.41 C
508 07-09-2018 18:15:00 16.4 C 86 % 14.05 C
509 07-09-2018 18:20:00 16.5 C 86 % 14.15 C
510 07-09-2018 18:25:00 16.6 C 87 % 14.43 C
511 07-09-2018 18:30:00 16.5 C 86 % 14.15 C
512 07-09-2018 18:35:00 16.4 C 87 % 14.23 C
513 07-09-2018 18:40:00 16.3 C 87 % 14.13 C
514 07-09-2018 18:45:00 16.3 C 87 % 14.13 C
515 07-09-2018 18:50:00 16.2 C 88 % 14.21 C
516 07-09-2018 18:55:00 16.1 C 86 % 13.76 C
517 07-09-2018 19:00:00 16 C 88 % 14.01 C
518 07-09-2018 19:05:00 16 C 88 % 14.01 C
519 07-09-2018 19:10:00 16.2 C 89 % 14.39 C
520 07-09-2018 19:15:00 16.4 C 90 % 14.76 C
521 07-09-2018 19:20:00 16.6 C 87 % 14.43 C
522 07-09-2018 19:25:00 16.5 C 79 % 12.85 C
523 07-09-2018 19:30:00 16.4 C 75 % 11.96 C
524 07-09-2018 19:35:00 16.4 C 78 % 12.56 C
525 07-09-2018 19:40:00 16.3 C 78 % 12.46 C
Sensor: Nr:Datum:Temp:Feuchte:Taupunkt:
Aussen-T/F 526 07-09-2018 19:45:00 15.9 C 78 % 12.07 C
527 07-09-2018 19:50:00 15.6 C 79 % 11.97 C
528 07-09-2018 19:55:00 15.3 C 80 % 11.87 C
529 07-09-2018 20:00:00 15.1 C 81 % 11.87 C
530 07-09-2018 20:05:00 14.8 C 81 % 11.57 C
531 07-09-2018 20:10:00 14.4 C 81 % 11.18 C
532 07-09-2018 20:15:00 14.2 C 82 % 11.17 C
533 07-09-2018 20:20:00 13.9 C 82 % 10.88 C
534 07-09-2018 20:25:00 13.8 C 84 % 11.15 C
535 07-09-2018 20:30:00 13.6 C 84 % 10.95 C
536 07-09-2018 20:35:00 13.4 C 84 % 10.75 C
537 07-09-2018 20:40:00 13.2 C 84 % 10.56 C
538 07-09-2018 20:45:00 13.2 C 85 % 10.74 C
539 07-09-2018 20:50:00 13.1 C 84 % 10.46 C
540 07-09-2018 20:55:00 12.9 C 84 % 10.26 C
541 07-09-2018 21:00:00 12.8 C 84 % 10.17 C
542 07-09-2018 21:05:00 12.8 C 84 % 10.17 C
543 07-09-2018 21:10:00 12.7 C 84 % 10.07 C
544 07-09-2018 21:15:00 12.7 C 84 % 10.07 C
545 07-09-2018 21:20:00 12.7 C 84 % 10.07 C
546 07-09-2018 21:25:00 12.7 C 84 % 10.07 C
547 07-09-2018 21:30:00 12.6 C 85 % 10.15 C
548 07-09-2018 21:35:00 12.6 C 84 % 9.97 C
549 07-09-2018 21:40:00 12.4 C 85 % 9.95 C
550 07-09-2018 21:45:00 12.4 C 85 % 9.95 C
Sensor: Nr:Datum:Temp:Feuchte:Taupunkt:
Aussen-T/F 551 07-09-2018 21:50:00 12.3 C 86 % 10.03 C
552 07-09-2018 21:55:00 12.3 C 86 % 10.03 C
553 07-09-2018 22:00:00 12.2 C 86 % 9.93 C
554 07-09-2018 22:05:00 12.2 C 86 % 9.93 C
555 07-09-2018 22:10:00 12.1 C 86 % 9.83 C
556 07-09-2018 22:15:00 12 C 86 % 9.73 C
557 07-09-2018 22:20:00 11.9 C 87 % 9.81 C
558 07-09-2018 22:25:00 11.8 C 87 % 9.71 C
559 07-09-2018 22:30:00 11.8 C 87 % 9.71 C
560 07-09-2018 22:35:00 11.7 C 87 % 9.61 C
561 07-09-2018 22:40:00 11.7 C 87 % 9.61 C
562 07-09-2018 22:45:00 11.6 C 88 % 9.68 C
563 07-09-2018 22:50:00 11.5 C 87 % 9.41 C
564 07-09-2018 22:55:00 11.4 C 87 % 9.32 C
565 07-09-2018 23:00:00 11.3 C 88 % 9.39 C
566 07-09-2018 23:05:00 11.3 C 88 % 9.39 C
567 07-09-2018 23:10:00 11.2 C 88 % 9.29 C
568 07-09-2018 23:15:00 11.2 C 88 % 9.29 C
569 07-09-2018 23:20:00 11.1 C 88 % 9.19 C
570 07-09-2018 23:25:00 11 C 88 % 9.09 C
571 07-09-2018 23:30:00 10.9 C 88 % 8.99 C
572 07-09-2018 23:35:00 10.8 C 88 % 8.89 C
573 07-09-2018 23:40:00 10.7 C 88 % 8.8 C
574 07-09-2018 23:45:00 10.6 C 88 % 8.7 C
575 07-09-2018 23:50:00 10.4 C 88 % 8.5 C
Sensor: Nr:Datum:Temp:Feuchte:Taupunkt:
Aussen-T/F 576 07-09-2018 23:55:00 10.3 C 89 % 8.57 C
577 08-09-2018 00:00:00 10.2 C 89 % 8.47 C
578 08-09-2018 00:05:00 10.1 C 89 % 8.37 C
579 08-09-2018 00:10:00 10.1 C 89 % 8.37 C
580 08-09-2018 00:15:00 9.9 C 89 % 8.17 C
581 08-09-2018 00:20:00 9.9 C 89 % 8.17 C
582 08-09-2018 00:25:00 9.8 C 90 % 8.24 C
583 08-09-2018 00:30:00 9.8 C 90 % 8.24 C
584 08-09-2018 00:35:00 9.7 C 90 % 8.14 C
585 08-09-2018 00:40:00 9.7 C 90 % 8.14 C
586 08-09-2018 00:45:00 9.7 C 90 % 8.14 C
587 08-09-2018 00:50:00 9.6 C 90 % 8.04 C
588 08-09-2018 00:55:00 9.6 C 90 % 8.04 C
589 08-09-2018 01:00:00 9.6 C 90 % 8.04 C
590 08-09-2018 01:05:00 9.5 C 91 % 8.11 C
591 08-09-2018 01:10:00 9.5 C 91 % 8.11 C
592 08-09-2018 01:15:00 9.5 C 91 % 8.11 C
593 08-09-2018 01:20:00 9.4 C 91 % 8.01 C
594 08-09-2018 01:25:00 9.4 C 91 % 8.01 C
595 08-09-2018 01:30:00 9.4 C 91 % 8.01 C
596 08-09-2018 01:35:00 9.4 C 91 % 8.01 C
597 08-09-2018 01:40:00 9.4 C 91 % 8.01 C
598 08-09-2018 01:45:00 9.4 C 91 % 8.01 C
599 08-09-2018 01:50:00 9.3 C 91 % 7.91 C
600 08-09-2018 01:55:00 9.4 C 92 % 8.17 C
Sensor: Nr:Datum:Temp:Feuchte:Taupunkt:
Aussen-T/F 601 08-09-2018 02:00:00 9.3 C 92 % 8.07 C
602 08-09-2018 02:05:00 9.3 C 92 % 8.07 C
603 08-09-2018 02:10:00 9.3 C 92 % 8.07 C
604 08-09-2018 02:15:00 9.3 C 92 % 8.07 C
605 08-09-2018 02:20:00 9.3 C 92 % 8.07 C
606 08-09-2018 02:25:00 9.3 C 92 % 8.07 C
607 08-09-2018 02:30:00 9.3 C 92 % 8.07 C
608 08-09-2018 02:35:00 9.3 C 92 % 8.07 C
609 08-09-2018 02:40:00 9.2 C 92 % 7.97 C
610 08-09-2018 02:45:00 9.2 C 92 % 7.97 C
611 08-09-2018 02:50:00 9.2 C 92 % 7.97 C
612 08-09-2018 02:55:00 9.1 C 92 % 7.87 C
613 08-09-2018 03:00:00 9.1 C 92 % 7.87 C
614 08-09-2018 03:05:00 9 C 92 % 7.77 C
615 08-09-2018 03:10:00 8.9 C 92 % 7.67 C
616 08-09-2018 03:15:00 8.9 C 93 % 7.83 C
617 08-09-2018 03:20:00 8.8 C 93 % 7.73 C
618 08-09-2018 03:25:00 8.8 C 93 % 7.73 C
619 08-09-2018 03:30:00 8.8 C 93 % 7.73 C
620 08-09-2018 03:35:00 8.8 C 93 % 7.73 C
621 08-09-2018 03:40:00 8.7 C 93 % 7.63 C
622 08-09-2018 03:45:00 8.7 C 93 % 7.63 C
623 08-09-2018 03:50:00 8.5 C 92 % 7.28 C
624 08-09-2018 03:55:00 8.4 C 93 % 7.34 C
625 08-09-2018 04:00:00 8.3 C 93 % 7.24 C
Sensor: Nr:Datum:Temp:Feuchte:Taupunkt:
Aussen-T/F 626 08-09-2018 04:05:00 8.3 C 93 % 7.24 C
627 08-09-2018 04:10:00 8.2 C 93 % 7.14 C
628 08-09-2018 04:15:00 8.1 C 93 % 7.04 C
629 08-09-2018 04:20:00 8.1 C 93 % 7.04 C
630 08-09-2018 04:25:00 8 C 93 % 6.94 C
631 08-09-2018 04:30:00 7.9 C 93 % 6.84 C
632 08-09-2018 04:35:00 7.9 C 93 % 6.84 C
633 08-09-2018 04:40:00 7.8 C 93 % 6.74 C
634 08-09-2018 04:45:00 7.8 C 93 % 6.74 C
635 08-09-2018 04:50:00 7.8 C 93 % 6.74 C
636 08-09-2018 04:55:00 7.8 C 94 % 6.9 C
637 08-09-2018 05:00:00 7.9 C 94 % 7 C
638 08-09-2018 05:05:00 8 C 94 % 7.09 C
639 08-09-2018 05:10:00 7.8 C 93 % 6.74 C
640 08-09-2018 05:15:00 7.7 C 93 % 6.64 C
641 08-09-2018 05:20:00 7.7 C 94 % 6.8 C
642 08-09-2018 05:25:00 7.7 C 94 % 6.8 C
643 08-09-2018 05:30:00 7.6 C 93 % 6.54 C
644 08-09-2018 05:35:00 7.4 C 93 % 6.34 C
645 08-09-2018 05:40:00 7.4 C 94 % 6.5 C
646 08-09-2018 05:45:00 7.5 C 94 % 6.6 C
647 08-09-2018 05:50:00 7.5 C 94 % 6.6 C
648 08-09-2018 05:55:00 7.4 C 94 % 6.5 C
649 08-09-2018 06:00:00 7.5 C 94 % 6.6 C
650 08-09-2018 06:05:00 7.6 C 95 % 6.85 C
Sensor: Nr:Datum:Temp:Feuchte:Taupunkt:
Aussen-T/F 651 08-09-2018 06:10:00 7.7 C 95 % 6.95 C
652 08-09-2018 06:15:00 7.8 C 95 % 7.05 C
653 08-09-2018 06:20:00 7.8 C 94 % 6.9 C
654 08-09-2018 06:25:00 7.6 C 94 % 6.7 C
655 08-09-2018 06:30:00 7.4 C 94 % 6.5 C
656 08-09-2018 06:35:00 7.3 C 94 % 6.4 C
657 08-09-2018 06:40:00 7.2 C 94 % 6.3 C
658 08-09-2018 06:45:00 7.1 C 94 % 6.2 C
659 08-09-2018 06:50:00 7 C 94 % 6.1 C
660 08-09-2018 06:55:00 6.9 C 94 % 6 C
661 08-09-2018 07:00:00 6.9 C 94 % 6 C
662 08-09-2018 07:05:00 6.8 C 94 % 5.9 C
663 08-09-2018 07:10:00 6.8 C 94 % 5.9 C
664 08-09-2018 07:15:00 6.8 C 94 % 5.9 C
665 08-09-2018 07:20:00 6.8 C 94 % 5.9 C
666 08-09-2018 07:25:00 6.8 C 94 % 5.9 C
667 08-09-2018 07:30:00 6.8 C 94 % 5.9 C
668 08-09-2018 07:35:00 6.8 C 94 % 5.9 C
669 08-09-2018 07:40:00 6.8 C 94 % 5.9 C
670 08-09-2018 07:45:00 6.8 C 94 % 5.9 C
671 08-09-2018 07:50:00 6.8 C 95 % 6.06 C
672 08-09-2018 07:55:00 6.8 C 95 % 6.06 C
673 08-09-2018 08:00:00 6.9 C 95 % 6.16 C
674 08-09-2018 08:05:00 6.9 C 95 % 6.16 C
675 08-09-2018 08:10:00 6.9 C 95 % 6.16 C
Sensor: Nr:Datum:Temp:Feuchte:Taupunkt:
Aussen-T/F 676 08-09-2018 08:15:00 7 C 95 % 6.26 C
677 08-09-2018 08:20:00 7 C 95 % 6.26 C
678 08-09-2018 08:25:00 7.1 C 95 % 6.35 C
679 08-09-2018 08:30:00 7.2 C 95 % 6.45 C
680 08-09-2018 08:35:00 7.2 C 95 % 6.45 C
681 08-09-2018 08:40:00 7.3 C 95 % 6.55 C
682 08-09-2018 08:45:00 7.3 C 95 % 6.55 C
683 08-09-2018 08:50:00 7.3 C 95 % 6.55 C
684 08-09-2018 08:55:00 7.4 C 95 % 6.65 C
685 08-09-2018 09:00:00 7.5 C 95 % 6.75 C
686 08-09-2018 09:05:00 7.5 C 95 % 6.75 C
687 08-09-2018 09:10:00 7.6 C 95 % 6.85 C
688 08-09-2018 09:15:00 7.6 C 95 % 6.85 C
689 08-09-2018 09:20:00 7.6 C 95 % 6.85 C
690 08-09-2018 09:25:00 7.7 C 95 % 6.95 C
691 08-09-2018 09:30:00 7.8 C 95 % 7.05 C
692 08-09-2018 09:35:00 7.9 C 95 % 7.15 C
693 08-09-2018 09:40:00 8.1 C 96 % 7.5 C
694 08-09-2018 09:45:00 8.2 C 96 % 7.6 C
695 08-09-2018 09:50:00 8.4 C 96 % 7.8 C
696 08-09-2018 09:55:00 8.7 C 96 % 8.1 C
697 08-09-2018 10:00:00 8.9 C 96 % 8.3 C
698 08-09-2018 10:05:00 9.2 C 96 % 8.6 C
699 08-09-2018 10:10:00 9.4 C 96 % 8.8 C
700 08-09-2018 10:15:00 9.7 C 96 % 9.09 C
Sensor: Nr:Datum:Temp:Feuchte:Taupunkt:
Aussen-T/F 701 08-09-2018 10:20:00 9.9 C 96 % 9.29 C
702 08-09-2018 10:25:00 10.1 C 96 % 9.49 C
703 08-09-2018 10:30:00 10.3 C 96 % 9.69 C
704 08-09-2018 10:35:00 10.4 C 96 % 9.79 C
705 08-09-2018 10:40:00 10.7 C 95 % 9.93 C
706 08-09-2018 10:45:00 10.9 C 94 % 9.97 C
707 08-09-2018 10:50:00 11.2 C 94 % 10.27 C
708 08-09-2018 10:55:00 11.6 C 92 % 10.35 C
709 08-09-2018 11:00:00 12 C 90 % 10.41 C
710 08-09-2018 11:05:00 12.4 C 88 % 10.47 C
711 08-09-2018 11:10:00 12.7 C 87 % 10.59 C
712 08-09-2018 11:15:00 13.1 C 85 % 10.64 C
713 08-09-2018 11:20:00 13.4 C 80 % 10.02 C
714 08-09-2018 11:25:00 14 C 78 % 10.23 C
715 08-09-2018 11:30:00 14.3 C 76 % 10.13 C
716 08-09-2018 11:35:00 14.7 C 74 % 10.12 C
717 08-09-2018 11:40:00 15 C 71 % 9.79 C
718 08-09-2018 11:45:00 15.2 C 71 % 9.98 C
719 08-09-2018 11:50:00 15.3 C 70 % 9.87 C
720 08-09-2018 11:55:00 15.5 C 68 % 9.63 C
721 08-09-2018 12:00:00 15.7 C 67 % 9.6 C
722 08-09-2018 12:05:00 15.8 C 66 % 9.47 C
723 08-09-2018 12:10:00 15.9 C 66 % 9.56 C
724 08-09-2018 12:15:00 16.1 C 65 % 9.53 C
725 08-09-2018 12:20:00 16.2 C 65 % 9.62 C
Sensor: Nr:Datum:Temp:Feuchte:Taupunkt:
Aussen-T/F 726 08-09-2018 12:25:00 16.3 C 63 % 9.25 C
727 08-09-2018 12:30:00 16.3 C 62 % 9.01 C
728 08-09-2018 12:35:00 16.4 C 62 % 9.11 C
729 08-09-2018 12:40:00 16.4 C 64 % 9.58 C
730 08-09-2018 12:45:00 16.6 C 62 % 9.3 C
731 08-09-2018 12:50:00 16.6 C 62 % 9.3 C
732 08-09-2018 12:55:00 16.7 C 62 % 9.39 C
733 08-09-2018 13:00:00 16.7 C 63 % 9.63 C
734 08-09-2018 13:05:00 16.9 C 62 % 9.58 C
735 08-09-2018 13:10:00 17.1 C 60 % 9.28 C
736 08-09-2018 13:15:00 17.2 C 60 % 9.37 C
737 08-09-2018 13:20:00 17.2 C 60 % 9.37 C
738 08-09-2018 13:25:00 17.2 C 61 % 9.62 C
739 08-09-2018 13:30:00 17.3 C 61 % 9.71 C
740 08-09-2018 13:35:00 17.4 C 60 % 9.56 C
741 08-09-2018 13:40:00 17.5 C 61 % 9.9 C
742 08-09-2018 13:45:00 17.7 C 61 % 10.09 C
743 08-09-2018 13:50:00 17.8 C 58 % 9.43 C
744 08-09-2018 13:55:00 17.9 C 59 % 9.78 C
745 08-09-2018 14:00:00 18.1 C 59 % 9.97 C
746 08-09-2018 14:05:00 18.2 C 58 % 9.81 C
747 08-09-2018 14:10:00 18.3 C 57 % 9.64 C
748 08-09-2018 14:15:00 18.4 C 57 % 9.74 C
749 08-09-2018 14:20:00 18.6 C 56 % 9.66 C
750 08-09-2018 14:25:00 18.6 C 56 % 9.66 C
Sensor: Nr:Datum:Temp:Feuchte:Taupunkt:
Aussen-T/F 751 08-09-2018 14:30:00 18.6 C 55 % 9.39 C
752 08-09-2018 14:35:00 18.7 C 56 % 9.75 C
753 08-09-2018 14:40:00 18.8 C 56 % 9.84 C
754 08-09-2018 14:45:00 18.9 C 56 % 9.94 C
755 08-09-2018 14:50:00 19.2 C 57 % 10.48 C
756 08-09-2018 14:55:00 19.2 C 53 % 9.4 C
757 08-09-2018 15:00:00 19.2 C 53 % 9.4 C
758 08-09-2018 15:05:00 19.2 C 53 % 9.4 C
759 08-09-2018 15:10:00 19.3 C 53 % 9.49 C
760 08-09-2018 15:15:00 19.4 C 53 % 9.58 C
761 08-09-2018 15:20:00 19.6 C 52 % 9.48 C
762 08-09-2018 15:25:00 19.7 C 52 % 9.58 C
763 08-09-2018 15:30:00 19.8 C 52 % 9.67 C
764 08-09-2018 15:35:00 19.9 C 51 % 9.47 C
765 08-09-2018 15:40:00 20.1 C 51 % 9.66 C
766 08-09-2018 15:45:00 20.2 C 51 % 9.75 C
767 08-09-2018 15:50:00 20.3 C 50 % 9.54 C
768 08-09-2018 15:55:00 20.3 C 50 % 9.54 C
769 08-09-2018 16:00:00 20.4 C 51 % 9.93 C
770 08-09-2018 16:05:00 20.5 C 49 % 9.43 C
771 08-09-2018 16:10:00 20.6 C 50 % 9.82 C
772 08-09-2018 16:15:00 20.6 C 50 % 9.82 C
773 08-09-2018 16:20:00 20.8 C 49 % 9.7 C
774 08-09-2018 16:25:00 20.9 C 49 % 9.79 C
775 08-09-2018 16:30:00 21 C 49 % 9.89 C
Sensor: Nr:Datum:Temp:Feuchte:Taupunkt:
Aussen-T/F 776 08-09-2018 16:35:00 21.2 C 49 % 10.07 C
777 08-09-2018 16:40:00 21.4 C 47 % 9.63 C
778 08-09-2018 16:45:00 21.7 C 48 % 10.22 C
779 08-09-2018 16:50:00 21.9 C 47 % 10.09 C
780 08-09-2018 16:55:00 22.1 C 46 % 9.95 C
781 08-09-2018 17:00:00 22.4 C 46 % 10.22 C
782 08-09-2018 17:05:00 22.7 C 44 % 9.83 C
783 08-09-2018 17:10:00 22.8 C 43 % 9.58 C
784 08-09-2018 17:15:00 23.1 C 45 % 10.53 C
785 08-09-2018 17:20:00 23.3 C 44 % 10.37 C
786 08-09-2018 17:25:00 23.4 C 43 % 10.12 C
787 08-09-2018 17:30:00 23.1 C 42 % 9.5 C
788 08-09-2018 17:35:00 22.5 C 44 % 9.65 C
789 08-09-2018 17:40:00 22.2 C 46 % 10.04 C
790 08-09-2018 17:45:00 21.9 C 47 % 10.09 C
791 08-09-2018 17:50:00 21.7 C 47 % 9.9 C
792 08-09-2018 17:55:00 21.5 C 47 % 9.72 C
793 08-09-2018 18:00:00 21.4 C 50 % 10.55 C
794 08-09-2018 18:05:00 21.3 C 51 % 10.76 C
795 08-09-2018 18:10:00 21.2 C 51 % 10.67 C
796 08-09-2018 18:15:00 21.1 C 51 % 10.58 C
797 08-09-2018 18:20:00 21.1 C 51 % 10.58 C
798 08-09-2018 18:25:00 21.1 C 53 % 11.15 C
799 08-09-2018 18:30:00 21.1 C 53 % 11.15 C
800 08-09-2018 18:35:00 21.1 C 54 % 11.44 C
Sensor: Nr:Datum:Temp:Feuchte:Taupunkt:
Aussen-T/F 801 08-09-2018 18:40:00 21.2 C 54 % 11.53 C
802 08-09-2018 18:45:00 21.2 C 51 % 10.67 C
803 08-09-2018 18:50:00 21.1 C 53 % 11.15 C
804 08-09-2018 18:55:00 20.9 C 55 % 11.53 C
805 08-09-2018 19:00:00 20.7 C 56 % 11.61 C
806 08-09-2018 19:05:00 20.4 C 56 % 11.33 C
807 08-09-2018 19:10:00 20.1 C 58 % 11.58 C
808 08-09-2018 19:15:00 19.7 C 59 % 11.47 C
809 08-09-2018 19:20:00 19.4 C 60 % 11.44 C
810 08-09-2018 19:25:00 19.2 C 61 % 11.5 C
811 08-09-2018 19:30:00 18.9 C 61 % 11.22 C
812 08-09-2018 19:35:00 18.6 C 62 % 11.18 C
813 08-09-2018 19:40:00 18.3 C 64 % 11.38 C
814 08-09-2018 19:45:00 18.1 C 64 % 11.19 C
815 08-09-2018 19:50:00 17.7 C 65 % 11.04 C
816 08-09-2018 19:55:00 17.6 C 66 % 11.18 C
817 08-09-2018 20:00:00 17.3 C 67 % 11.12 C
818 08-09-2018 20:05:00 17.2 C 67 % 11.02 C
819 08-09-2018 20:10:00 17 C 68 % 11.06 C
820 08-09-2018 20:15:00 16.9 C 69 % 11.18 C
821 08-09-2018 20:20:00 16.8 C 69 % 11.09 C
822 08-09-2018 20:25:00 16.7 C 69 % 10.99 C
823 08-09-2018 20:30:00 16.6 C 70 % 11.11 C
824 08-09-2018 20:35:00 16.6 C 70 % 11.11 C
825 08-09-2018 20:40:00 16.5 C 71 % 11.23 C
Sensor: Nr:Datum:Temp:Feuchte:Taupunkt:
Aussen-T/F 826 08-09-2018 20:45:00 16.4 C 71 % 11.13 C
827 08-09-2018 20:50:00 16.4 C 70 % 10.92 C
828 08-09-2018 20:55:00 16.3 C 70 % 10.82 C
829 08-09-2018 21:00:00 16.3 C 71 % 11.04 C
830 08-09-2018 21:05:00 16.2 C 71 % 10.94 C
831 08-09-2018 21:10:00 16.2 C 72 % 11.15 C
832 08-09-2018 21:15:00 16.1 C 72 % 11.06 C
833 08-09-2018 21:20:00 16 C 72 % 10.96 C
834 08-09-2018 21:25:00 15.9 C 72 % 10.86 C
835 08-09-2018 21:30:00 15.9 C 72 % 10.86 C
836 08-09-2018 21:35:00 15.8 C 73 % 10.97 C
837 08-09-2018 21:40:00 15.8 C 73 % 10.97 C
838 08-09-2018 21:45:00 15.7 C 73 % 10.88 C
839 08-09-2018 21:50:00 15.7 C 73 % 10.88 C
840 08-09-2018 21:55:00 15.6 C 74 % 10.99 C
841 08-09-2018 22:00:00 15.6 C 74 % 10.99 C
842 08-09-2018 22:05:00 15.5 C 75 % 11.09 C
843 08-09-2018 22:10:00 15.5 C 74 % 10.89 C
844 08-09-2018 22:15:00 15.4 C 74 % 10.79 C
845 08-09-2018 22:20:00 15.4 C 74 % 10.79 C
846 08-09-2018 22:25:00 15.4 C 74 % 10.79 C
847 08-09-2018 22:30:00 15.4 C 75 % 11 C
848 08-09-2018 22:35:00 15.3 C 75 % 10.9 C
849 08-09-2018 22:40:00 15.3 C 75 % 10.9 C
850 08-09-2018 22:45:00 15.2 C 75 % 10.8 C
Sensor: Nr:Datum:Temp:Feuchte:Taupunkt:
Aussen-T/F 851 08-09-2018 22:50:00 15.2 C 76 % 11 C
852 08-09-2018 22:55:00 15.2 C 75 % 10.8 C
853 08-09-2018 23:00:00 15.1 C 76 % 10.9 C
854 08-09-2018 23:05:00 15 C 76 % 10.81 C
855 08-09-2018 23:10:00 14.8 C 77 % 10.81 C
856 08-09-2018 23:15:00 14.7 C 76 % 10.52 C
857 08-09-2018 23:20:00 14.7 C 77 % 10.71 C
858 08-09-2018 23:25:00 14.6 C 77 % 10.62 C
859 08-09-2018 23:30:00 14.6 C 77 % 10.62 C
860 08-09-2018 23:35:00 14.6 C 77 % 10.62 C
861 08-09-2018 23:40:00 14.7 C 77 % 10.71 C
862 08-09-2018 23:45:00 14.7 C 77 % 10.71 C
863 08-09-2018 23:50:00 14.8 C 77 % 10.81 C
864 08-09-2018 23:55:00 14.9 C 77 % 10.91 C
865 09-09-2018 00:00:00 14.9 C 77 % 10.91 C
866 09-09-2018 00:05:00 14.8 C 78 % 11 C
867 09-09-2018 00:10:00 14.8 C 78 % 11 C
868 09-09-2018 00:15:00 14.7 C 78 % 10.91 C
869 09-09-2018 00:20:00 14.6 C 78 % 10.81 C
870 09-09-2018 00:25:00 14.4 C 78 % 10.62 C
871 09-09-2018 00:30:00 14.3 C 79 % 10.71 C
872 09-09-2018 00:35:00 14.2 C 79 % 10.61 C
873 09-09-2018 00:40:00 14.1 C 79 % 10.52 C
874 09-09-2018 00:45:00 14 C 80 % 10.61 C
875 09-09-2018 00:50:00 13.8 C 80 % 10.41 C
Sensor: Nr:Datum:Temp:Feuchte:Taupunkt:
Aussen-T/F 876 09-09-2018 00:55:00 13.7 C 80 % 10.32 C
877 09-09-2018 01:00:00 13.6 C 80 % 10.22 C
878 09-09-2018 01:05:00 13.4 C 80 % 10.02 C
879 09-09-2018 01:10:00 13.4 C 81 % 10.21 C
880 09-09-2018 01:15:00 13.5 C 82 % 10.49 C
881 09-09-2018 01:20:00 13.6 C 82 % 10.59 C
882 09-09-2018 01:25:00 13.7 C 81 % 10.5 C
883 09-09-2018 01:30:00 13.7 C 81 % 10.5 C
884 09-09-2018 01:35:00 13.7 C 81 % 10.5 C
885 09-09-2018 01:40:00 13.6 C 81 % 10.4 C
886 09-09-2018 01:45:00 13.4 C 81 % 10.21 C
887 09-09-2018 01:50:00 13.3 C 81 % 10.11 C
888 09-09-2018 01:55:00 13.2 C 82 % 10.2 C
889 09-09-2018 02:00:00 13.1 C 82 % 10.1 C
890 09-09-2018 02:05:00 12.9 C 82 % 9.9 C
891 09-09-2018 02:10:00 12.9 C 83 % 10.09 C
892 09-09-2018 02:15:00 12.8 C 83 % 9.99 C
893 09-09-2018 02:20:00 12.7 C 83 % 9.89 C
894 09-09-2018 02:25:00 12.6 C 83 % 9.79 C
895 09-09-2018 02:30:00 12.4 C 83 % 9.6 C
896 09-09-2018 02:35:00 12.3 C 83 % 9.5 C
897 09-09-2018 02:40:00 12.2 C 84 % 9.58 C
898 09-09-2018 02:45:00 12.1 C 85 % 9.66 C
899 09-09-2018 02:50:00 12.1 C 85 % 9.66 C
900 09-09-2018 02:55:00 12.1 C 86 % 9.83 C
Sensor: Nr:Datum:Temp:Feuchte:Taupunkt:
Aussen-T/F 901 09-09-2018 03:00:00 12.2 C 86 % 9.93 C
902 09-09-2018 03:05:00 12.1 C 86 % 9.83 C
903 09-09-2018 03:10:00 12.1 C 86 % 9.83 C
904 09-09-2018 03:15:00 12 C 86 % 9.73 C
905 09-09-2018 03:20:00 11.9 C 86 % 9.64 C
906 09-09-2018 03:25:00 11.9 C 86 % 9.64 C
907 09-09-2018 03:30:00 11.8 C 86 % 9.54 C
908 09-09-2018 03:35:00 11.7 C 87 % 9.61 C
909 09-09-2018 03:40:00 11.7 C 87 % 9.61 C
910 09-09-2018 03:45:00 11.6 C 87 % 9.51 C
911 09-09-2018 03:50:00 11.5 C 87 % 9.41 C
912 09-09-2018 03:55:00 11.4 C 87 % 9.32 C
913 09-09-2018 04:00:00 11.4 C 87 % 9.32 C
914 09-09-2018 04:05:00 11.3 C 87 % 9.22 C
915 09-09-2018 04:10:00 11.2 C 88 % 9.29 C
916 09-09-2018 04:15:00 11.1 C 88 % 9.19 C
917 09-09-2018 04:20:00 11.1 C 88 % 9.19 C
918 09-09-2018 04:25:00 11.1 C 89 % 9.36 C
919 09-09-2018 04:30:00 11.1 C 89 % 9.36 C
920 09-09-2018 04:35:00 11.1 C 89 % 9.36 C
921 09-09-2018 04:40:00 11.1 C 89 % 9.36 C
922 09-09-2018 04:45:00 11.1 C 89 % 9.36 C
923 09-09-2018 04:50:00 11.2 C 89 % 9.46 C
924 09-09-2018 04:55:00 11.1 C 89 % 9.36 C
925 09-09-2018 05:00:00 11 C 88 % 9.09 C
Sensor: Nr:Datum:Temp:Feuchte:Taupunkt:
Aussen-T/F 926 09-09-2018 05:05:00 10.9 C 88 % 8.99 C
927 09-09-2018 05:10:00 10.8 C 89 % 9.06 C
928 09-09-2018 05:15:00 10.8 C 90 % 9.23 C
929 09-09-2018 05:20:00 10.9 C 90 % 9.33 C
930 09-09-2018 05:25:00 10.9 C 90 % 9.33 C
931 09-09-2018 05:30:00 10.9 C 90 % 9.33 C
932 09-09-2018 05:35:00 11 C 90 % 9.42 C
933 09-09-2018 05:40:00 11.1 C 91 % 9.69 C
934 09-09-2018 05:45:00 11.2 C 91 % 9.79 C
935 09-09-2018 05:50:00 11.2 C 91 % 9.79 C
936 09-09-2018 05:55:00 11.2 C 91 % 9.79 C
937 09-09-2018 06:00:00 11.3 C 90 % 9.72 C
938 09-09-2018 06:05:00 11.3 C 90 % 9.72 C
939 09-09-2018 06:10:00 11.3 C 90 % 9.72 C
940 09-09-2018 06:15:00 11.3 C 90 % 9.72 C
941 09-09-2018 06:20:00 11.3 C 90 % 9.72 C
942 09-09-2018 06:25:00 11.4 C 90 % 9.82 C
943 09-09-2018 06:30:00 11.3 C 90 % 9.72 C
944 09-09-2018 06:35:00 11.4 C 90 % 9.82 C
945 09-09-2018 06:40:00 11.4 C 90 % 9.82 C
946 09-09-2018 06:45:00 11.4 C 90 % 9.82 C
947 09-09-2018 06:50:00 11.5 C 90 % 9.92 C
948 09-09-2018 06:55:00 11.6 C 90 % 10.02 C
949 09-09-2018 07:00:00 11.6 C 90 % 10.02 C
950 09-09-2018 07:05:00 11.6 C 90 % 10.02 C
Sensor: Nr:Datum:Temp:Feuchte:Taupunkt:
Aussen-T/F 951 09-09-2018 07:10:00 11.6 C 90 % 10.02 C
952 09-09-2018 07:15:00 11.6 C 90 % 10.02 C
953 09-09-2018 07:20:00 11.6 C 90 % 10.02 C
954 09-09-2018 07:25:00 11.5 C 90 % 9.92 C
955 09-09-2018 07:30:00 11.5 C 90 % 9.92 C
956 09-09-2018 07:35:00 11.5 C 90 % 9.92 C
957 09-09-2018 07:40:00 11.5 C 90 % 9.92 C
958 09-09-2018 07:45:00 11.5 C 90 % 9.92 C
959 09-09-2018 07:50:00 11.6 C 90 % 10.02 C
960 09-09-2018 07:55:00 11.7 C 90 % 10.12 C
961 09-09-2018 08:00:00 11.7 C 90 % 10.12 C
962 09-09-2018 08:05:00 11.8 C 90 % 10.21 C
963 09-09-2018 08:10:00 11.9 C 90 % 10.31 C
964 09-09-2018 08:15:00 11.9 C 90 % 10.31 C
965 09-09-2018 08:20:00 12.1 C 90 % 10.51 C
966 09-09-2018 08:25:00 12.2 C 90 % 10.61 C
967 09-09-2018 08:30:00 12.3 C 90 % 10.71 C
968 09-09-2018 08:35:00 12.4 C 89 % 10.64 C
969 09-09-2018 08:40:00 12.6 C 89 % 10.84 C
970 09-09-2018 08:45:00 12.7 C 88 % 10.77 C
971 09-09-2018 08:50:00 12.8 C 88 % 10.86 C
972 09-09-2018 08:55:00 12.9 C 87 % 10.79 C
973 09-09-2018 09:00:00 13.2 C 87 % 11.09 C
974 09-09-2018 09:05:00 13.3 C 87 % 11.18 C
975 09-09-2018 09:10:00 13.4 C 86 % 11.11 C
Sensor: Nr:Datum:Temp:Feuchte:Taupunkt:
Aussen-T/F 976 09-09-2018 09:15:00 13.6 C 84 % 10.95 C
977 09-09-2018 09:20:00 13.8 C 84 % 11.15 C
978 09-09-2018 09:25:00 13.9 C 84 % 11.24 C
979 09-09-2018 09:30:00 14.1 C 84 % 11.44 C
980 09-09-2018 09:35:00 14.2 C 83 % 11.36 C
981 09-09-2018 09:40:00 14.4 C 82 % 11.37 C
982 09-09-2018 09:45:00 14.6 C 82 % 11.56 C
983 09-09-2018 09:50:00 14.6 C 81 % 11.38 C
984 09-09-2018 09:55:00 14.8 C 81 % 11.57 C
985 09-09-2018 10:00:00 14.9 C 80 % 11.48 C
986 09-09-2018 10:05:00 15 C 80 % 11.58 C
987 09-09-2018 10:10:00 15.1 C 80 % 11.68 C
988 09-09-2018 10:15:00 15.2 C 80 % 11.78 C
989 09-09-2018 10:20:00 15.3 C 79 % 11.68 C
990 09-09-2018 10:25:00 15.4 C 80 % 11.97 C
991 09-09-2018 10:30:00 15.6 C 80 % 12.16 C
992 09-09-2018 10:35:00 15.8 C 80 % 12.36 C
993 09-09-2018 10:40:00 16.2 C 78 % 12.36 C
994 09-09-2018 10:45:00 16.6 C 77 % 12.55 C
995 09-09-2018 10:50:00 16.9 C 77 % 12.84 C
996 09-09-2018 10:55:00 17.2 C 73 % 12.32 C
997 09-09-2018 11:00:00 17.5 C 71 % 12.19 C
998 09-09-2018 11:05:00 17.8 C 71 % 12.47 C
999 09-09-2018 11:10:00 18 C 70 % 12.45 C
1000 09-09-2018 11:15:00 18.2 C 70 % 12.64 C
Sensor: Nr:Datum:Temp:Feuchte:Taupunkt:
Aussen-T/F 1001 09-09-2018 11:20:00 18.3 C 69 % 12.52 C
1002 09-09-2018 11:25:00 18.6 C 69 % 12.8 C
1003 09-09-2018 11:30:00 18.7 C 66 % 12.22 C
1004 09-09-2018 11:35:00 18.8 C 67 % 12.55 C
1005 09-09-2018 11:40:00 19 C 66 % 12.51 C
1006 09-09-2018 11:45:00 19.2 C 65 % 12.47 C
1007 09-09-2018 11:50:00 19.3 C 65 % 12.56 C
1008 09-09-2018 11:55:00 19.4 C 64 % 12.42 C
1009 09-09-2018 12:00:00 19.5 C 63 % 12.27 C
1010 09-09-2018 12:05:00 19.6 C 63 % 12.37 C
1011 09-09-2018 12:10:00 19.7 C 63 % 12.46 C
1012 09-09-2018 12:15:00 19.7 C 61 % 11.97 C
1013 09-09-2018 12:20:00 19.7 C 61 % 11.97 C
1014 09-09-2018 12:25:00 19.7 C 61 % 11.97 C
1015 09-09-2018 12:30:00 19.8 C 60 % 11.82 C
1016 09-09-2018 12:35:00 19.8 C 59 % 11.56 C
1017 09-09-2018 12:40:00 19.8 C 60 % 11.82 C
1018 09-09-2018 12:45:00 19.9 C 58 % 11.4 C
1019 09-09-2018 12:50:00 19.9 C 58 % 11.4 C
1020 09-09-2018 12:55:00 19.9 C 58 % 11.4 C
1021 09-09-2018 13:00:00 20.1 C 55 % 10.78 C
1022 09-09-2018 13:05:00 20.3 C 56 % 11.24 C
1023 09-09-2018 13:10:00 20.3 C 56 % 11.24 C
1024 09-09-2018 13:15:00 20.3 C 55 % 10.97 C
1025 09-09-2018 13:20:00 20.4 C 54 % 10.79 C
Sensor: Nr:Datum:Temp:Feuchte:Taupunkt:
Aussen-T/F 1026 09-09-2018 13:25:00 20.7 C 56 % 11.61 C
1027 09-09-2018 13:30:00 20.7 C 55 % 11.34 C
1028 09-09-2018 13:35:00 20.8 C 53 % 10.88 C
1029 09-09-2018 13:40:00 20.9 C 54 % 11.25 C
1030 09-09-2018 13:45:00 21.1 C 53 % 11.15 C
1031 09-09-2018 13:50:00 21.2 C 52 % 10.96 C
1032 09-09-2018 13:55:00 21.3 C 52 % 11.05 C
1033 09-09-2018 14:00:00 21.4 C 52 % 11.14 C
1034 09-09-2018 14:05:00 21.6 C 53 % 11.62 C
1035 09-09-2018 14:10:00 21.7 C 51 % 11.13 C
1036 09-09-2018 14:15:00 21.8 C 48 % 10.31 C
1037 09-09-2018 14:20:00 21.9 C 49 % 10.71 C
1038 09-09-2018 14:25:00 22.1 C 49 % 10.89 C
1039 09-09-2018 14:30:00 22.3 C 47 % 10.45 C
1040 09-09-2018 14:35:00 22.6 C 47 % 10.72 C
1041 09-09-2018 14:40:00 22.7 C 46 % 10.49 C
1042 09-09-2018 14:45:00 22.8 C 46 % 10.58 C
1043 09-09-2018 14:50:00 23.1 C 46 % 10.86 C
1044 09-09-2018 14:55:00 23.2 C 45 % 10.62 C
1045 09-09-2018 15:00:00 23.3 C 46 % 11.04 C
1046 09-09-2018 15:05:00 23.5 C 46 % 11.22 C
1047 09-09-2018 15:10:00 23.7 C 46 % 11.4 C
1048 09-09-2018 15:15:00 23.8 C 46 % 11.49 C
1049 09-09-2018 15:20:00 23.9 C 46 % 11.58 C
1050 09-09-2018 15:25:00 23.8 C 45 % 11.16 C
Sensor: Nr:Datum:Temp:Feuchte:Taupunkt:
Aussen-T/F 1051 09-09-2018 15:30:00 23.8 C 45 % 11.16 C
1052 09-09-2018 15:35:00 23.8 C 45 % 11.16 C
1053 09-09-2018 15:40:00 23.8 C 46 % 11.49 C
1054 09-09-2018 15:45:00 24.1 C 46 % 11.76 C
1055 09-09-2018 15:50:00 24.2 C 46 % 11.85 C
1056 09-09-2018 15:55:00 24.3 C 45 % 11.61 C
1057 09-09-2018 16:00:00 24.6 C 45 % 11.88 C
1058 09-09-2018 16:05:00 24.6 C 44 % 11.54 C
1059 09-09-2018 16:10:00 24.5 C 45 % 11.79 C
1060 09-09-2018 16:15:00 24.4 C 47 % 12.36 C
1061 09-09-2018 16:20:00 24.4 C 47 % 12.36 C
1062 09-09-2018 16:25:00 24.4 C 47 % 12.36 C
1063 09-09-2018 16:30:00 24.5 C 45 % 11.79 C
1064 09-09-2018 16:35:00 24.6 C 47 % 12.54 C
1065 09-09-2018 16:40:00 24.6 C 47 % 12.54 C
1066 09-09-2018 16:45:00 24.7 C 47 % 12.64 C
1067 09-09-2018 16:50:00 24.7 C 48 % 12.96 C
1068 09-09-2018 16:55:00 24.8 C 47 % 12.73 C
1069 09-09-2018 17:00:00 24.9 C 46 % 12.49 C
1070 09-09-2018 17:05:00 24.9 C 45 % 12.16 C
1071 09-09-2018 17:10:00 24.9 C 48 % 13.14 C
1072 09-09-2018 17:15:00 25 C 47 % 12.91 C
1073 09-09-2018 17:20:00 25.2 C 46 % 12.76 C
1074 09-09-2018 17:25:00 25.4 C 44 % 12.27 C
1075 09-09-2018 17:30:00 25.6 C 45 % 12.79 C
Sensor: Nr:Datum:Temp:Feuchte:Taupunkt:
Aussen-T/F 1076 09-09-2018 17:35:00 26.1 C 43 % 12.55 C
1077 09-09-2018 17:40:00 26.5 C 41 % 12.18 C
1078 09-09-2018 17:45:00 26.6 C 41 % 12.27 C
1079 09-09-2018 17:50:00 26.6 C 42 % 12.64 C
1080 09-09-2018 17:55:00 26.6 C 41 % 12.27 C
1081 09-09-2018 18:00:00 26.3 C 42 % 12.37 C
1082 09-09-2018 18:05:00 26.1 C 46 % 13.58 C
1083 09-09-2018 18:10:00 25.8 C 46 % 13.31 C
1084 09-09-2018 18:15:00 25.4 C 49 % 13.91 C
1085 09-09-2018 18:20:00 25 C 50 % 13.86 C
1086 09-09-2018 18:25:00 24.7 C 50 % 13.58 C
1087 09-09-2018 18:30:00 24.4 C 51 % 13.61 C
1088 09-09-2018 18:35:00 24.2 C 52 % 13.73 C
1089 09-09-2018 18:40:00 23.9 C 52 % 13.45 C
1090 09-09-2018 18:45:00 23.8 C 53 % 13.65 C
1091 09-09-2018 18:50:00 23.7 C 53 % 13.56 C
1092 09-09-2018 18:55:00 23.7 C 53 % 13.56 C
1093 09-09-2018 19:00:00 23.4 C 53 % 13.28 C
1094 09-09-2018 19:05:00 23.2 C 53 % 13.09 C
1095 09-09-2018 19:10:00 22.9 C 53 % 12.82 C
1096 09-09-2018 19:15:00 22.7 C 54 % 12.92 C
1097 09-09-2018 19:20:00 22.4 C 54 % 12.64 C
1098 09-09-2018 19:25:00 22.1 C 55 % 12.64 C
1099 09-09-2018 19:30:00 21.8 C 56 % 12.64 C
1100 09-09-2018 19:35:00 21.5 C 57 % 12.63 C
Sensor: Nr:Datum:Temp:Feuchte:Taupunkt:
Aussen-T/F 1101 09-09-2018 19:40:00 21.2 C 57 % 12.35 C
1102 09-09-2018 19:45:00 21 C 59 % 12.69 C
1103 09-09-2018 19:50:00 20.7 C 59 % 12.41 C
1104 09-09-2018 19:55:00 20.4 C 59 % 12.12 C
1105 09-09-2018 20:00:00 20.2 C 60 % 12.19 C
1106 09-09-2018 20:05:00 20.1 C 61 % 12.35 C
1107 09-09-2018 20:10:00 19.8 C 61 % 12.07 C
1108 09-09-2018 20:15:00 19.7 C 61 % 11.97 C
1109 09-09-2018 20:20:00 19.6 C 61 % 11.88 C
1110 09-09-2018 20:25:00 19.4 C 62 % 11.94 C
1111 09-09-2018 20:30:00 19.3 C 62 % 11.84 C
1112 09-09-2018 20:35:00 19.1 C 64 % 12.14 C
1113 09-09-2018 20:40:00 18.8 C 63 % 11.61 C
1114 09-09-2018 20:45:00 18.6 C 65 % 11.9 C
1115 09-09-2018 20:50:00 18.2 C 65 % 11.52 C
1116 09-09-2018 20:55:00 17.9 C 66 % 11.46 C
1117 09-09-2018 21:00:00 17.7 C 67 % 11.5 C
1118 09-09-2018 21:05:00 17.5 C 66 % 11.08 C
1119 09-09-2018 21:10:00 17.3 C 67 % 11.12 C
1120 09-09-2018 21:15:00 17.2 C 68 % 11.25 C
1121 09-09-2018 21:20:00 17 C 68 % 11.06 C
1122 09-09-2018 21:25:00 16.8 C 68 % 10.87 C
1123 09-09-2018 21:30:00 16.7 C 69 % 10.99 C
1124 09-09-2018 21:35:00 16.6 C 70 % 11.11 C
1125 09-09-2018 21:40:00 16.3 C 70 % 10.82 C
Sensor: Nr:Datum:Temp:Feuchte:Taupunkt:
Aussen-T/F 1126 09-09-2018 21:45:00 16.2 C 71 % 10.94 C
1127 09-09-2018 21:50:00 16 C 71 % 10.75 C
1128 09-09-2018 21:55:00 15.8 C 72 % 10.77 C
1129 09-09-2018 22:00:00 15.8 C 72 % 10.77 C
1130 09-09-2018 22:05:00 15.7 C 72 % 10.67 C
1131 09-09-2018 22:10:00 15.7 C 72 % 10.67 C
1132 09-09-2018 22:15:00 15.6 C 72 % 10.57 C
1133 09-09-2018 22:20:00 15.4 C 73 % 10.59 C
1134 09-09-2018 22:25:00 15.3 C 73 % 10.49 C
1135 09-09-2018 22:30:00 15.3 C 74 % 10.7 C
1136 09-09-2018 22:35:00 15.2 C 74 % 10.6 C
1137 09-09-2018 22:40:00 15 C 75 % 10.61 C
1138 09-09-2018 22:45:00 14.8 C 75 % 10.42 C
1139 09-09-2018 22:50:00 14.6 C 76 % 10.42 C
1140 09-09-2018 22:55:00 14.5 C 77 % 10.52 C
1141 09-09-2018 23:00:00 14.4 C 77 % 10.42 C
1142 09-09-2018 23:05:00 14.3 C 78 % 10.52 C
1143 09-09-2018 23:10:00 14.1 C 78 % 10.33 C
1144 09-09-2018 23:15:00 14.1 C 78 % 10.33 C
1145 09-09-2018 23:20:00 14 C 79 % 10.42 C
1146 09-09-2018 23:25:00 14.1 C 80 % 10.71 C
1147 09-09-2018 23:30:00 14.1 C 78 % 10.33 C
1148 09-09-2018 23:35:00 13.9 C 79 % 10.32 C
1149 09-09-2018 23:40:00 13.9 C 79 % 10.32 C
1150 09-09-2018 23:45:00 13.8 C 80 % 10.41 C
Sensor: Nr:Datum:Temp:Feuchte:Taupunkt:
Aussen-T/F 1151 09-09-2018 23:50:00 13.8 C 80 % 10.41 C
1152 09-09-2018 23:55:00 13.7 C 80 % 10.32 C
1153 10-09-2018 00:00:00 13.7 C 80 % 10.32 C
1154 10-09-2018 00:05:00 13.6 C 80 % 10.22 C
1155 10-09-2018 00:10:00 13.6 C 80 % 10.22 C
1156 10-09-2018 00:15:00 13.5 C 80 % 10.12 C
1157 10-09-2018 00:20:00 13.4 C 80 % 10.02 C
1158 10-09-2018 00:25:00 13.3 C 81 % 10.11 C
1159 10-09-2018 00:30:00 13.2 C 81 % 10.01 C
1160 10-09-2018 00:35:00 13.2 C 81 % 10.01 C
1161 10-09-2018 00:40:00 13.1 C 81 % 9.92 C
1162 10-09-2018 00:45:00 12.9 C 82 % 9.9 C
1163 10-09-2018 00:50:00 12.9 C 82 % 9.9 C
1164 10-09-2018 00:55:00 12.9 C 82 % 9.9 C
1165 10-09-2018 01:00:00 12.9 C 82 % 9.9 C
1166 10-09-2018 01:05:00 12.9 C 82 % 9.9 C
1167 10-09-2018 01:10:00 13 C 82 % 10 C
1168 10-09-2018 01:15:00 12.9 C 81 % 9.72 C
1169 10-09-2018 01:20:00 12.8 C 81 % 9.62 C
1170 10-09-2018 01:25:00 12.7 C 82 % 9.71 C
1171 10-09-2018 01:30:00 12.6 C 82 % 9.61 C
1172 10-09-2018 01:35:00 12.5 C 82 % 9.51 C
1173 10-09-2018 01:40:00 12.4 C 83 % 9.6 C
1174 10-09-2018 01:45:00 12.3 C 83 % 9.5 C
1175 10-09-2018 01:50:00 12.2 C 83 % 9.4 C
Sensor: Nr:Datum:Temp:Feuchte:Taupunkt:
Aussen-T/F 1176 10-09-2018 01:55:00 12.2 C 84 % 9.58 C
1177 10-09-2018 02:00:00 12.2 C 84 % 9.58 C
1178 10-09-2018 02:05:00 12.1 C 84 % 9.48 C
1179 10-09-2018 02:10:00 12.1 C 84 % 9.48 C
1180 10-09-2018 02:15:00 11.9 C 84 % 9.29 C
1181 10-09-2018 02:20:00 11.9 C 85 % 9.46 C
1182 10-09-2018 02:25:00 11.8 C 85 % 9.36 C
1183 10-09-2018 02:30:00 11.8 C 85 % 9.36 C
1184 10-09-2018 02:35:00 11.8 C 85 % 9.36 C
1185 10-09-2018 02:40:00 11.7 C 86 % 9.44 C
1186 10-09-2018 02:45:00 11.6 C 86 % 9.34 C
1187 10-09-2018 02:50:00 11.5 C 86 % 9.24 C
1188 10-09-2018 02:55:00 11.5 C 86 % 9.24 C
1189 10-09-2018 03:00:00 11.6 C 87 % 9.51 C
1190 10-09-2018 03:05:00 11.6 C 86 % 9.34 C
1191 10-09-2018 03:10:00 11.5 C 86 % 9.24 C
1192 10-09-2018 03:15:00 11.5 C 87 % 9.41 C
1193 10-09-2018 03:20:00 11.6 C 88 % 9.68 C
1194 10-09-2018 03:25:00 11.8 C 87 % 9.71 C
1195 10-09-2018 03:30:00 11.8 C 86 % 9.54 C
1196 10-09-2018 03:35:00 11.7 C 86 % 9.44 C
1197 10-09-2018 03:40:00 11.7 C 86 % 9.44 C
1198 10-09-2018 03:45:00 11.7 C 86 % 9.44 C
1199 10-09-2018 03:50:00 11.7 C 87 % 9.61 C
1200 10-09-2018 03:55:00 11.8 C 87 % 9.71 C
Sensor: Nr:Datum:Temp:Feuchte:Taupunkt:
Aussen-T/F 1201 10-09-2018 04:00:00 11.9 C 87 % 9.81 C
1202 10-09-2018 04:05:00 12.1 C 87 % 10 C
1203 10-09-2018 04:10:00 12.1 C 87 % 10 C
1204 10-09-2018 04:15:00 12.2 C 87 % 10.1 C
1205 10-09-2018 04:20:00 12.2 C 86 % 9.93 C
1206 10-09-2018 04:25:00 12.1 C 86 % 9.83 C
1207 10-09-2018 04:30:00 12.1 C 86 % 9.83 C
1208 10-09-2018 04:35:00 12.1 C 86 % 9.83 C
1209 10-09-2018 04:40:00 12.1 C 87 % 10 C
1210 10-09-2018 04:45:00 12 C 86 % 9.73 C
1211 10-09-2018 04:50:00 11.9 C 86 % 9.64 C
1212 10-09-2018 04:55:00 11.8 C 86 % 9.54 C
1213 10-09-2018 05:00:00 11.8 C 87 % 9.71 C
1214 10-09-2018 05:05:00 11.7 C 87 % 9.61 C
1215 10-09-2018 05:10:00 11.7 C 87 % 9.61 C
1216 10-09-2018 05:15:00 11.6 C 87 % 9.51 C
1217 10-09-2018 05:20:00 11.5 C 87 % 9.41 C
1218 10-09-2018 05:25:00 11.4 C 87 % 9.32 C
1219 10-09-2018 05:30:00 11.4 C 88 % 9.49 C
1220 10-09-2018 05:35:00 11.3 C 88 % 9.39 C
1221 10-09-2018 05:40:00 11.2 C 88 % 9.29 C
1222 10-09-2018 05:45:00 11.1 C 88 % 9.19 C
1223 10-09-2018 05:50:00 11 C 88 % 9.09 C
1224 10-09-2018 05:55:00 10.8 C 88 % 8.89 C
1225 10-09-2018 06:00:00 10.8 C 88 % 8.89 C
Sensor: Nr:Datum:Temp:Feuchte:Taupunkt:
Aussen-T/F 1226 10-09-2018 06:05:00 10.7 C 89 % 8.96 C
1227 10-09-2018 06:10:00 10.7 C 89 % 8.96 C
1228 10-09-2018 06:15:00 10.6 C 89 % 8.86 C
1229 10-09-2018 06:20:00 10.6 C 89 % 8.86 C
1230 10-09-2018 06:25:00 10.7 C 90 % 9.13 C
1231 10-09-2018 06:30:00 10.8 C 90 % 9.23 C
1232 10-09-2018 06:35:00 10.8 C 90 % 9.23 C
1233 10-09-2018 06:40:00 10.8 C 90 % 9.23 C
1234 10-09-2018 06:45:00 10.7 C 89 % 8.96 C
1235 10-09-2018 06:50:00 10.7 C 89 % 8.96 C
1236 10-09-2018 06:55:00 10.6 C 90 % 9.03 C
1237 10-09-2018 07:00:00 10.7 C 90 % 9.13 C
1238 10-09-2018 07:05:00 10.7 C 90 % 9.13 C
1239 10-09-2018 07:10:00 10.8 C 90 % 9.23 C
1240 10-09-2018 07:15:00 10.8 C 91 % 9.39 C
1241 10-09-2018 07:20:00 10.9 C 91 % 9.49 C
1242 10-09-2018 07:25:00 11 C 91 % 9.59 C
1243 10-09-2018 07:30:00 11.1 C 91 % 9.69 C
1244 10-09-2018 07:35:00 11.2 C 91 % 9.79 C
1245 10-09-2018 07:40:00 11.3 C 91 % 9.89 C
1246 10-09-2018 07:45:00 11.3 C 91 % 9.89 C
1247 10-09-2018 07:50:00 11.5 C 91 % 10.08 C
1248 10-09-2018 07:55:00 11.6 C 91 % 10.18 C
1249 10-09-2018 08:00:00 11.8 C 91 % 10.38 C
1250 10-09-2018 08:05:00 11.9 C 91 % 10.48 C
Sensor: Nr:Datum:Temp:Feuchte:Taupunkt:
Aussen-T/F 1251 10-09-2018 08:10:00 12.2 C 91 % 10.78 C
1252 10-09-2018 08:15:00 12.3 C 90 % 10.71 C
1253 10-09-2018 08:20:00 12.6 C 90 % 11 C
1254 10-09-2018 08:25:00 12.7 C 90 % 11.1 C
1255 10-09-2018 08:30:00 12.9 C 90 % 11.3 C
1256 10-09-2018 08:35:00 13.1 C 90 % 11.5 C
1257 10-09-2018 08:40:00 13.2 C 89 % 11.43 C
1258 10-09-2018 08:45:00 13.3 C 88 % 11.36 C
1259 10-09-2018 08:50:00 13.5 C 88 % 11.55 C
1260 10-09-2018 08:55:00 13.6 C 88 % 11.65 C
1261 10-09-2018 09:00:00 13.7 C 87 % 11.58 C
1262 10-09-2018 09:05:00 13.8 C 86 % 11.5 C
1263 10-09-2018 09:10:00 14 C 86 % 11.7 C
1264 10-09-2018 09:15:00 14.1 C 85 % 11.62 C
1265 10-09-2018 09:20:00 14.3 C 85 % 11.81 C
1266 10-09-2018 09:25:00 14.4 C 85 % 11.91 C
1267 10-09-2018 09:30:00 14.7 C 85 % 12.21 C
1268 10-09-2018 09:35:00 14.8 C 84 % 12.12 C
1269 10-09-2018 09:40:00 15 C 84 % 12.32 C
1270 10-09-2018 09:45:00 15.2 C 83 % 12.33 C
1271 10-09-2018 09:50:00 15.3 C 83 % 12.43 C
1272 10-09-2018 09:55:00 15.5 C 82 % 12.44 C
1273 10-09-2018 10:00:00 15.7 C 81 % 12.45 C
1274 10-09-2018 10:05:00 15.8 C 81 % 12.55 C
1275 10-09-2018 10:10:00 15.9 C 79 % 12.27 C
Sensor: Nr:Datum:Temp:Feuchte:Taupunkt:
Aussen-T/F 1276 10-09-2018 10:15:00 16 C 79 % 12.36 C
1277 10-09-2018 10:20:00 16.1 C 78 % 12.27 C
1278 10-09-2018 10:25:00 16.2 C 78 % 12.36 C
1279 10-09-2018 10:30:00 16.3 C 77 % 12.26 C
1280 10-09-2018 10:35:00 16.5 C 77 % 12.46 C
1281 10-09-2018 10:40:00 16.7 C 76 % 12.45 C
1282 10-09-2018 10:45:00 16.8 C 76 % 12.55 C
1283 10-09-2018 10:50:00 16.9 C 74 % 12.24 C
1284 10-09-2018 10:55:00 17.1 C 73 % 12.23 C
1285 10-09-2018 11:00:00 17.2 C 73 % 12.32 C
1286 10-09-2018 11:05:00 17.3 C 72 % 12.21 C
1287 10-09-2018 11:10:00 17.5 C 72 % 12.4 C
1288 10-09-2018 11:15:00 17.8 C 72 % 12.69 C
1289 10-09-2018 11:20:00 18.1 C 71 % 12.76 C
1290 10-09-2018 11:25:00 18.3 C 70 % 12.74 C
1291 10-09-2018 11:30:00 18.6 C 70 % 13.02 C
1292 10-09-2018 11:35:00 18.8 C 69 % 13 C
1293 10-09-2018 11:40:00 19 C 70 % 13.41 C
1294 10-09-2018 11:45:00 19.2 C 67 % 12.93 C
1295 10-09-2018 11:50:00 19.5 C 67 % 13.21 C
1296 10-09-2018 11:55:00 19.8 C 66 % 13.27 C
1297 10-09-2018 12:00:00 20 C 64 % 12.99 C
1298 10-09-2018 12:05:00 20.2 C 65 % 13.41 C
1299 10-09-2018 12:10:00 20.3 C 62 % 12.79 C
1300 10-09-2018 12:15:00 20.5 C 61 % 12.73 C
Sensor: Nr:Datum:Temp:Feuchte:Taupunkt:
Aussen-T/F 1301 10-09-2018 12:20:00 20.7 C 61 % 12.91 C
1302 10-09-2018 12:25:00 20.8 C 60 % 12.76 C
1303 10-09-2018 12:30:00 21.2 C 59 % 12.87 C
1304 10-09-2018 12:35:00 21.4 C 57 % 12.53 C
1305 10-09-2018 12:40:00 21.7 C 57 % 12.81 C
1306 10-09-2018 12:45:00 22 C 55 % 12.55 C
1307 10-09-2018 12:50:00 22.2 C 54 % 12.45 C
1308 10-09-2018 12:55:00 22.3 C 55 % 12.83 C
1309 10-09-2018 13:00:00 22.4 C 55 % 12.92 C
1310 10-09-2018 13:05:00 22.6 C 52 % 12.25 C
1311 10-09-2018 13:10:00 22.7 C 53 % 12.63 C
1312 10-09-2018 13:15:00 22.8 C 54 % 13.01 C
1313 10-09-2018 13:20:00 23.1 C 54 % 13.29 C
1314 10-09-2018 13:25:00 23.3 C 53 % 13.19 C
1315 10-09-2018 13:30:00 23.6 C 52 % 13.17 C
1316 10-09-2018 13:35:00 23.8 C 52 % 13.36 C
1317 10-09-2018 13:40:00 23.9 C 51 % 13.15 C
1318 10-09-2018 13:45:00 24.2 C 51 % 13.43 C
1319 10-09-2018 13:50:00 24.5 C 51 % 13.7 C
1320 10-09-2018 13:55:00 24.8 C 50 % 13.67 C
1321 10-09-2018 14:00:00 25.1 C 49 % 13.64 C
1322 10-09-2018 14:05:00 25.3 C 48 % 13.5 C
1323 10-09-2018 14:10:00 25.5 C 48 % 13.69 C
1324 10-09-2018 14:15:00 25.6 C 48 % 13.78 C
1325 10-09-2018 14:20:00 25.8 C 48 % 13.96 C
Sensor: Nr:Datum:Temp:Feuchte:Taupunkt:
Aussen-T/F 1326 10-09-2018 14:25:00 25.9 C 48 % 14.05 C
1327 10-09-2018 14:30:00 26.1 C 48 % 14.23 C
1328 10-09-2018 14:35:00 26.3 C 48 % 14.42 C
1329 10-09-2018 14:40:00 26.5 C 47 % 14.27 C
1330 10-09-2018 14:45:00 26.7 C 46 % 14.12 C
1331 10-09-2018 14:50:00 26.8 C 46 % 14.21 C
1332 10-09-2018 14:55:00 26.8 C 46 % 14.21 C
1333 10-09-2018 15:00:00 26.9 C 47 % 14.64 C
1334 10-09-2018 15:05:00 27.1 C 46 % 14.49 C
1335 10-09-2018 15:10:00 27.3 C 45 % 14.33 C
1336 10-09-2018 15:15:00 27.3 C 45 % 14.33 C
1337 10-09-2018 15:20:00 27.4 C 45 % 14.42 C
1338 10-09-2018 15:25:00 27.3 C 44 % 13.98 C
1339 10-09-2018 15:30:00 27.1 C 45 % 14.15 C
1340 10-09-2018 15:35:00 26.6 C 46 % 14.03 C
1341 10-09-2018 15:40:00 26.3 C 47 % 14.09 C
1342 10-09-2018 15:45:00 26 C 47 % 13.82 C
1343 10-09-2018 15:50:00 25.8 C 47 % 13.64 C
1344 10-09-2018 15:55:00 25.7 C 48 % 13.87 C
1345 10-09-2018 16:00:00 25.6 C 48 % 13.78 C
1346 10-09-2018 16:05:00 25.6 C 48 % 13.78 C
1347 10-09-2018 16:10:00 25.6 C 48 % 13.78 C
1348 10-09-2018 16:15:00 25.8 C 48 % 13.96 C
1349 10-09-2018 16:20:00 25.9 C 46 % 13.4 C
1350 10-09-2018 16:25:00 25.9 C 47 % 13.73 C
Sensor: Nr:Datum:Temp:Feuchte:Taupunkt:
Aussen-T/F 1351 10-09-2018 16:30:00 25.8 C 46 % 13.31 C
1352 10-09-2018 16:35:00 25.6 C 47 % 13.45 C
1353 10-09-2018 16:40:00 25.4 C 47 % 13.27 C
1354 10-09-2018 16:45:00 25.3 C 48 % 13.5 C
1355 10-09-2018 16:50:00 25.3 C 48 % 13.5 C
1356 10-09-2018 16:55:00 25.2 C 48 % 13.41 C
1357 10-09-2018 17:00:00 25.1 C 48 % 13.32 C
1358 10-09-2018 17:05:00 24.9 C 48 % 13.14 C
1359 10-09-2018 17:10:00 24.7 C 49 % 13.27 C
1360 10-09-2018 17:15:00 24.5 C 50 % 13.4 C
1361 10-09-2018 17:20:00 24.3 C 50 % 13.22 C
1362 10-09-2018 17:25:00 24.2 C 51 % 13.43 C
1363 10-09-2018 17:30:00 24.1 C 51 % 13.34 C
1364 10-09-2018 17:35:00 24 C 52 % 13.54 C
1365 10-09-2018 17:40:00 23.9 C 53 % 13.74 C
1366 10-09-2018 17:45:00 23.8 C 53 % 13.65 C
1367 10-09-2018 17:50:00 23.7 C 54 % 13.84 C
1368 10-09-2018 17:55:00 23.7 C 54 % 13.84 C
1369 10-09-2018 18:00:00 23.7 C 55 % 14.13 C
1370 10-09-2018 18:05:00 23.6 C 55 % 14.03 C
1371 10-09-2018 18:10:00 23.6 C 54 % 13.75 C
1372 10-09-2018 18:15:00 23.5 C 54 % 13.66 C
1373 10-09-2018 18:20:00 23.5 C 54 % 13.66 C
1374 10-09-2018 18:25:00 23.6 C 54 % 13.75 C
1375 10-09-2018 18:30:00 23.7 C 54 % 13.84 C
Sensor: Nr:Datum:Temp:Feuchte:Taupunkt:
Aussen-T/F 1376 10-09-2018 18:35:00 23.7 C 53 % 13.56 C
1377 10-09-2018 18:40:00 23.7 C 53 % 13.56 C
1378 10-09-2018 18:45:00 23.6 C 53 % 13.46 C
1379 10-09-2018 18:50:00 23.4 C 54 % 13.57 C
1380 10-09-2018 18:55:00 23.4 C 53 % 13.28 C
1381 10-09-2018 19:00:00 23.2 C 54 % 13.38 C
1382 10-09-2018 19:05:00 22.9 C 55 % 13.38 C
1383 10-09-2018 19:10:00 22.7 C 56 % 13.47 C
1384 10-09-2018 19:15:00 22.6 C 56 % 13.38 C
1385 10-09-2018 19:20:00 22.3 C 57 % 13.37 C
1386 10-09-2018 19:25:00 22.2 C 57 % 13.28 C
1387 10-09-2018 19:30:00 22 C 58 % 13.36 C
1388 10-09-2018 19:35:00 21.9 C 59 % 13.53 C
1389 10-09-2018 19:40:00 21.8 C 59 % 13.44 C
1390 10-09-2018 19:45:00 21.7 C 60 % 13.6 C
1391 10-09-2018 19:50:00 21.6 C 60 % 13.51 C
1392 10-09-2018 19:55:00 21.4 C 60 % 13.32 C
1393 10-09-2018 20:00:00 21.3 C 61 % 13.48 C
1394 10-09-2018 20:05:00 21.1 C 62 % 13.54 C
1395 10-09-2018 20:10:00 20.8 C 63 % 13.5 C
1396 10-09-2018 20:15:00 20.6 C 63 % 13.31 C
1397 10-09-2018 20:20:00 20.3 C 65 % 13.51 C
1398 10-09-2018 20:25:00 20.1 C 65 % 13.32 C
1399 10-09-2018 20:30:00 19.8 C 66 % 13.27 C
1400 10-09-2018 20:35:00 19.5 C 67 % 13.21 C
Sensor: Nr:Datum:Temp:Feuchte:Taupunkt:
Aussen-T/F 1401 10-09-2018 20:40:00 19.3 C 68 % 13.25 C
1402 10-09-2018 20:45:00 19.1 C 69 % 13.28 C
1403 10-09-2018 20:50:00 18.9 C 69 % 13.09 C
1404 10-09-2018 20:55:00 18.7 C 70 % 13.12 C
1405 10-09-2018 21:00:00 18.6 C 71 % 13.24 C
1406 10-09-2018 21:05:00 18.4 C 71 % 13.05 C
1407 10-09-2018 21:10:00 18.3 C 72 % 13.17 C
1408 10-09-2018 21:15:00 18.2 C 72 % 13.07 C
1409 10-09-2018 21:20:00 18.1 C 72 % 12.98 C
1410 10-09-2018 21:25:00 18.1 C 73 % 13.19 C
1411 10-09-2018 21:30:00 17.9 C 73 % 12.99 C
1412 10-09-2018 21:35:00 17.9 C 74 % 13.2 C
1413 10-09-2018 21:40:00 17.8 C 74 % 13.11 C
1414 10-09-2018 21:45:00 17.7 C 74 % 13.01 C
1415 10-09-2018 21:50:00 17.7 C 74 % 13.01 C
1416 10-09-2018 21:55:00 17.6 C 75 % 13.12 C
1417 10-09-2018 22:00:00 17.5 C 75 % 13.02 C
1418 10-09-2018 22:05:00 17.5 C 75 % 13.02 C
1419 10-09-2018 22:10:00 17.4 C 75 % 12.93 C
1420 10-09-2018 22:15:00 17.3 C 75 % 12.83 C
1421 10-09-2018 22:20:00 17.3 C 75 % 12.83 C
1422 10-09-2018 22:25:00 17.1 C 76 % 12.84 C
1423 10-09-2018 22:30:00 16.9 C 76 % 12.65 C
1424 10-09-2018 22:35:00 16.8 C 76 % 12.55 C
1425 10-09-2018 22:40:00 16.6 C 77 % 12.55 C
Sensor: Nr:Datum:Temp:Feuchte:Taupunkt:
Aussen-T/F 1426 10-09-2018 22:45:00 16.4 C 78 % 12.56 C
1427 10-09-2018 22:50:00 16.2 C 78 % 12.36 C
1428 10-09-2018 22:55:00 16 C 79 % 12.36 C
1429 10-09-2018 23:00:00 15.8 C 80 % 12.36 C
1430 10-09-2018 23:05:00 15.8 C 80 % 12.36 C
1431 10-09-2018 23:10:00 15.7 C 81 % 12.45 C
1432 10-09-2018 23:15:00 15.6 C 81 % 12.35 C
1433 10-09-2018 23:20:00 15.6 C 81 % 12.35 C
1434 10-09-2018 23:25:00 15.5 C 82 % 12.44 C
1435 10-09-2018 23:30:00 15.4 C 82 % 12.35 C
1436 10-09-2018 23:35:00 15.3 C 82 % 12.25 C
1437 10-09-2018 23:40:00 15.3 C 83 % 12.43 C
1438 10-09-2018 23:45:00 15.3 C 83 % 12.43 C
1439 10-09-2018 23:50:00 15.2 C 83 % 12.33 C
1440 10-09-2018 23:55:00 15.2 C 83 % 12.33 C
1441 11-09-2018 00:00:00 15.1 C 83 % 12.24 C
1442 11-09-2018 00:05:00 15.1 C 83 % 12.24 C
1443 11-09-2018 00:10:00 15 C 84 % 12.32 C
1444 11-09-2018 00:15:00 14.9 C 84 % 12.22 C
1445 11-09-2018 00:20:00 14.9 C 84 % 12.22 C
1446 11-09-2018 00:25:00 14.9 C 85 % 12.4 C
1447 11-09-2018 00:30:00 14.8 C 84 % 12.12 C
1448 11-09-2018 00:35:00 14.8 C 84 % 12.12 C
1449 11-09-2018 00:40:00 14.7 C 84 % 12.03 C
1450 11-09-2018 00:45:00 14.6 C 84 % 11.93 C
Sensor: Nr:Datum:Temp:Feuchte:Taupunkt:
Aussen-T/F 1451 11-09-2018 00:50:00 14.5 C 85 % 12.01 C
1452 11-09-2018 00:55:00 14.4 C 85 % 11.91 C
1453 11-09-2018 01:00:00 14.4 C 85 % 11.91 C
1454 11-09-2018 01:05:00 14.3 C 86 % 11.99 C
1455 11-09-2018 01:10:00 14.3 C 86 % 11.99 C
1456 11-09-2018 01:15:00 14.3 C 86 % 11.99 C
1457 11-09-2018 01:20:00 14.3 C 86 % 11.99 C
1458 11-09-2018 01:25:00 14.3 C 87 % 12.17 C
1459 11-09-2018 01:30:00 14.3 C 87 % 12.17 C
1460 11-09-2018 01:35:00 14.3 C 87 % 12.17 C
1461 11-09-2018 01:40:00 14.3 C 87 % 12.17 C
1462 11-09-2018 01:45:00 14.3 C 87 % 12.17 C
1463 11-09-2018 01:50:00 14.3 C 87 % 12.17 C
1464 11-09-2018 01:55:00 14.3 C 87 % 12.17 C
1465 11-09-2018 02:00:00 14.2 C 87 % 12.07 C
1466 11-09-2018 02:05:00 14.2 C 87 % 12.07 C
1467 11-09-2018 02:10:00 14.2 C 87 % 12.07 C
1468 11-09-2018 02:15:00 14.1 C 87 % 11.97 C
1469 11-09-2018 02:20:00 14.1 C 87 % 11.97 C
1470 11-09-2018 02:25:00 14.1 C 87 % 11.97 C
1471 11-09-2018 02:30:00 14 C 87 % 11.87 C
1472 11-09-2018 02:35:00 13.9 C 87 % 11.77 C
1473 11-09-2018 02:40:00 13.9 C 87 % 11.77 C
1474 11-09-2018 02:45:00 13.9 C 87 % 11.77 C
1475 11-09-2018 02:50:00 13.8 C 88 % 11.85 C
Sensor: Nr:Datum:Temp:Feuchte:Taupunkt:
Aussen-T/F 1476 11-09-2018 02:55:00 13.8 C 88 % 11.85 C
1477 11-09-2018 03:00:00 13.8 C 88 % 11.85 C
1478 11-09-2018 03:05:00 13.8 C 88 % 11.85 C
1479 11-09-2018 03:10:00 13.7 C 88 % 11.75 C
1480 11-09-2018 03:15:00 13.7 C 89 % 11.92 C
1481 11-09-2018 03:20:00 13.6 C 88 % 11.65 C
1482 11-09-2018 03:25:00 13.4 C 88 % 11.45 C
1483 11-09-2018 03:30:00 13.3 C 89 % 11.53 C
1484 11-09-2018 03:35:00 13.2 C 88 % 11.26 C
1485 11-09-2018 03:40:00 12.9 C 88 % 10.96 C
1486 11-09-2018 03:45:00 12.8 C 89 % 11.03 C
1487 11-09-2018 03:50:00 12.7 C 89 % 10.94 C
1488 11-09-2018 03:55:00 12.6 C 89 % 10.84 C
1489 11-09-2018 04:00:00 12.4 C 90 % 10.81 C
1490 11-09-2018 04:05:00 12.4 C 90 % 10.81 C
1491 11-09-2018 04:10:00 12.3 C 90 % 10.71 C
1492 11-09-2018 04:15:00 12.4 C 91 % 10.97 C
1493 11-09-2018 04:20:00 12.5 C 91 % 11.07 C
1494 11-09-2018 04:25:00 12.5 C 91 % 11.07 C
1495 11-09-2018 04:30:00 12.5 C 92 % 11.24 C
1496 11-09-2018 04:35:00 12.6 C 92 % 11.34 C
1497 11-09-2018 04:40:00 12.6 C 92 % 11.34 C
1498 11-09-2018 04:45:00 12.6 C 92 % 11.34 C
1499 11-09-2018 04:50:00 12.5 C 92 % 11.24 C
1500 11-09-2018 04:55:00 12.5 C 92 % 11.24 C
Sensor: Nr:Datum:Temp:Feuchte:Taupunkt:
Aussen-T/F 1501 11-09-2018 05:00:00 12.5 C 92 % 11.24 C
1502 11-09-2018 05:05:00 12.5 C 92 % 11.24 C
1503 11-09-2018 05:10:00 12.5 C 92 % 11.24 C
1504 11-09-2018 05:15:00 12.4 C 92 % 11.14 C
1505 11-09-2018 05:20:00 12.3 C 91 % 10.87 C
1506 11-09-2018 05:25:00 12.2 C 91 % 10.78 C
1507 11-09-2018 05:30:00 12.1 C 91 % 10.68 C
1508 11-09-2018 05:35:00 12.1 C 92 % 10.84 C
1509 11-09-2018 05:40:00 12.1 C 92 % 10.84 C
1510 11-09-2018 05:45:00 12 C 92 % 10.74 C
1511 11-09-2018 05:50:00 12 C 92 % 10.74 C
1512 11-09-2018 05:55:00 11.9 C 92 % 10.64 C
1513 11-09-2018 06:00:00 11.9 C 92 % 10.64 C
1514 11-09-2018 06:05:00 11.9 C 92 % 10.64 C
1515 11-09-2018 06:10:00 11.8 C 92 % 10.54 C
1516 11-09-2018 06:15:00 11.8 C 92 % 10.54 C
1517 11-09-2018 06:20:00 11.8 C 93 % 10.71 C
1518 11-09-2018 06:25:00 11.8 C 93 % 10.71 C
1519 11-09-2018 06:30:00 11.8 C 93 % 10.71 C
1520 11-09-2018 06:35:00 11.7 C 93 % 10.61 C
1521 11-09-2018 06:40:00 11.7 C 93 % 10.61 C
1522 11-09-2018 06:45:00 11.7 C 93 % 10.61 C
1523 11-09-2018 06:50:00 11.7 C 93 % 10.61 C
1524 11-09-2018 06:55:00 11.7 C 93 % 10.61 C
1525 11-09-2018 07:00:00 11.7 C 93 % 10.61 C
Sensor: Nr:Datum:Temp:Feuchte:Taupunkt:
Aussen-T/F 1526 11-09-2018 07:05:00 11.8 C 93 % 10.71 C
1527 11-09-2018 07:10:00 11.9 C 93 % 10.81 C
1528 11-09-2018 07:15:00 11.8 C 93 % 10.71 C
1529 11-09-2018 07:20:00 11.6 C 92 % 10.35 C
1530 11-09-2018 07:25:00 11.5 C 92 % 10.25 C
1531 11-09-2018 07:30:00 11.5 C 93 % 10.41 C
1532 11-09-2018 07:35:00 11.6 C 93 % 10.51 C
1533 11-09-2018 07:40:00 11.6 C 93 % 10.51 C
1534 11-09-2018 07:45:00 11.7 C 94 % 10.77 C
1535 11-09-2018 07:50:00 11.8 C 94 % 10.87 C
1536 11-09-2018 07:55:00 11.9 C 94 % 10.97 C
1537 11-09-2018 08:00:00 12 C 94 % 11.07 C
1538 11-09-2018 08:05:00 12.2 C 94 % 11.26 C
1539 11-09-2018 08:10:00 12.3 C 94 % 11.36 C
1540 11-09-2018 08:15:00 12.3 C 94 % 11.36 C
1541 11-09-2018 08:20:00 12.4 C 94 % 11.46 C
1542 11-09-2018 08:25:00 12.7 C 94 % 11.76 C
1543 11-09-2018 08:30:00 12.8 C 94 % 11.86 C
1544 11-09-2018 08:35:00 12.9 C 94 % 11.96 C
1545 11-09-2018 08:40:00 13.1 C 93 % 11.99 C
1546 11-09-2018 08:45:00 13.2 C 92 % 11.93 C
1547 11-09-2018 08:50:00 13.3 C 92 % 12.03 C
1548 11-09-2018 08:55:00 13.3 C 91 % 11.86 C
1549 11-09-2018 09:00:00 13.5 C 91 % 12.06 C
1550 11-09-2018 09:05:00 13.6 C 91 % 12.16 C
Sensor: Nr:Datum:Temp:Feuchte:Taupunkt:
Aussen-T/F 1551 11-09-2018 09:10:00 13.7 C 91 % 12.26 C
1552 11-09-2018 09:15:00 13.8 C 91 % 12.36 C
1553 11-09-2018 09:20:00 13.9 C 91 % 12.46 C
1554 11-09-2018 09:25:00 14 C 91 % 12.56 C
1555 11-09-2018 09:30:00 14.2 C 91 % 12.75 C
1556 11-09-2018 09:35:00 14.4 C 91 % 12.95 C
1557 11-09-2018 09:40:00 14.6 C 91 % 13.15 C
1558 11-09-2018 09:45:00 14.8 C 91 % 13.35 C
1559 11-09-2018 09:50:00 15.1 C 90 % 13.47 C
1560 11-09-2018 09:55:00 15.7 C 87 % 13.54 C
1561 11-09-2018 10:00:00 16.2 C 85 % 13.68 C
1562 11-09-2018 10:05:00 16.8 C 82 % 13.71 C
1563 11-09-2018 10:10:00 17.3 C 79 % 13.63 C
1564 11-09-2018 10:15:00 17.8 C 78 % 13.91 C
1565 11-09-2018 10:20:00 18 C 77 % 13.91 C
1566 11-09-2018 10:25:00 18.2 C 76 % 13.9 C
1567 11-09-2018 10:30:00 18.4 C 75 % 13.89 C
1568 11-09-2018 10:35:00 18.5 C 75 % 13.99 C
1569 11-09-2018 10:40:00 18.6 C 74 % 13.88 C
1570 11-09-2018 10:45:00 18.7 C 74 % 13.97 C
1571 11-09-2018 10:50:00 18.7 C 74 % 13.97 C
1572 11-09-2018 10:55:00 18.8 C 74 % 14.07 C
1573 11-09-2018 11:00:00 18.8 C 73 % 13.86 C
1574 11-09-2018 11:05:00 18.9 C 73 % 13.96 C
1575 11-09-2018 11:10:00 19 C 72 % 13.84 C
Sensor: Nr:Datum:Temp:Feuchte:Taupunkt:
Aussen-T/F 1576 11-09-2018 11:15:00 19.1 C 72 % 13.94 C
1577 11-09-2018 11:20:00 19.2 C 71 % 13.82 C
1578 11-09-2018 11:25:00 19.2 C 72 % 14.03 C
1579 11-09-2018 11:30:00 19.2 C 72 % 14.03 C
1580 11-09-2018 11:35:00 19.3 C 71 % 13.91 C
1581 11-09-2018 11:40:00 19.3 C 71 % 13.91 C
1582 11-09-2018 11:45:00 19.4 C 71 % 14.01 C
1583 11-09-2018 11:50:00 19.6 C 70 % 13.98 C
1584 11-09-2018 11:55:00 19.8 C 70 % 14.17 C
1585 11-09-2018 12:00:00 20.1 C 69 % 14.24 C
1586 11-09-2018 12:05:00 20.2 C 69 % 14.33 C
1587 11-09-2018 12:10:00 20.4 C 68 % 14.3 C
1588 11-09-2018 12:15:00 20.6 C 67 % 14.26 C
1589 11-09-2018 12:20:00 20.8 C 66 % 14.22 C
1590 11-09-2018 12:25:00 21 C 66 % 14.41 C
1591 11-09-2018 12:30:00 21.2 C 65 % 14.36 C
1592 11-09-2018 12:35:00 21.3 C 65 % 14.46 C
1593 11-09-2018 12:40:00 21.4 C 64 % 14.31 C
1594 11-09-2018 12:45:00 21.6 C 63 % 14.26 C
1595 11-09-2018 12:50:00 21.8 C 63 % 14.45 C
1596 11-09-2018 12:55:00 22 C 62 % 14.39 C
1597 11-09-2018 13:00:00 22.2 C 61 % 14.32 C
1598 11-09-2018 13:05:00 22.3 C 61 % 14.42 C
1599 11-09-2018 13:10:00 22.5 C 60 % 14.35 C
1600 11-09-2018 13:15:00 22.7 C 59 % 14.28 C
Sensor: Nr:Datum:Temp:Feuchte:Taupunkt:
Aussen-T/F 1601 11-09-2018 13:20:00 22.8 C 57 % 13.84 C
1602 11-09-2018 13:25:00 22.9 C 58 % 14.2 C
1603 11-09-2018 13:30:00 23.1 C 57 % 14.12 C
1604 11-09-2018 13:35:00 23.1 C 56 % 13.85 C
1605 11-09-2018 13:40:00 23.3 C 56 % 14.03 C
1606 11-09-2018 13:45:00 23.4 C 56 % 14.13 C
1607 11-09-2018 13:50:00 23.6 C 55 % 14.03 C
1608 11-09-2018 13:55:00 23.7 C 55 % 14.13 C
1609 11-09-2018 14:00:00 23.8 C 54 % 13.94 C
1610 11-09-2018 14:05:00 23.9 C 53 % 13.74 C
1611 11-09-2018 14:10:00 24.1 C 53 % 13.93 C
1612 11-09-2018 14:15:00 24.2 C 53 % 14.02 C
1613 11-09-2018 14:20:00 24.3 C 53 % 14.11 C
1614 11-09-2018 14:25:00 24.4 C 52 % 13.91 C
1615 11-09-2018 14:30:00 24.7 C 52 % 14.19 C
1616 11-09-2018 14:35:00 24.8 C 52 % 14.28 C
1617 11-09-2018 14:40:00 24.9 C 51 % 14.07 C
1618 11-09-2018 14:45:00 25.1 C 51 % 14.25 C
1619 11-09-2018 14:50:00 25.2 C 50 % 14.04 C
1620 11-09-2018 14:55:00 25.2 C 50 % 14.04 C
1621 11-09-2018 15:00:00 25.3 C 50 % 14.13 C
1622 11-09-2018 15:05:00 25.4 C 51 % 14.53 C
1623 11-09-2018 15:10:00 25.6 C 47 % 13.45 C
1624 11-09-2018 15:15:00 25.8 C 46 % 13.31 C
1625 11-09-2018 15:20:00 25.9 C 46 % 13.4 C
Sensor: Nr:Datum:Temp:Feuchte:Taupunkt:
Aussen-T/F 1626 11-09-2018 15:25:00 26.1 C 46 % 13.58 C
1627 11-09-2018 15:30:00 26.2 C 46 % 13.67 C
1628 11-09-2018 15:35:00 26.2 C 45 % 13.33 C
1629 11-09-2018 15:40:00 26.2 C 45 % 13.33 C
1630 11-09-2018 15:45:00 26.2 C 44 % 12.99 C
1631 11-09-2018 15:50:00 26.3 C 44 % 13.08 C
1632 11-09-2018 15:55:00 26.4 C 44 % 13.17 C
1633 11-09-2018 16:00:00 26.6 C 44 % 13.35 C
1634 11-09-2018 16:05:00 26.7 C 43 % 13.09 C
1635 11-09-2018 16:10:00 26.8 C 43 % 13.18 C
1636 11-09-2018 16:15:00 26.9 C 43 % 13.27 C
1637 11-09-2018 16:20:00 27.2 C 42 % 13.18 C
1638 11-09-2018 16:25:00 27.3 C 42 % 13.27 C
1639 11-09-2018 16:30:00 27.3 C 41 % 12.9 C
1640 11-09-2018 16:35:00 27.4 C 41 % 12.99 C
1641 11-09-2018 16:40:00 27.6 C 42 % 13.53 C
1642 11-09-2018 16:45:00 27.8 C 41 % 13.34 C
1643 11-09-2018 16:50:00 28.1 C 40 % 13.23 C
1644 11-09-2018 16:55:00 28.3 C 41 % 13.79 C
1645 11-09-2018 17:00:00 28.6 C 40 % 13.68 C
1646 11-09-2018 17:05:00 28.8 C 39 % 13.47 C
1647 11-09-2018 17:10:00 28.9 C 39 % 13.56 C
1648 11-09-2018 17:15:00 28.9 C 39 % 13.56 C
1649 11-09-2018 17:20:00 29 C 39 % 13.65 C
1650 11-09-2018 17:25:00 29 C 38 % 13.25 C
Sensor: Nr:Datum:Temp:Feuchte:Taupunkt:
Aussen-T/F 1651 11-09-2018 17:30:00 28.9 C 40 % 13.95 C
1652 11-09-2018 17:35:00 29.2 C 39 % 13.82 C
1653 11-09-2018 17:40:00 29.2 C 38 % 13.42 C
1654 11-09-2018 17:45:00 29.3 C 38 % 13.51 C
1655 11-09-2018 17:50:00 29.2 C 38 % 13.42 C
1656 11-09-2018 17:55:00 29.3 C 38 % 13.51 C
1657 11-09-2018 18:00:00 29.1 C 38 % 13.34 C
1658 11-09-2018 18:05:00 28.9 C 38 % 13.16 C
1659 11-09-2018 18:10:00 28.9 C 39 % 13.56 C
1660 11-09-2018 18:15:00 28.9 C 40 % 13.95 C
1661 11-09-2018 18:20:00 29.1 C 38 % 13.34 C
1662 11-09-2018 18:25:00 28.9 C 38 % 13.16 C
1663 11-09-2018 18:30:00 28.8 C 38 % 13.07 C
1664 11-09-2018 18:35:00 28.6 C 39 % 13.29 C
1665 11-09-2018 18:40:00 28.5 C 40 % 13.59 C
1666 11-09-2018 18:45:00 28.4 C 41 % 13.88 C
1667 11-09-2018 18:50:00 28.3 C 38 % 12.63 C
1668 11-09-2018 18:55:00 28.1 C 39 % 12.85 C
1669 11-09-2018 19:00:00 27.8 C 40 % 12.97 C
1670 11-09-2018 19:05:00 27.8 C 42 % 13.71 C
1671 11-09-2018 19:10:00 27.6 C 41 % 13.16 C
1672 11-09-2018 19:15:00 27.4 C 41 % 12.99 C
1673 11-09-2018 19:20:00 27.2 C 43 % 13.54 C
1674 11-09-2018 19:25:00 26.9 C 49 % 15.28 C
1675 11-09-2018 19:30:00 26.3 C 46 % 13.76 C
Sensor: Nr:Datum:Temp:Feuchte:Taupunkt:
Aussen-T/F 1676 11-09-2018 19:35:00 25.4 C 47 % 13.27 C
1677 11-09-2018 19:40:00 24.8 C 48 % 13.05 C
1678 11-09-2018 19:45:00 24.3 C 50 % 13.22 C
1679 11-09-2018 19:50:00 23.7 C 50 % 12.67 C
1680 11-09-2018 19:55:00 23.2 C 52 % 12.8 C
1681 11-09-2018 20:00:00 22.8 C 53 % 12.73 C
1682 11-09-2018 20:05:00 22.5 C 55 % 13.01 C
1683 11-09-2018 20:10:00 22.3 C 54 % 12.55 C
1684 11-09-2018 20:15:00 22.1 C 55 % 12.64 C
1685 11-09-2018 20:20:00 21.8 C 56 % 12.64 C
1686 11-09-2018 20:25:00 21.7 C 57 % 12.81 C
1687 11-09-2018 20:30:00 21.4 C 57 % 12.53 C
1688 11-09-2018 20:35:00 21.2 C 59 % 12.87 C
1689 11-09-2018 20:40:00 21 C 59 % 12.69 C
1690 11-09-2018 20:45:00 20.8 C 60 % 12.76 C
1691 11-09-2018 20:50:00 20.7 C 60 % 12.66 C
1692 11-09-2018 20:55:00 20.6 C 61 % 12.82 C
1693 11-09-2018 21:00:00 20.5 C 61 % 12.73 C
1694 11-09-2018 21:05:00 20.4 C 62 % 12.88 C
1695 11-09-2018 21:10:00 20.3 C 62 % 12.79 C
1696 11-09-2018 21:15:00 20.1 C 62 % 12.6 C
1697 11-09-2018 21:20:00 19.9 C 62 % 12.41 C
1698 11-09-2018 21:25:00 19.8 C 63 % 12.56 C
1699 11-09-2018 21:30:00 19.7 C 63 % 12.46 C
1700 11-09-2018 21:35:00 19.6 C 63 % 12.37 C
Sensor: Nr:Datum:Temp:Feuchte:Taupunkt:
Aussen-T/F 1701 11-09-2018 21:40:00 19.6 C 63 % 12.37 C
1702 11-09-2018 21:45:00 19.5 C 64 % 12.51 C
1703 11-09-2018 21:50:00 19.5 C 63 % 12.27 C
1704 11-09-2018 21:55:00 19.5 C 64 % 12.51 C
1705 11-09-2018 22:00:00 19.4 C 64 % 12.42 C
1706 11-09-2018 22:05:00 19.4 C 64 % 12.42 C
1707 11-09-2018 22:10:00 19.3 C 64 % 12.32 C
1708 11-09-2018 22:15:00 19.3 C 64 % 12.32 C
1709 11-09-2018 22:20:00 19.2 C 65 % 12.47 C
1710 11-09-2018 22:25:00 19.1 C 65 % 12.37 C
1711 11-09-2018 22:30:00 19 C 65 % 12.28 C
1712 11-09-2018 22:35:00 18.9 C 66 % 12.41 C
1713 11-09-2018 22:40:00 18.8 C 66 % 12.32 C
1714 11-09-2018 22:45:00 18.7 C 67 % 12.45 C
1715 11-09-2018 22:50:00 18.6 C 67 % 12.36 C
1716 11-09-2018 22:55:00 18.4 C 68 % 12.39 C
1717 11-09-2018 23:00:00 18.3 C 68 % 12.3 C
1718 11-09-2018 23:05:00 18.2 C 69 % 12.42 C
1719 11-09-2018 23:10:00 18.1 C 69 % 12.33 C
1720 11-09-2018 23:15:00 17.9 C 70 % 12.35 C
1721 11-09-2018 23:20:00 17.8 C 70 % 12.26 C
1722 11-09-2018 23:25:00 17.7 C 70 % 12.16 C
1723 11-09-2018 23:30:00 17.7 C 71 % 12.38 C
1724 11-09-2018 23:35:00 17.6 C 71 % 12.28 C
1725 11-09-2018 23:40:00 17.5 C 72 % 12.4 C
Sensor: Nr:Datum:Temp:Feuchte:Taupunkt:
Aussen-T/F 1726 11-09-2018 23:45:00 17.4 C 72 % 12.3 C
1727 11-09-2018 23:50:00 17.3 C 72 % 12.21 C
1728 11-09-2018 23:55:00 17.2 C 73 % 12.32 C
1729 12-09-2018 00:00:00 17.1 C 73 % 12.23 C
1730 12-09-2018 00:05:00 17 C 74 % 12.34 C
1731 12-09-2018 00:10:00 16.9 C 74 % 12.24 C
1732 12-09-2018 00:15:00 16.8 C 74 % 12.14 C
1733 12-09-2018 00:20:00 16.7 C 74 % 12.05 C
1734 12-09-2018 00:25:00 16.7 C 74 % 12.05 C
1735 12-09-2018 00:30:00 16.6 C 74 % 11.95 C
1736 12-09-2018 00:35:00 16.4 C 75 % 11.96 C
1737 12-09-2018 00:40:00 16.3 C 75 % 11.86 C
1738 12-09-2018 00:45:00 16.2 C 75 % 11.77 C
1739 12-09-2018 00:50:00 16.2 C 77 % 12.17 C
1740 12-09-2018 00:55:00 16.2 C 77 % 12.17 C
1741 12-09-2018 01:00:00 16.1 C 77 % 12.07 C
1742 12-09-2018 01:05:00 15.8 C 77 % 11.78 C
1743 12-09-2018 01:10:00 15.6 C 78 % 11.78 C
1744 12-09-2018 01:15:00 15.5 C 78 % 11.68 C
1745 12-09-2018 01:20:00 15.4 C 79 % 11.78 C
1746 12-09-2018 01:25:00 15.4 C 78 % 11.59 C
1747 12-09-2018 01:30:00 15.4 C 78 % 11.59 C
1748 12-09-2018 01:35:00 15.3 C 80 % 11.87 C
1749 12-09-2018 01:40:00 15.2 C 80 % 11.78 C
1750 12-09-2018 01:45:00 15 C 80 % 11.58 C
Sensor: Nr:Datum:Temp:Feuchte:Taupunkt:
Aussen-T/F 1751 12-09-2018 01:50:00 14.9 C 80 % 11.48 C
1752 12-09-2018 01:55:00 14.8 C 81 % 11.57 C
1753 12-09-2018 02:00:00 14.8 C 81 % 11.57 C
1754 12-09-2018 02:05:00 14.8 C 80 % 11.39 C
1755 12-09-2018 02:10:00 14.7 C 81 % 11.48 C
1756 12-09-2018 02:15:00 14.5 C 81 % 11.28 C
1757 12-09-2018 02:20:00 14.3 C 81 % 11.09 C
1758 12-09-2018 02:25:00 14.2 C 82 % 11.17 C
1759 12-09-2018 02:30:00 14.1 C 83 % 11.26 C
1760 12-09-2018 02:35:00 14 C 83 % 11.16 C
1761 12-09-2018 02:40:00 14 C 84 % 11.34 C
1762 12-09-2018 02:45:00 13.9 C 84 % 11.24 C
1763 12-09-2018 02:50:00 13.9 C 84 % 11.24 C
1764 12-09-2018 02:55:00 13.8 C 84 % 11.15 C
1765 12-09-2018 03:00:00 13.8 C 85 % 11.32 C
1766 12-09-2018 03:05:00 14.1 C 86 % 11.8 C
1767 12-09-2018 03:10:00 14.1 C 83 % 11.26 C
1768 12-09-2018 03:15:00 13.9 C 84 % 11.24 C
1769 12-09-2018 03:20:00 13.9 C 84 % 11.24 C
1770 12-09-2018 03:25:00 13.9 C 84 % 11.24 C
1771 12-09-2018 03:30:00 13.8 C 84 % 11.15 C
1772 12-09-2018 03:35:00 13.7 C 84 % 11.05 C
1773 12-09-2018 03:40:00 13.6 C 84 % 10.95 C
1774 12-09-2018 03:45:00 13.4 C 84 % 10.75 C
1775 12-09-2018 03:50:00 13.3 C 85 % 10.83 C
Sensor: Nr:Datum:Temp:Feuchte:Taupunkt:
Aussen-T/F 1776 12-09-2018 03:55:00 13.2 C 86 % 10.91 C
1777 12-09-2018 04:00:00 13.2 C 86 % 10.91 C
1778 12-09-2018 04:05:00 13.2 C 86 % 10.91 C
1779 12-09-2018 04:10:00 13.2 C 86 % 10.91 C
1780 12-09-2018 04:15:00 13.1 C 86 % 10.81 C
1781 12-09-2018 04:20:00 13 C 86 % 10.72 C
1782 12-09-2018 04:25:00 12.9 C 86 % 10.62 C
1783 12-09-2018 04:30:00 12.9 C 86 % 10.62 C
1784 12-09-2018 04:35:00 12.9 C 87 % 10.79 C
1785 12-09-2018 04:40:00 12.9 C 87 % 10.79 C
1786 12-09-2018 04:45:00 12.9 C 87 % 10.79 C
1787 12-09-2018 04:50:00 12.8 C 87 % 10.69 C
1788 12-09-2018 04:55:00 12.8 C 87 % 10.69 C
1789 12-09-2018 05:00:00 12.7 C 87 % 10.59 C
1790 12-09-2018 05:05:00 12.7 C 88 % 10.77 C
1791 12-09-2018 05:10:00 12.7 C 87 % 10.59 C
1792 12-09-2018 05:15:00 12.7 C 87 % 10.59 C
1793 12-09-2018 05:20:00 12.6 C 87 % 10.5 C
1794 12-09-2018 05:25:00 12.5 C 87 % 10.4 C
1795 12-09-2018 05:30:00 12.5 C 88 % 10.57 C
1796 12-09-2018 05:35:00 12.4 C 88 % 10.47 C
1797 12-09-2018 05:40:00 12.3 C 88 % 10.37 C
1798 12-09-2018 05:45:00 12.3 C 88 % 10.37 C
1799 12-09-2018 05:50:00 12.3 C 89 % 10.54 C
1800 12-09-2018 05:55:00 12.3 C 89 % 10.54 C
Sensor: Nr:Datum:Temp:Feuchte:Taupunkt:
Aussen-T/F 1801 12-09-2018 06:00:00 12.2 C 88 % 10.27 C
1802 12-09-2018 06:05:00 12.2 C 89 % 10.44 C
1803 12-09-2018 06:10:00 12.1 C 89 % 10.34 C
1804 12-09-2018 06:15:00 12.1 C 89 % 10.34 C
1805 12-09-2018 06:20:00 12.1 C 89 % 10.34 C
1806 12-09-2018 06:25:00 12 C 89 % 10.25 C
1807 12-09-2018 06:30:00 11.9 C 89 % 10.15 C
1808 12-09-2018 06:35:00 11.9 C 89 % 10.15 C
1809 12-09-2018 06:40:00 11.8 C 89 % 10.05 C
1810 12-09-2018 06:45:00 11.7 C 89 % 9.95 C
1811 12-09-2018 06:50:00 11.7 C 90 % 10.12 C
1812 12-09-2018 06:55:00 11.6 C 90 % 10.02 C
1813 12-09-2018 07:00:00 11.6 C 90 % 10.02 C
1814 12-09-2018 07:05:00 11.5 C 90 % 9.92 C
1815 12-09-2018 07:10:00 11.6 C 91 % 10.18 C
1816 12-09-2018 07:15:00 11.7 C 92 % 10.44 C
1817 12-09-2018 07:20:00 11.7 C 91 % 10.28 C
1818 12-09-2018 07:25:00 11.7 C 91 % 10.28 C
1819 12-09-2018 07:30:00 11.6 C 91 % 10.18 C
1820 12-09-2018 07:35:00 11.6 C 91 % 10.18 C
1821 12-09-2018 07:40:00 11.6 C 91 % 10.18 C
1822 12-09-2018 07:45:00 11.6 C 91 % 10.18 C
1823 12-09-2018 07:50:00 11.6 C 92 % 10.35 C
1824 12-09-2018 07:55:00 11.7 C 91 % 10.28 C
1825 12-09-2018 08:00:00 11.7 C 92 % 10.44 C
Sensor: Nr:Datum:Temp:Feuchte:Taupunkt:
Aussen-T/F 1826 12-09-2018 08:05:00 11.7 C 92 % 10.44 C
1827 12-09-2018 08:10:00 11.8 C 92 % 10.54 C
1828 12-09-2018 08:15:00 11.8 C 91 % 10.38 C
1829 12-09-2018 08:20:00 11.8 C 92 % 10.54 C
1830 12-09-2018 08:25:00 11.8 C 92 % 10.54 C
1831 12-09-2018 08:30:00 11.9 C 92 % 10.64 C
1832 12-09-2018 08:35:00 12 C 92 % 10.74 C
1833 12-09-2018 08:40:00 12.1 C 92 % 10.84 C
1834 12-09-2018 08:45:00 12.2 C 92 % 10.94 C
1835 12-09-2018 08:50:00 12.3 C 92 % 11.04 C
1836 12-09-2018 08:55:00 12.4 C 92 % 11.14 C
1837 12-09-2018 09:00:00 12.6 C 92 % 11.34 C
1838 12-09-2018 09:05:00 12.7 C 91 % 11.27 C
1839 12-09-2018 09:10:00 12.8 C 91 % 11.37 C
1840 12-09-2018 09:15:00 12.9 C 91 % 11.47 C
1841 12-09-2018 09:20:00 13.1 C 90 % 11.5 C
1842 12-09-2018 09:25:00 13.2 C 90 % 11.6 C
1843 12-09-2018 09:30:00 13.3 C 90 % 11.7 C
1844 12-09-2018 09:35:00 13.4 C 90 % 11.79 C
1845 12-09-2018 09:40:00 13.5 C 90 % 11.89 C
1846 12-09-2018 09:45:00 13.7 C 90 % 12.09 C
1847 12-09-2018 09:50:00 14 C 89 % 12.22 C
1848 12-09-2018 09:55:00 14.3 C 88 % 12.34 C
1849 12-09-2018 10:00:00 14.7 C 87 % 12.56 C
1850 12-09-2018 10:05:00 15 C 86 % 12.68 C
Sensor: Nr:Datum:Temp:Feuchte:Taupunkt:
Aussen-T/F 1851 12-09-2018 10:10:00 15.4 C 85 % 12.89 C
1852 12-09-2018 10:15:00 15.8 C 84 % 13.1 C
1853 12-09-2018 10:20:00 16 C 82 % 12.93 C
1854 12-09-2018 10:25:00 16.3 C 82 % 13.22 C
1855 12-09-2018 10:30:00 16.6 C 81 % 13.33 C
1856 12-09-2018 10:35:00 16.9 C 79 % 13.24 C
1857 12-09-2018 10:40:00 17.3 C 77 % 13.23 C
1858 12-09-2018 10:45:00 17.8 C 74 % 13.11 C
1859 12-09-2018 10:50:00 18.3 C 73 % 13.38 C
1860 12-09-2018 10:55:00 18.7 C 72 % 13.55 C
1861 12-09-2018 11:00:00 19.1 C 71 % 13.72 C
1862 12-09-2018 11:05:00 19.3 C 70 % 13.69 C
1863 12-09-2018 11:10:00 19.6 C 70 % 13.98 C
1864 12-09-2018 11:15:00 19.9 C 68 % 13.82 C
1865 12-09-2018 11:20:00 20.2 C 67 % 13.88 C
1866 12-09-2018 11:25:00 20.4 C 66 % 13.84 C
1867 12-09-2018 11:30:00 20.6 C 65 % 13.79 C
1868 12-09-2018 11:35:00 20.8 C 64 % 13.74 C
1869 12-09-2018 11:40:00 21 C 66 % 14.41 C
1870 12-09-2018 11:45:00 21.2 C 62 % 13.63 C
1871 12-09-2018 11:50:00 21.4 C 61 % 13.57 C
1872 12-09-2018 11:55:00 21.8 C 61 % 13.95 C
1873 12-09-2018 12:00:00 22.2 C 61 % 14.32 C
1874 12-09-2018 12:05:00 22.4 C 60 % 14.26 C
1875 12-09-2018 12:10:00 22.4 C 60 % 14.26 C
Sensor: Nr:Datum:Temp:Feuchte:Taupunkt:
Aussen-T/F 1876 12-09-2018 12:15:00 22.6 C 59 % 14.18 C
1877 12-09-2018 12:20:00 22.7 C 59 % 14.28 C
1878 12-09-2018 12:25:00 22.8 C 58 % 14.11 C
1879 12-09-2018 12:30:00 23 C 57 % 14.03 C
1880 12-09-2018 12:35:00 23.1 C 57 % 14.12 C
1881 12-09-2018 12:40:00 23.3 C 56 % 14.03 C
1882 12-09-2018 12:45:00 23.6 C 56 % 14.31 C
1883 12-09-2018 12:50:00 23.7 C 55 % 14.13 C
1884 12-09-2018 12:55:00 23.9 C 55 % 14.31 C
1885 12-09-2018 13:00:00 24.1 C 54 % 14.21 C
1886 12-09-2018 13:05:00 24.2 C 53 % 14.02 C
1887 12-09-2018 13:10:00 24.3 C 53 % 14.11 C
1888 12-09-2018 13:15:00 24.4 C 52 % 13.91 C
1889 12-09-2018 13:20:00 24.6 C 52 % 14.09 C
1890 12-09-2018 13:25:00 24.7 C 52 % 14.19 C
1891 12-09-2018 13:30:00 24.8 C 51 % 13.98 C
1892 12-09-2018 13:35:00 24.9 C 51 % 14.07 C
1893 12-09-2018 13:40:00 25.1 C 51 % 14.25 C
1894 12-09-2018 13:45:00 25.2 C 50 % 14.04 C
1895 12-09-2018 13:50:00 25.3 C 50 % 14.13 C
1896 12-09-2018 13:55:00 25.4 C 49 % 13.91 C
1897 12-09-2018 14:00:00 25.6 C 50 % 14.41 C
1898 12-09-2018 14:05:00 25.8 C 49 % 14.28 C
1899 12-09-2018 14:10:00 25.9 C 48 % 14.05 C
1900 12-09-2018 14:15:00 26.1 C 48 % 14.23 C
Sensor: Nr:Datum:Temp:Feuchte:Taupunkt:
Aussen-T/F 1901 12-09-2018 14:20:00 26.2 C 47 % 14 C
1902 12-09-2018 14:25:00 26.3 C 48 % 14.42 C
1903 12-09-2018 14:30:00 26.4 C 48 % 14.51 C
1904 12-09-2018 14:35:00 26.6 C 47 % 14.36 C
1905 12-09-2018 14:40:00 26.7 C 46 % 14.12 C
1906 12-09-2018 14:45:00 26.8 C 46 % 14.21 C
1907 12-09-2018 14:50:00 26.9 C 46 % 14.3 C
1908 12-09-2018 14:55:00 27.1 C 44 % 13.8 C
1909 12-09-2018 15:00:00 27.1 C 45 % 14.15 C
1910 12-09-2018 15:05:00 27.2 C 46 % 14.58 C
1911 12-09-2018 15:10:00 27.2 C 45 % 14.24 C
1912 12-09-2018 15:15:00 27.3 C 45 % 14.33 C
1913 12-09-2018 15:20:00 27.3 C 45 % 14.33 C
1914 12-09-2018 15:25:00 27.3 C 45 % 14.33 C
1915 12-09-2018 15:30:00 27.3 C 45 % 14.33 C
1916 12-09-2018 15:35:00 27.3 C 46 % 14.67 C
1917 12-09-2018 15:40:00 27.2 C 46 % 14.58 C
1918 12-09-2018 15:45:00 27.3 C 45 % 14.33 C
1919 12-09-2018 15:50:00 27.3 C 45 % 14.33 C
1920 12-09-2018 15:55:00 27.3 C 45 % 14.33 C
1921 12-09-2018 16:00:00 27.3 C 46 % 14.67 C
1922 12-09-2018 16:05:00 27.4 C 46 % 14.76 C
1923 12-09-2018 16:10:00 27.5 C 46 % 14.85 C
1924 12-09-2018 16:15:00 27.6 C 45 % 14.6 C
1925 12-09-2018 16:20:00 27.6 C 46 % 14.94 C
Sensor: Nr:Datum:Temp:Feuchte:Taupunkt:
Aussen-T/F 1926 12-09-2018 16:25:00 27.7 C 45 % 14.69 C
1927 12-09-2018 16:30:00 27.8 C 45 % 14.78 C
1928 12-09-2018 16:35:00 27.8 C 45 % 14.78 C
1929 12-09-2018 16:40:00 27.9 C 45 % 14.87 C
1930 12-09-2018 16:45:00 28.1 C 45 % 15.05 C
1931 12-09-2018 16:50:00 28.3 C 44 % 14.88 C
1932 12-09-2018 16:55:00 28.6 C 44 % 15.15 C
1933 12-09-2018 17:00:00 29 C 42 % 14.79 C
1934 12-09-2018 17:05:00 29.1 C 43 % 15.24 C
1935 12-09-2018 17:10:00 29.3 C 42 % 15.06 C
1936 12-09-2018 17:15:00 29.4 C 42 % 15.15 C
1937 12-09-2018 17:20:00 29.2 C 43 % 15.33 C
1938 12-09-2018 17:25:00 29.1 C 43 % 15.24 C
1939 12-09-2018 17:30:00 29.2 C 44 % 15.69 C
1940 12-09-2018 17:35:00 29.3 C 43 % 15.42 C
1941 12-09-2018 17:40:00 29.2 C 44 % 15.69 C
1942 12-09-2018 17:45:00 29.1 C 44 % 15.6 C
1943 12-09-2018 17:50:00 29.1 C 44 % 15.6 C
1944 12-09-2018 17:55:00 29.3 C 43 % 15.42 C
1945 12-09-2018 18:00:00 29.2 C 44 % 15.69 C
1946 12-09-2018 18:05:00 29.1 C 43 % 15.24 C
1947 12-09-2018 18:10:00 29.1 C 45 % 15.95 C
1948 12-09-2018 18:15:00 28.9 C 44 % 15.42 C
1949 12-09-2018 18:20:00 28.6 C 45 % 15.5 C
1950 12-09-2018 18:25:00 28.3 C 45 % 15.23 C
Sensor: Nr:Datum:Temp:Feuchte:Taupunkt:
Aussen-T/F 1951 12-09-2018 18:30:00 28.1 C 45 % 15.05 C
1952 12-09-2018 18:35:00 27.9 C 46 % 15.21 C
1953 12-09-2018 18:40:00 27.7 C 47 % 15.36 C
1954 12-09-2018 18:45:00 27.2 C 47 % 14.91 C
1955 12-09-2018 18:50:00 26.8 C 47 % 14.55 C
1956 12-09-2018 18:55:00 26.5 C 48 % 14.6 C
1957 12-09-2018 19:00:00 26.2 C 49 % 14.64 C
1958 12-09-2018 19:05:00 26 C 49 % 14.46 C
1959 12-09-2018 19:10:00 25.8 C 49 % 14.28 C
1960 12-09-2018 19:15:00 25.6 C 50 % 14.41 C
1961 12-09-2018 19:20:00 25.4 C 53 % 15.13 C
1962 12-09-2018 19:25:00 24.9 C 56 % 15.52 C
1963 12-09-2018 19:30:00 24.4 C 59 % 15.87 C
1964 12-09-2018 19:35:00 24 C 60 % 15.76 C
1965 12-09-2018 19:40:00 23.7 C 62 % 15.99 C
1966 12-09-2018 19:45:00 23.4 C 63 % 15.96 C
1967 12-09-2018 19:50:00 23.1 C 65 % 16.16 C
1968 12-09-2018 19:55:00 22.7 C 66 % 16.02 C
1969 12-09-2018 20:00:00 22.3 C 68 % 16.11 C
1970 12-09-2018 20:05:00 21.9 C 69 % 15.96 C
1971 12-09-2018 20:10:00 21.7 C 70 % 15.99 C
1972 12-09-2018 20:15:00 21.4 C 71 % 15.93 C
1973 12-09-2018 20:20:00 21.2 C 72 % 15.95 C
1974 12-09-2018 20:25:00 21 C 73 % 15.98 C
1975 12-09-2018 20:30:00 20.8 C 73 % 15.78 C
Sensor: Nr:Datum:Temp:Feuchte:Taupunkt:
Aussen-T/F 1976 12-09-2018 20:35:00 20.6 C 74 % 15.8 C
1977 12-09-2018 20:40:00 20.4 C 75 % 15.82 C
1978 12-09-2018 20:45:00 20.3 C 75 % 15.72 C
1979 12-09-2018 20:50:00 20.2 C 76 % 15.83 C
1980 12-09-2018 20:55:00 20.1 C 76 % 15.74 C
1981 12-09-2018 21:00:00 19.9 C 77 % 15.75 C
1982 12-09-2018 21:05:00 19.8 C 77 % 15.65 C
1983 12-09-2018 21:10:00 19.6 C 78 % 15.66 C
1984 12-09-2018 21:15:00 19.6 C 78 % 15.66 C
1985 12-09-2018 21:20:00 19.4 C 78 % 15.47 C
1986 12-09-2018 21:25:00 19.3 C 79 % 15.57 C
1987 12-09-2018 21:30:00 19.2 C 79 % 15.47 C
1988 12-09-2018 21:35:00 19.1 C 79 % 15.37 C
1989 12-09-2018 21:40:00 19 C 79 % 15.28 C
1990 12-09-2018 21:45:00 18.9 C 79 % 15.18 C
1991 12-09-2018 21:50:00 18.7 C 80 % 15.18 C
1992 12-09-2018 21:55:00 18.7 C 81 % 15.37 C
1993 12-09-2018 22:00:00 18.6 C 81 % 15.28 C
1994 12-09-2018 22:05:00 18.5 C 81 % 15.18 C
1995 12-09-2018 22:10:00 18.4 C 81 % 15.08 C
1996 12-09-2018 22:15:00 18.3 C 81 % 14.98 C
1997 12-09-2018 22:20:00 18.3 C 82 % 15.17 C
1998 12-09-2018 22:25:00 18.3 C 82 % 15.17 C
1999 12-09-2018 22:30:00 18.2 C 82 % 15.08 C
2000 12-09-2018 22:35:00 18.2 C 82 % 15.08 C
Sensor: Nr:Datum:Temp:Feuchte:Taupunkt:
Aussen-T/F 2001 12-09-2018 22:40:00 18.1 C 82 % 14.98 C
2002 12-09-2018 22:45:00 18 C 82 % 14.88 C
2003 12-09-2018 22:50:00 17.9 C 82 % 14.78 C
2004 12-09-2018 22:55:00 17.8 C 82 % 14.69 C
2005 12-09-2018 23:00:00 17.8 C 82 % 14.69 C
2006 12-09-2018 23:05:00 17.7 C 82 % 14.59 C
2007 12-09-2018 23:10:00 17.6 C 82 % 14.49 C
2008 12-09-2018 23:15:00 17.4 C 83 % 14.48 C
2009 12-09-2018 23:20:00 17.3 C 83 % 14.39 C
2010 12-09-2018 23:25:00 17.3 C 83 % 14.39 C
2011 12-09-2018 23:30:00 17.2 C 83 % 14.29 C
2012 12-09-2018 23:35:00 17.2 C 83 % 14.29 C
2013 12-09-2018 23:40:00 17.1 C 84 % 14.38 C
2014 12-09-2018 23:45:00 17.1 C 83 % 14.19 C
2015 12-09-2018 23:50:00 17 C 84 % 14.28 C
2016 12-09-2018 23:55:00 16.9 C 84 % 14.18 C
2017 13-09-2018 00:00:00 16.9 C 84 % 14.18 C
2018 13-09-2018 00:05:00 16.9 C 84 % 14.18 C
2019 13-09-2018 00:10:00 16.8 C 84 % 14.08 C
2020 13-09-2018 00:15:00 16.8 C 84 % 14.08 C
2021 13-09-2018 00:20:00 16.8 C 84 % 14.08 C
2022 13-09-2018 00:25:00 16.8 C 84 % 14.08 C
2023 13-09-2018 00:30:00 16.8 C 84 % 14.08 C
2024 13-09-2018 00:35:00 16.7 C 84 % 13.98 C
2025 13-09-2018 00:40:00 16.7 C 84 % 13.98 C
Sensor: Nr:Datum:Temp:Feuchte:Taupunkt:
Aussen-T/F 2026 13-09-2018 00:45:00 16.7 C 84 % 13.98 C
2027 13-09-2018 00:50:00 16.6 C 84 % 13.89 C
2028 13-09-2018 00:55:00 16.5 C 84 % 13.79 C
2029 13-09-2018 01:00:00 16.4 C 84 % 13.69 C
2030 13-09-2018 01:05:00 16.3 C 85 % 13.77 C
2031 13-09-2018 01:10:00 16.3 C 85 % 13.77 C
2032 13-09-2018 01:15:00 16.3 C 85 % 13.77 C
2033 13-09-2018 01:20:00 16.3 C 85 % 13.77 C
2034 13-09-2018 01:25:00 16.4 C 85 % 13.87 C
2035 13-09-2018 01:30:00 16.4 C 85 % 13.87 C
2036 13-09-2018 01:35:00 16.4 C 85 % 13.87 C
2037 13-09-2018 01:40:00 16.3 C 85 % 13.77 C
2038 13-09-2018 01:45:00 16.3 C 85 % 13.77 C
2039 13-09-2018 01:50:00 16.3 C 85 % 13.77 C
2040 13-09-2018 01:55:00 16.3 C 85 % 13.77 C
2041 13-09-2018 02:00:00 16.3 C 85 % 13.77 C
2042 13-09-2018 02:05:00 16.2 C 85 % 13.68 C
2043 13-09-2018 02:10:00 16.2 C 85 % 13.68 C
2044 13-09-2018 02:15:00 16.1 C 85 % 13.58 C
2045 13-09-2018 02:20:00 16.1 C 85 % 13.58 C
2046 13-09-2018 02:25:00 16.1 C 85 % 13.58 C
2047 13-09-2018 02:30:00 16.1 C 85 % 13.58 C
2048 13-09-2018 02:35:00 16.1 C 85 % 13.58 C
2049 13-09-2018 02:40:00 16 C 85 % 13.48 C
2050 13-09-2018 02:45:00 16 C 85 % 13.48 C
Sensor: Nr:Datum:Temp:Feuchte:Taupunkt:
Aussen-T/F 2051 13-09-2018 02:50:00 15.9 C 85 % 13.38 C
2052 13-09-2018 02:55:00 15.9 C 85 % 13.38 C
2053 13-09-2018 03:00:00 15.9 C 85 % 13.38 C
2054 13-09-2018 03:05:00 15.9 C 85 % 13.38 C
2055 13-09-2018 03:10:00 15.9 C 85 % 13.38 C
2056 13-09-2018 03:15:00 15.8 C 85 % 13.28 C
2057 13-09-2018 03:20:00 15.8 C 85 % 13.28 C
2058 13-09-2018 03:25:00 15.8 C 86 % 13.46 C
2059 13-09-2018 03:30:00 15.8 C 86 % 13.46 C
2060 13-09-2018 03:35:00 15.8 C 86 % 13.46 C
2061 13-09-2018 03:40:00 15.8 C 86 % 13.46 C
2062 13-09-2018 03:45:00 15.8 C 86 % 13.46 C
2063 13-09-2018 03:50:00 15.8 C 86 % 13.46 C
2064 13-09-2018 03:55:00 15.8 C 86 % 13.46 C
2065 13-09-2018 04:00:00 15.8 C 86 % 13.46 C
2066 13-09-2018 04:05:00 15.8 C 86 % 13.46 C
2067 13-09-2018 04:10:00 15.8 C 86 % 13.46 C
2068 13-09-2018 04:15:00 15.8 C 86 % 13.46 C
2069 13-09-2018 04:20:00 15.8 C 86 % 13.46 C
2070 13-09-2018 04:25:00 15.8 C 86 % 13.46 C
2071 13-09-2018 04:30:00 15.8 C 86 % 13.46 C
2072 13-09-2018 04:35:00 15.8 C 86 % 13.46 C
2073 13-09-2018 04:40:00 15.8 C 86 % 13.46 C
2074 13-09-2018 04:45:00 15.8 C 86 % 13.46 C
2075 13-09-2018 04:50:00 15.8 C 86 % 13.46 C
Sensor: Nr:Datum:Temp:Feuchte:Taupunkt:
Aussen-T/F 2076 13-09-2018 04:55:00 15.8 C 86 % 13.46 C
2077 13-09-2018 05:00:00 15.8 C 86 % 13.46 C
2078 13-09-2018 05:05:00 15.8 C 86 % 13.46 C
2079 13-09-2018 05:10:00 15.8 C 86 % 13.46 C
2080 13-09-2018 05:15:00 15.8 C 86 % 13.46 C
2081 13-09-2018 05:20:00 15.8 C 86 % 13.46 C
2082 13-09-2018 05:25:00 15.8 C 86 % 13.46 C
2083 13-09-2018 05:30:00 15.8 C 86 % 13.46 C
2084 13-09-2018 05:35:00 15.8 C 86 % 13.46 C
2085 13-09-2018 05:40:00 15.8 C 86 % 13.46 C
2086 13-09-2018 05:45:00 15.8 C 86 % 13.46 C
2087 13-09-2018 05:50:00 15.8 C 86 % 13.46 C
2088 13-09-2018 05:55:00 15.8 C 86 % 13.46 C
2089 13-09-2018 06:00:00 15.8 C 86 % 13.46 C
2090 13-09-2018 06:05:00 15.8 C 86 % 13.46 C
2091 13-09-2018 06:10:00 15.8 C 86 % 13.46 C
2092 13-09-2018 06:15:00 15.8 C 86 % 13.46 C
2093 13-09-2018 06:20:00 15.8 C 86 % 13.46 C
2094 13-09-2018 06:25:00 15.7 C 86 % 13.37 C
2095 13-09-2018 06:30:00 15.7 C 86 % 13.37 C
2096 13-09-2018 06:35:00 15.6 C 86 % 13.27 C
2097 13-09-2018 06:40:00 15.6 C 86 % 13.27 C
2098 13-09-2018 06:45:00 15.5 C 86 % 13.17 C
2099 13-09-2018 06:50:00 15.4 C 86 % 13.07 C
2100 13-09-2018 06:55:00 15.4 C 86 % 13.07 C
Sensor: Nr:Datum:Temp:Feuchte:Taupunkt:
Aussen-T/F 2101 13-09-2018 07:00:00 15.3 C 86 % 12.97 C
2102 13-09-2018 07:05:00 15.3 C 87 % 13.15 C
2103 13-09-2018 07:10:00 15.3 C 87 % 13.15 C
2104 13-09-2018 07:15:00 15.2 C 87 % 13.05 C
2105 13-09-2018 07:20:00 15.2 C 87 % 13.05 C
2106 13-09-2018 07:25:00 15.2 C 88 % 13.23 C
2107 13-09-2018 07:30:00 15.1 C 88 % 13.13 C
2108 13-09-2018 07:35:00 15.1 C 88 % 13.13 C
2109 13-09-2018 07:40:00 15.2 C 88 % 13.23 C
2110 13-09-2018 07:45:00 15.2 C 88 % 13.23 C
2111 13-09-2018 07:50:00 15.3 C 89 % 13.5 C
2112 13-09-2018 07:55:00 15.3 C 89 % 13.5 C
2113 13-09-2018 08:00:00 15.4 C 88 % 13.42 C
2114 13-09-2018 08:05:00 15.4 C 88 % 13.42 C
2115 13-09-2018 08:10:00 15.5 C 88 % 13.52 C
2116 13-09-2018 08:15:00 15.6 C 88 % 13.62 C
2117 13-09-2018 08:20:00 15.6 C 89 % 13.79 C
2118 13-09-2018 08:25:00 15.6 C 88 % 13.62 C
2119 13-09-2018 08:30:00 15.6 C 88 % 13.62 C
2120 13-09-2018 08:35:00 15.6 C 88 % 13.62 C
2121 13-09-2018 08:40:00 15.6 C 88 % 13.62 C
2122 13-09-2018 08:45:00 15.6 C 88 % 13.62 C
2123 13-09-2018 08:50:00 15.6 C 88 % 13.62 C
2124 13-09-2018 08:55:00 15.6 C 88 % 13.62 C
2125 13-09-2018 09:00:00 15.6 C 88 % 13.62 C
Sensor: Nr:Datum:Temp:Feuchte:Taupunkt:
Aussen-T/F 2126 13-09-2018 09:05:00 15.5 C 88 % 13.52 C
2127 13-09-2018 09:10:00 15.5 C 89 % 13.7 C
2128 13-09-2018 09:15:00 15.4 C 89 % 13.6 C
2129 13-09-2018 09:20:00 15.5 C 90 % 13.87 C
2130 13-09-2018 09:25:00 15.5 C 90 % 13.87 C
2131 13-09-2018 09:30:00 15.5 C 90 % 13.87 C
2132 13-09-2018 09:35:00 15.5 C 90 % 13.87 C
2133 13-09-2018 09:40:00 15.5 C 90 % 13.87 C
2134 13-09-2018 09:45:00 15.5 C 90 % 13.87 C
2135 13-09-2018 09:50:00 15.5 C 90 % 13.87 C
2136 13-09-2018 09:55:00 15.6 C 90 % 13.97 C
2137 13-09-2018 10:00:00 15.6 C 91 % 14.14 C
2138 13-09-2018 10:05:00 15.7 C 91 % 14.24 C
2139 13-09-2018 10:10:00 15.7 C 91 % 14.24 C
2140 13-09-2018 10:15:00 15.7 C 91 % 14.24 C
2141 13-09-2018 10:20:00 15.7 C 91 % 14.24 C
2142 13-09-2018 10:25:00 15.7 C 91 % 14.24 C
2143 13-09-2018 10:30:00 15.8 C 91 % 14.33 C
2144 13-09-2018 10:35:00 15.8 C 91 % 14.33 C
2145 13-09-2018 10:40:00 15.8 C 91 % 14.33 C
2146 13-09-2018 10:45:00 15.8 C 91 % 14.33 C
2147 13-09-2018 10:50:00 15.9 C 91 % 14.43 C
2148 13-09-2018 10:55:00 15.9 C 91 % 14.43 C
2149 13-09-2018 11:00:00 15.9 C 91 % 14.43 C
2150 13-09-2018 11:05:00 15.9 C 90 % 14.26 C
Sensor: Nr:Datum:Temp:Feuchte:Taupunkt:
Aussen-T/F 2151 13-09-2018 11:10:00 16 C 90 % 14.36 C
2152 13-09-2018 11:15:00 16 C 90 % 14.36 C
2153 13-09-2018 11:20:00 16.1 C 90 % 14.46 C
2154 13-09-2018 11:25:00 16.1 C 90 % 14.46 C
2155 13-09-2018 11:30:00 16.2 C 90 % 14.56 C
2156 13-09-2018 11:35:00 16.2 C 90 % 14.56 C
2157 13-09-2018 11:40:00 16.3 C 89 % 14.48 C
2158 13-09-2018 11:45:00 16.3 C 89 % 14.48 C
2159 13-09-2018 11:50:00 16.4 C 89 % 14.58 C
2160 13-09-2018 11:55:00 16.5 C 89 % 14.68 C
2161 13-09-2018 12:00:00 16.6 C 89 % 14.78 C
2162 13-09-2018 12:05:00 16.7 C 89 % 14.88 C
2163 13-09-2018 12:10:00 16.8 C 89 % 14.98 C
2164 13-09-2018 12:15:00 17 C 89 % 15.17 C
2165 13-09-2018 12:20:00 17.1 C 88 % 15.1 C
2166 13-09-2018 12:25:00 17.1 C 87 % 14.92 C
2167 13-09-2018 12:30:00 17.1 C 86 % 14.74 C
2168 13-09-2018 12:35:00 17.2 C 86 % 14.84 C
2169 13-09-2018 12:40:00 17.2 C 86 % 14.84 C
2170 13-09-2018 12:45:00 17.3 C 86 % 14.94 C
2171 13-09-2018 12:50:00 17.3 C 86 % 14.94 C
2172 13-09-2018 12:55:00 17.4 C 85 % 14.85 C
2173 13-09-2018 13:00:00 17.4 C 85 % 14.85 C
2174 13-09-2018 13:05:00 17.4 C 85 % 14.85 C
2175 13-09-2018 13:10:00 17.4 C 85 % 14.85 C
Sensor: Nr:Datum:Temp:Feuchte:Taupunkt:
Aussen-T/F 2176 13-09-2018 13:15:00 17.4 C 85 % 14.85 C
2177 13-09-2018 13:20:00 17.4 C 85 % 14.85 C
2178 13-09-2018 13:25:00 17.3 C 85 % 14.76 C
2179 13-09-2018 13:30:00 17.3 C 85 % 14.76 C
2180 13-09-2018 13:35:00 17.3 C 85 % 14.76 C
2181 13-09-2018 13:40:00 17.2 C 85 % 14.66 C
2182 13-09-2018 13:45:00 17.2 C 85 % 14.66 C
2183 13-09-2018 13:50:00 17.2 C 85 % 14.66 C
2184 13-09-2018 13:55:00 17.1 C 85 % 14.56 C
2185 13-09-2018 14:00:00 17.1 C 85 % 14.56 C
2186 13-09-2018 14:05:00 17.1 C 85 % 14.56 C
2187 13-09-2018 14:10:00 17.1 C 85 % 14.56 C
2188 13-09-2018 14:15:00 17.1 C 85 % 14.56 C
2189 13-09-2018 14:20:00 17.1 C 85 % 14.56 C
2190 13-09-2018 14:25:00 17.1 C 85 % 14.56 C
2191 13-09-2018 14:30:00 17.3 C 85 % 14.76 C
2192 13-09-2018 14:35:00 17.4 C 84 % 14.67 C
2193 13-09-2018 14:40:00 17.5 C 83 % 14.58 C
2194 13-09-2018 14:45:00 17.6 C 84 % 14.87 C
2195 13-09-2018 14:50:00 17.7 C 83 % 14.78 C
2196 13-09-2018 14:55:00 17.7 C 83 % 14.78 C
2197 13-09-2018 15:00:00 17.7 C 82 % 14.59 C
2198 13-09-2018 15:05:00 17.7 C 83 % 14.78 C
2199 13-09-2018 15:10:00 17.7 C 82 % 14.59 C
2200 13-09-2018 15:15:00 17.7 C 83 % 14.78 C
Sensor: Nr:Datum:Temp:Feuchte:Taupunkt:
Aussen-T/F 2201 13-09-2018 15:20:00 17.7 C 83 % 14.78 C
2202 13-09-2018 15:25:00 17.6 C 83 % 14.68 C
2203 13-09-2018 15:30:00 17.6 C 83 % 14.68 C
2204 13-09-2018 15:35:00 17.5 C 83 % 14.58 C
2205 13-09-2018 15:40:00 17.3 C 83 % 14.39 C
2206 13-09-2018 15:45:00 17.2 C 84 % 14.47 C
2207 13-09-2018 15:50:00 17.2 C 84 % 14.47 C
2208 13-09-2018 15:55:00 17.2 C 84 % 14.47 C
2209 13-09-2018 16:00:00 17.1 C 84 % 14.38 C
2210 13-09-2018 16:05:00 17.1 C 85 % 14.56 C
2211 13-09-2018 16:10:00 17.1 C 85 % 14.56 C
2212 13-09-2018 16:15:00 17 C 85 % 14.46 C
2213 13-09-2018 16:20:00 17 C 85 % 14.46 C
2214 13-09-2018 16:25:00 16.9 C 85 % 14.36 C
2215 13-09-2018 16:30:00 16.9 C 85 % 14.36 C
2216 13-09-2018 16:35:00 16.8 C 85 % 14.26 C
2217 13-09-2018 16:40:00 16.8 C 85 % 14.26 C
2218 13-09-2018 16:45:00 16.8 C 85 % 14.26 C
2219 13-09-2018 16:50:00 16.8 C 85 % 14.26 C
2220 13-09-2018 16:55:00 16.8 C 85 % 14.26 C
2221 13-09-2018 17:00:00 16.8 C 85 % 14.26 C
2222 13-09-2018 17:05:00 16.8 C 85 % 14.26 C
2223 13-09-2018 17:10:00 16.8 C 85 % 14.26 C
2224 13-09-2018 17:15:00 16.8 C 85 % 14.26 C
2225 13-09-2018 17:20:00 16.8 C 85 % 14.26 C
Sensor: Nr:Datum:Temp:Feuchte:Taupunkt:
Aussen-T/F 2226 13-09-2018 17:25:00 16.8 C 85 % 14.26 C
2227 13-09-2018 17:30:00 16.8 C 85 % 14.26 C
2228 13-09-2018 17:35:00 16.8 C 85 % 14.26 C
2229 13-09-2018 17:40:00 16.9 C 85 % 14.36 C
2230 13-09-2018 17:45:00 16.9 C 85 % 14.36 C
2231 13-09-2018 17:50:00 16.9 C 85 % 14.36 C
2232 13-09-2018 17:55:00 16.9 C 85 % 14.36 C
2233 13-09-2018 18:00:00 17 C 84 % 14.28 C
2234 13-09-2018 18:05:00 17 C 84 % 14.28 C
2235 13-09-2018 18:10:00 17.1 C 84 % 14.38 C
2236 13-09-2018 18:15:00 17.1 C 84 % 14.38 C
2237 13-09-2018 18:20:00 17.1 C 83 % 14.19 C
2238 13-09-2018 18:25:00 17.1 C 83 % 14.19 C
2239 13-09-2018 18:30:00 17.1 C 83 % 14.19 C
2240 13-09-2018 18:35:00 17.1 C 83 % 14.19 C
2241 13-09-2018 18:40:00 17.1 C 83 % 14.19 C
2242 13-09-2018 18:45:00 17.1 C 83 % 14.19 C
2243 13-09-2018 18:50:00 17.1 C 83 % 14.19 C
2244 13-09-2018 18:55:00 17 C 83 % 14.09 C
2245 13-09-2018 19:00:00 17 C 83 % 14.09 C
2246 13-09-2018 19:05:00 17 C 83 % 14.09 C
2247 13-09-2018 19:10:00 16.9 C 83 % 14 C
2248 13-09-2018 19:15:00 16.9 C 84 % 14.18 C
2249 13-09-2018 19:20:00 16.9 C 83 % 14 C
2250 13-09-2018 19:25:00 16.9 C 83 % 14 C
Sensor: Nr:Datum:Temp:Feuchte:Taupunkt:
Aussen-T/F 2251 13-09-2018 19:30:00 16.9 C 83 % 14 C
2252 13-09-2018 19:35:00 16.9 C 84 % 14.18 C
2253 13-09-2018 19:40:00 16.9 C 84 % 14.18 C
2254 13-09-2018 19:45:00 16.9 C 83 % 14 C
2255 13-09-2018 19:50:00 16.9 C 83 % 14 C
2256 13-09-2018 19:55:00 16.9 C 83 % 14 C
2257 13-09-2018 20:00:00 16.9 C 83 % 14 C
2258 13-09-2018 20:05:00 16.9 C 83 % 14 C
2259 13-09-2018 20:10:00 16.9 C 83 % 14 C
2260 13-09-2018 20:15:00 16.9 C 83 % 14 C
2261 13-09-2018 20:20:00 16.8 C 83 % 13.9 C
2262 13-09-2018 20:25:00 16.8 C 83 % 13.9 C
2263 13-09-2018 20:30:00 16.8 C 84 % 14.08 C
2264 13-09-2018 20:35:00 16.8 C 84 % 14.08 C
2265 13-09-2018 20:40:00 16.8 C 84 % 14.08 C
2266 13-09-2018 20:45:00 16.8 C 84 % 14.08 C
2267 13-09-2018 20:50:00 16.8 C 84 % 14.08 C
2268 13-09-2018 20:55:00 16.8 C 84 % 14.08 C
2269 13-09-2018 21:00:00 16.8 C 84 % 14.08 C
2270 13-09-2018 21:05:00 16.8 C 84 % 14.08 C
2271 13-09-2018 21:10:00 16.7 C 84 % 13.98 C
2272 13-09-2018 21:15:00 16.7 C 84 % 13.98 C
2273 13-09-2018 21:20:00 16.7 C 84 % 13.98 C
2274 13-09-2018 21:25:00 16.7 C 84 % 13.98 C
2275 13-09-2018 21:30:00 16.6 C 84 % 13.89 C
Sensor: Nr:Datum:Temp:Feuchte:Taupunkt:
Aussen-T/F 2276 13-09-2018 21:35:00 16.6 C 84 % 13.89 C
2277 13-09-2018 21:40:00 16.6 C 85 % 14.07 C
2278 13-09-2018 21:45:00 16.5 C 84 % 13.79 C
2279 13-09-2018 21:50:00 16.5 C 84 % 13.79 C
2280 13-09-2018 21:55:00 16.5 C 84 % 13.79 C
2281 13-09-2018 22:00:00 16.4 C 84 % 13.69 C
2282 13-09-2018 22:05:00 16.4 C 84 % 13.69 C
2283 13-09-2018 22:10:00 16.4 C 83 % 13.51 C
2284 13-09-2018 22:15:00 16.4 C 83 % 13.51 C
2285 13-09-2018 22:20:00 16.3 C 83 % 13.41 C
2286 13-09-2018 22:25:00 16.3 C 83 % 13.41 C
2287 13-09-2018 22:30:00 16.3 C 83 % 13.41 C
2288 13-09-2018 22:35:00 16.3 C 83 % 13.41 C
2289 13-09-2018 22:40:00 16.2 C 83 % 13.31 C
2290 13-09-2018 22:45:00 16.2 C 83 % 13.31 C
2291 13-09-2018 22:50:00 16.1 C 84 % 13.4 C
2292 13-09-2018 22:55:00 15.9 C 84 % 13.2 C
2293 13-09-2018 23:00:00 15.8 C 84 % 13.1 C
2294 13-09-2018 23:05:00 15.7 C 85 % 13.19 C
2295 13-09-2018 23:10:00 15.6 C 85 % 13.09 C
2296 13-09-2018 23:15:00 15.6 C 85 % 13.09 C
2297 13-09-2018 23:20:00 15.5 C 86 % 13.17 C
2298 13-09-2018 23:25:00 15.5 C 86 % 13.17 C
2299 13-09-2018 23:30:00 15.5 C 86 % 13.17 C
2300 13-09-2018 23:35:00 15.5 C 86 % 13.17 C
Sensor: Nr:Datum:Temp:Feuchte:Taupunkt:
Aussen-T/F 2301 13-09-2018 23:40:00 15.5 C 86 % 13.17 C
2302 13-09-2018 23:45:00 15.5 C 85 % 12.99 C
2303 13-09-2018 23:50:00 15.5 C 86 % 13.17 C
2304 13-09-2018 23:55:00 15.5 C 85 % 12.99 C
2305 14-09-2018 00:00:00 15.4 C 85 % 12.89 C
2306 14-09-2018 00:05:00 15.4 C 85 % 12.89 C
2307 14-09-2018 00:10:00 15.3 C 85 % 12.79 C
2308 14-09-2018 00:15:00 15.2 C 86 % 12.88 C
2309 14-09-2018 00:20:00 15.1 C 86 % 12.78 C
2310 14-09-2018 00:25:00 14.9 C 86 % 12.58 C
2311 14-09-2018 00:30:00 14.8 C 86 % 12.48 C
2312 14-09-2018 00:35:00 14.6 C 87 % 12.46 C
2313 14-09-2018 00:40:00 14.5 C 87 % 12.36 C
2314 14-09-2018 00:45:00 14.3 C 88 % 12.34 C
2315 14-09-2018 00:50:00 14.3 C 88 % 12.34 C
2316 14-09-2018 00:55:00 14.2 C 89 % 12.41 C
2317 14-09-2018 01:00:00 14.2 C 89 % 12.41 C
2318 14-09-2018 01:05:00 14.1 C 89 % 12.32 C
2319 14-09-2018 01:10:00 14.1 C 89 % 12.32 C
2320 14-09-2018 01:15:00 14.1 C 90 % 12.49 C
2321 14-09-2018 01:20:00 14.1 C 90 % 12.49 C
2322 14-09-2018 01:25:00 14.1 C 90 % 12.49 C
2323 14-09-2018 01:30:00 14.1 C 90 % 12.49 C
2324 14-09-2018 01:35:00 14.1 C 90 % 12.49 C
2325 14-09-2018 01:40:00 14.1 C 90 % 12.49 C
Sensor: Nr:Datum:Temp:Feuchte:Taupunkt:
Aussen-T/F 2326 14-09-2018 01:45:00 14.1 C 90 % 12.49 C
2327 14-09-2018 01:50:00 14.1 C 90 % 12.49 C
2328 14-09-2018 01:55:00 14.1 C 90 % 12.49 C
2329 14-09-2018 02:00:00 14.1 C 90 % 12.49 C
2330 14-09-2018 02:05:00 14.1 C 90 % 12.49 C
2331 14-09-2018 02:10:00 14.1 C 90 % 12.49 C
2332 14-09-2018 02:15:00 14.1 C 91 % 12.65 C
2333 14-09-2018 02:20:00 14.2 C 91 % 12.75 C
2334 14-09-2018 02:25:00 14.2 C 91 % 12.75 C
2335 14-09-2018 02:30:00 14.2 C 90 % 12.58 C
2336 14-09-2018 02:35:00 14.2 C 90 % 12.58 C
2337 14-09-2018 02:40:00 14.2 C 90 % 12.58 C
2338 14-09-2018 02:45:00 14.2 C 90 % 12.58 C
2339 14-09-2018 02:50:00 14.2 C 90 % 12.58 C
2340 14-09-2018 02:55:00 14.2 C 90 % 12.58 C
2341 14-09-2018 03:00:00 14.2 C 90 % 12.58 C
2342 14-09-2018 03:05:00 14.2 C 90 % 12.58 C
2343 14-09-2018 03:10:00 14.2 C 90 % 12.58 C
2344 14-09-2018 03:15:00 14.2 C 90 % 12.58 C
2345 14-09-2018 03:20:00 14.1 C 90 % 12.49 C
2346 14-09-2018 03:25:00 14.1 C 90 % 12.49 C
2347 14-09-2018 03:30:00 14.1 C 90 % 12.49 C
2348 14-09-2018 03:35:00 14.1 C 90 % 12.49 C
2349 14-09-2018 03:40:00 14.1 C 90 % 12.49 C
2350 14-09-2018 03:45:00 14.1 C 90 % 12.49 C
Sensor: Nr:Datum:Temp:Feuchte:Taupunkt:
Aussen-T/F 2351 14-09-2018 03:50:00 14.1 C 91 % 12.65 C
2352 14-09-2018 03:55:00 14.1 C 91 % 12.65 C
2353 14-09-2018 04:00:00 14.2 C 91 % 12.75 C
2354 14-09-2018 04:05:00 14.2 C 91 % 12.75 C
2355 14-09-2018 04:10:00 14.2 C 91 % 12.75 C
2356 14-09-2018 04:15:00 14.2 C 91 % 12.75 C
2357 14-09-2018 04:20:00 14.2 C 91 % 12.75 C
2358 14-09-2018 04:25:00 14.2 C 91 % 12.75 C
2359 14-09-2018 04:30:00 14.2 C 90 % 12.58 C
2360 14-09-2018 04:35:00 14.2 C 90 % 12.58 C
2361 14-09-2018 04:40:00 14.2 C 90 % 12.58 C
2362 14-09-2018 04:45:00 14.2 C 90 % 12.58 C
2363 14-09-2018 04:50:00 14.2 C 90 % 12.58 C
2364 14-09-2018 04:55:00 14.2 C 90 % 12.58 C
2365 14-09-2018 05:00:00 14.2 C 90 % 12.58 C
2366 14-09-2018 05:05:00 14.2 C 90 % 12.58 C
2367 14-09-2018 05:10:00 14.2 C 90 % 12.58 C
2368 14-09-2018 05:15:00 14.2 C 90 % 12.58 C
2369 14-09-2018 05:20:00 14.2 C 90 % 12.58 C
2370 14-09-2018 05:25:00 14.2 C 90 % 12.58 C
2371 14-09-2018 05:30:00 14.2 C 90 % 12.58 C
2372 14-09-2018 05:35:00 14.2 C 90 % 12.58 C
2373 14-09-2018 05:40:00 14.2 C 90 % 12.58 C
2374 14-09-2018 05:45:00 14.2 C 90 % 12.58 C
2375 14-09-2018 05:50:00 14.2 C 90 % 12.58 C
Sensor: Nr:Datum:Temp:Feuchte:Taupunkt:
Aussen-T/F 2376 14-09-2018 05:55:00 14.1 C 90 % 12.49 C
2377 14-09-2018 06:00:00 14.1 C 90 % 12.49 C
2378 14-09-2018 06:05:00 14.1 C 90 % 12.49 C
2379 14-09-2018 06:10:00 14 C 90 % 12.39 C
2380 14-09-2018 06:15:00 13.9 C 90 % 12.29 C
2381 14-09-2018 06:20:00 13.9 C 90 % 12.29 C
2382 14-09-2018 06:25:00 13.8 C 90 % 12.19 C
2383 14-09-2018 06:30:00 13.8 C 90 % 12.19 C
2384 14-09-2018 06:35:00 13.8 C 90 % 12.19 C
2385 14-09-2018 06:40:00 13.8 C 90 % 12.19 C
2386 14-09-2018 06:45:00 13.8 C 90 % 12.19 C
2387 14-09-2018 06:50:00 13.8 C 91 % 12.36 C
2388 14-09-2018 06:55:00 13.8 C 91 % 12.36 C
2389 14-09-2018 07:00:00 13.8 C 91 % 12.36 C
2390 14-09-2018 07:05:00 13.8 C 91 % 12.36 C
2391 14-09-2018 07:10:00 13.8 C 91 % 12.36 C
2392 14-09-2018 07:15:00 13.8 C 91 % 12.36 C
2393 14-09-2018 07:20:00 13.8 C 91 % 12.36 C
2394 14-09-2018 07:25:00 13.8 C 91 % 12.36 C
2395 14-09-2018 07:30:00 13.8 C 91 % 12.36 C
2396 14-09-2018 07:35:00 13.8 C 91 % 12.36 C
2397 14-09-2018 07:40:00 13.8 C 91 % 12.36 C
2398 14-09-2018 07:45:00 13.8 C 91 % 12.36 C
2399 14-09-2018 07:50:00 13.9 C 91 % 12.46 C
2400 14-09-2018 07:55:00 13.9 C 91 % 12.46 C
Sensor: Nr:Datum:Temp:Feuchte:Taupunkt:
Aussen-T/F 2401 14-09-2018 08:00:00 13.9 C 91 % 12.46 C
2402 14-09-2018 08:05:00 14 C 91 % 12.56 C
2403 14-09-2018 08:10:00 14 C 91 % 12.56 C
2404 14-09-2018 08:15:00 14.1 C 91 % 12.65 C
2405 14-09-2018 08:20:00 14.1 C 90 % 12.49 C
2406 14-09-2018 08:25:00 14.2 C 90 % 12.58 C
2407 14-09-2018 08:30:00 14.2 C 89 % 12.41 C
2408 14-09-2018 08:35:00 14.3 C 89 % 12.51 C
2409 14-09-2018 08:40:00 14.4 C 88 % 12.44 C
2410 14-09-2018 08:45:00 14.5 C 87 % 12.36 C
2411 14-09-2018 08:50:00 14.6 C 87 % 12.46 C
2412 14-09-2018 08:55:00 14.7 C 86 % 12.38 C
2413 14-09-2018 09:00:00 14.7 C 85 % 12.21 C
2414 14-09-2018 09:05:00 14.8 C 85 % 12.3 C
2415 14-09-2018 09:10:00 14.9 C 85 % 12.4 C
2416 14-09-2018 09:15:00 14.9 C 83 % 12.04 C
2417 14-09-2018 09:20:00 15.1 C 82 % 12.05 C
2418 14-09-2018 09:25:00 15.1 C 83 % 12.24 C
2419 14-09-2018 09:30:00 15.2 C 82 % 12.15 C
2420 14-09-2018 09:35:00 15.2 C 83 % 12.33 C
2421 14-09-2018 09:40:00 15.3 C 83 % 12.43 C
2422 14-09-2018 09:45:00 15.4 C 83 % 12.53 C
2423 14-09-2018 09:50:00 15.4 C 82 % 12.35 C
2424 14-09-2018 09:55:00 15.4 C 81 % 12.16 C
2425 14-09-2018 10:00:00 15.4 C 81 % 12.16 C
Sensor: Nr:Datum:Temp:Feuchte:Taupunkt:
Aussen-T/F 2426 14-09-2018 10:05:00 15.4 C 81 % 12.16 C
2427 14-09-2018 10:10:00 15.4 C 80 % 11.97 C
2428 14-09-2018 10:15:00 15.4 C 80 % 11.97 C
2429 14-09-2018 10:20:00 15.4 C 80 % 11.97 C
2430 14-09-2018 10:25:00 15.6 C 81 % 12.35 C
2431 14-09-2018 10:30:00 15.6 C 80 % 12.16 C
2432 14-09-2018 10:35:00 15.7 C 76 % 11.48 C
2433 14-09-2018 10:40:00 15.8 C 77 % 11.78 C
2434 14-09-2018 10:45:00 16 C 76 % 11.77 C
2435 14-09-2018 10:50:00 16.1 C 77 % 12.07 C
2436 14-09-2018 10:55:00 16.1 C 78 % 12.27 C
2437 14-09-2018 11:00:00 16.1 C 76 % 11.87 C
2438 14-09-2018 11:05:00 16 C 74 % 11.37 C
2439 14-09-2018 11:10:00 16.1 C 74 % 11.47 C
2440 14-09-2018 11:15:00 16.1 C 74 % 11.47 C
2441 14-09-2018 11:20:00 16.1 C 73 % 11.26 C
2442 14-09-2018 11:25:00 16.2 C 71 % 10.94 C
2443 14-09-2018 11:30:00 16.4 C 70 % 10.92 C
2444 14-09-2018 11:35:00 16.6 C 67 % 10.45 C
2445 14-09-2018 11:40:00 16.8 C 70 % 11.3 C
2446 14-09-2018 11:45:00 16.9 C 67 % 10.74 C
2447 14-09-2018 11:50:00 17.1 C 67 % 10.93 C
2448 14-09-2018 11:55:00 17.4 C 68 % 11.44 C
2449 14-09-2018 12:00:00 17.8 C 67 % 11.6 C
2450 14-09-2018 12:05:00 18.1 C 64 % 11.19 C
Sensor: Nr:Datum:Temp:Feuchte:Taupunkt:
Aussen-T/F 2451 14-09-2018 12:10:00 18.2 C 63 % 11.05 C
2452 14-09-2018 12:15:00 18.4 C 62 % 10.99 C
2453 14-09-2018 12:20:00 18.6 C 61 % 10.94 C
2454 14-09-2018 12:25:00 18.6 C 60 % 10.69 C
2455 14-09-2018 12:30:00 18.7 C 59 % 10.53 C
2456 14-09-2018 12:35:00 18.7 C 59 % 10.53 C
2457 14-09-2018 12:40:00 18.7 C 58 % 10.28 C
2458 14-09-2018 12:45:00 18.8 C 60 % 10.88 C
2459 14-09-2018 12:50:00 19.1 C 58 % 10.65 C
2460 14-09-2018 12:55:00 19.2 C 57 % 10.48 C
2461 14-09-2018 13:00:00 19.3 C 58 % 10.84 C
2462 14-09-2018 13:05:00 19.4 C 57 % 10.67 C
2463 14-09-2018 13:10:00 19.4 C 56 % 10.4 C
2464 14-09-2018 13:15:00 19.5 C 57 % 10.76 C
2465 14-09-2018 13:20:00 19.7 C 58 % 11.21 C
2466 14-09-2018 13:25:00 19.8 C 56 % 10.78 C
2467 14-09-2018 13:30:00 19.8 C 55 % 10.51 C
2468 14-09-2018 13:35:00 19.8 C 55 % 10.51 C
2469 14-09-2018 13:40:00 19.8 C 56 % 10.78 C
2470 14-09-2018 13:45:00 19.8 C 54 % 10.23 C
2471 14-09-2018 13:50:00 19.8 C 55 % 10.51 C
2472 14-09-2018 13:55:00 19.8 C 54 % 10.23 C
2473 14-09-2018 14:00:00 19.9 C 56 % 10.87 C
2474 14-09-2018 14:05:00 20.2 C 54 % 10.6 C
2475 14-09-2018 14:10:00 20.3 C 53 % 10.41 C
Sensor: Nr:Datum:Temp:Feuchte:Taupunkt:
Aussen-T/F 2476 14-09-2018 14:15:00 20.3 C 54 % 10.69 C
2477 14-09-2018 14:20:00 20.4 C 54 % 10.79 C
2478 14-09-2018 14:25:00 20.7 C 53 % 10.78 C
2479 14-09-2018 14:30:00 20.7 C 52 % 10.5 C
2480 14-09-2018 14:35:00 20.7 C 53 % 10.78 C
2481 14-09-2018 14:40:00 20.8 C 54 % 11.16 C
2482 14-09-2018 14:45:00 20.9 C 53 % 10.97 C
2483 14-09-2018 14:50:00 20.9 C 52 % 10.68 C
2484 14-09-2018 14:55:00 20.8 C 53 % 10.88 C
2485 14-09-2018 15:00:00 20.8 C 54 % 11.16 C
2486 14-09-2018 15:05:00 20.9 C 53 % 10.97 C
2487 14-09-2018 15:10:00 20.9 C 52 % 10.68 C
2488 14-09-2018 15:15:00 20.9 C 52 % 10.68 C
2489 14-09-2018 15:20:00 20.9 C 54 % 11.25 C
2490 14-09-2018 15:25:00 21 C 52 % 10.78 C
2491 14-09-2018 15:30:00 21.1 C 52 % 10.87 C
2492 14-09-2018 15:35:00 21.1 C 52 % 10.87 C
2493 14-09-2018 15:40:00 21.2 C 51 % 10.67 C
2494 14-09-2018 15:45:00 21.2 C 51 % 10.67 C
2495 14-09-2018 15:50:00 21.3 C 51 % 10.76 C
2496 14-09-2018 15:55:00 21.2 C 52 % 10.96 C
2497 14-09-2018 16:00:00 21.3 C 51 % 10.76 C
2498 14-09-2018 16:05:00 21.2 C 52 % 10.96 C
2499 14-09-2018 16:10:00 21.1 C 52 % 10.87 C
2500 14-09-2018 16:15:00 21.1 C 51 % 10.58 C
Sensor: Nr:Datum:Temp:Feuchte:Taupunkt:
Aussen-T/F 2501 14-09-2018 16:20:00 21.1 C 52 % 10.87 C
2502 14-09-2018 16:25:00 21.1 C 52 % 10.87 C
2503 14-09-2018 16:30:00 21.1 C 52 % 10.87 C
2504 14-09-2018 16:35:00 21.1 C 53 % 11.15 C
2505 14-09-2018 16:40:00 21.1 C 53 % 11.15 C
2506 14-09-2018 16:45:00 21.2 C 54 % 11.53 C
2507 14-09-2018 16:50:00 21.5 C 53 % 11.52 C
2508 14-09-2018 16:55:00 21.7 C 52 % 11.42 C
2509 14-09-2018 17:00:00 21.6 C 51 % 11.04 C
2510 14-09-2018 17:05:00 21.5 C 52 % 11.24 C
2511 14-09-2018 17:10:00 21.4 C 53 % 11.43 C
2512 14-09-2018 17:15:00 21.3 C 53 % 11.34 C
2513 14-09-2018 17:20:00 21.2 C 53 % 11.25 C
2514 14-09-2018 17:25:00 21.1 C 53 % 11.15 C
2515 14-09-2018 17:30:00 21.1 C 53 % 11.15 C
2516 14-09-2018 17:35:00 21.1 C 53 % 11.15 C
2517 14-09-2018 17:40:00 21.6 C 52 % 11.33 C
2518 14-09-2018 17:45:00 21.8 C 49 % 10.62 C
2519 14-09-2018 17:50:00 21.8 C 50 % 10.92 C
2520 14-09-2018 17:55:00 21.6 C 50 % 10.74 C
2521 14-09-2018 18:00:00 21.4 C 50 % 10.55 C
2522 14-09-2018 18:05:00 21.3 C 50 % 10.46 C
2523 14-09-2018 18:10:00 21.3 C 49 % 10.16 C
2524 14-09-2018 18:15:00 21.2 C 49 % 10.07 C
2525 14-09-2018 18:20:00 21.3 C 49 % 10.16 C
Sensor: Nr:Datum:Temp:Feuchte:Taupunkt:
Aussen-T/F 2526 14-09-2018 18:25:00 21.3 C 49 % 10.16 C
2527 14-09-2018 18:30:00 21.3 C 49 % 10.16 C
2528 14-09-2018 18:35:00 21.3 C 50 % 10.46 C
2529 14-09-2018 18:40:00 21.3 C 50 % 10.46 C
2530 14-09-2018 18:45:00 21.2 C 51 % 10.67 C
2531 14-09-2018 18:50:00 21.1 C 50 % 10.28 C
2532 14-09-2018 18:55:00 20.9 C 49 % 9.79 C
2533 14-09-2018 19:00:00 20.8 C 50 % 10 C
2534 14-09-2018 19:05:00 20.7 C 51 % 10.21 C
2535 14-09-2018 19:10:00 20.5 C 50 % 9.73 C
2536 14-09-2018 19:15:00 20.4 C 50 % 9.64 C
2537 14-09-2018 19:20:00 20.4 C 49 % 9.34 C
2538 14-09-2018 19:25:00 20.3 C 49 % 9.24 C
2539 14-09-2018 19:30:00 20.3 C 49 % 9.24 C
2540 14-09-2018 19:35:00 20.2 C 51 % 9.75 C
2541 14-09-2018 19:40:00 20 C 51 % 9.56 C
2542 14-09-2018 19:45:00 19.9 C 52 % 9.76 C
2543 14-09-2018 19:50:00 19.7 C 51 % 9.29 C
2544 14-09-2018 19:55:00 19.6 C 54 % 10.05 C
2545 14-09-2018 20:00:00 19.3 C 55 % 10.04 C
2546 14-09-2018 20:05:00 19 C 54 % 9.49 C
2547 14-09-2018 20:10:00 18.9 C 53 % 9.12 C
2548 14-09-2018 20:15:00 18.9 C 53 % 9.12 C
2549 14-09-2018 20:20:00 19.1 C 53 % 9.3 C
2550 14-09-2018 20:25:00 19.1 C 54 % 9.58 C
Sensor: Nr:Datum:Temp:Feuchte:Taupunkt:
Aussen-T/F 2551 14-09-2018 20:30:00 19 C 57 % 10.3 C
2552 14-09-2018 20:35:00 18.8 C 57 % 10.11 C
2553 14-09-2018 20:40:00 18.6 C 57 % 9.92 C
2554 14-09-2018 20:45:00 18.4 C 59 % 10.25 C
2555 14-09-2018 20:50:00 18.2 C 56 % 9.29 C
2556 14-09-2018 20:55:00 18.2 C 58 % 9.81 C
2557 14-09-2018 21:00:00 18.1 C 59 % 9.97 C
2558 14-09-2018 21:05:00 18 C 59 % 9.88 C
2559 14-09-2018 21:10:00 17.8 C 60 % 9.94 C
2560 14-09-2018 21:15:00 17.6 C 58 % 9.25 C
2561 14-09-2018 21:20:00 17.5 C 60 % 9.66 C
2562 14-09-2018 21:25:00 17.3 C 60 % 9.47 C
2563 14-09-2018 21:30:00 17.2 C 58 % 8.87 C
2564 14-09-2018 21:35:00 17.2 C 61 % 9.62 C
2565 14-09-2018 21:40:00 17.1 C 60 % 9.28 C
2566 14-09-2018 21:45:00 17.1 C 61 % 9.53 C
2567 14-09-2018 21:50:00 16.9 C 61 % 9.34 C
2568 14-09-2018 21:55:00 16.8 C 62 % 9.49 C
2569 14-09-2018 22:00:00 16.7 C 63 % 9.63 C
2570 14-09-2018 22:05:00 16.5 C 61 % 8.96 C
2571 14-09-2018 22:10:00 16.3 C 63 % 9.25 C
2572 14-09-2018 22:15:00 16.2 C 63 % 9.16 C
2573 14-09-2018 22:20:00 16 C 63 % 8.97 C
2574 14-09-2018 22:25:00 15.9 C 63 % 8.87 C
2575 14-09-2018 22:30:00 15.9 C 65 % 9.34 C
Sensor: Nr:Datum:Temp:Feuchte:Taupunkt:
Aussen-T/F 2576 14-09-2018 22:35:00 15.9 C 66 % 9.56 C
2577 14-09-2018 22:40:00 15.8 C 65 % 9.24 C
2578 14-09-2018 22:45:00 15.9 C 66 % 9.56 C
2579 14-09-2018 22:50:00 15.9 C 66 % 9.56 C
2580 14-09-2018 22:55:00 15.9 C 66 % 9.56 C
2581 14-09-2018 23:00:00 15.9 C 64 % 9.11 C
2582 14-09-2018 23:05:00 15.9 C 64 % 9.11 C
2583 14-09-2018 23:10:00 15.9 C 65 % 9.34 C
2584 14-09-2018 23:15:00 15.9 C 65 % 9.34 C
2585 14-09-2018 23:20:00 15.9 C 65 % 9.34 C
2586 14-09-2018 23:25:00 15.8 C 66 % 9.47 C
2587 14-09-2018 23:30:00 15.8 C 65 % 9.24 C
2588 14-09-2018 23:35:00 15.8 C 65 % 9.24 C
2589 14-09-2018 23:40:00 15.8 C 65 % 9.24 C
2590 14-09-2018 23:45:00 15.7 C 65 % 9.15 C
2591 14-09-2018 23:50:00 15.7 C 65 % 9.15 C
2592 14-09-2018 23:55:00 15.6 C 65 % 9.05 C
2593 15-09-2018 00:00:00 15.6 C 66 % 9.28 C
2594 15-09-2018 00:05:00 15.6 C 65 % 9.05 C
2595 15-09-2018 00:10:00 15.6 C 65 % 9.05 C
2596 15-09-2018 00:15:00 15.5 C 66 % 9.18 C
2597 15-09-2018 00:20:00 15.5 C 66 % 9.18 C
2598 15-09-2018 00:25:00 15.4 C 67 % 9.31 C
2599 15-09-2018 00:30:00 15.4 C 68 % 9.53 C
2600 15-09-2018 00:35:00 15.2 C 67 % 9.12 C
Sensor: Nr:Datum:Temp:Feuchte:Taupunkt:
Aussen-T/F 2601 15-09-2018 00:40:00 15 C 68 % 9.15 C
2602 15-09-2018 00:45:00 14.8 C 67 % 8.74 C
2603 15-09-2018 00:50:00 14.6 C 68 % 8.77 C
2604 15-09-2018 00:55:00 14.5 C 68 % 8.67 C
2605 15-09-2018 01:00:00 14.4 C 70 % 9 C
2606 15-09-2018 01:05:00 14.3 C 70 % 8.91 C
2607 15-09-2018 01:10:00 14.3 C 70 % 8.91 C
2608 15-09-2018 01:15:00 14.2 C 70 % 8.81 C
2609 15-09-2018 01:20:00 14.1 C 71 % 8.93 C
2610 15-09-2018 01:25:00 14 C 71 % 8.83 C
2611 15-09-2018 01:30:00 13.9 C 71 % 8.73 C
2612 15-09-2018 01:35:00 13.7 C 72 % 8.75 C
2613 15-09-2018 01:40:00 13.6 C 72 % 8.65 C
2614 15-09-2018 01:45:00 13.4 C 72 % 8.46 C
2615 15-09-2018 01:50:00 13.2 C 73 % 8.47 C
2616 15-09-2018 01:55:00 13.1 C 74 % 8.58 C
2617 15-09-2018 02:00:00 12.9 C 74 % 8.38 C
2618 15-09-2018 02:05:00 12.7 C 75 % 8.39 C
2619 15-09-2018 02:10:00 12.6 C 76 % 8.49 C
2620 15-09-2018 02:15:00 12.5 C 76 % 8.39 C
2621 15-09-2018 02:20:00 12.4 C 76 % 8.29 C
2622 15-09-2018 02:25:00 12.4 C 77 % 8.49 C
2623 15-09-2018 02:30:00 12.4 C 77 % 8.49 C
2624 15-09-2018 02:35:00 12.4 C 78 % 8.68 C
2625 15-09-2018 02:40:00 12.4 C 79 % 8.86 C
Sensor: Nr:Datum:Temp:Feuchte:Taupunkt:
Aussen-T/F 2626 15-09-2018 02:45:00 12.4 C 78 % 8.68 C
2627 15-09-2018 02:50:00 12.4 C 79 % 8.86 C
2628 15-09-2018 02:55:00 12.3 C 78 % 8.58 C
2629 15-09-2018 03:00:00 12.3 C 79 % 8.77 C
2630 15-09-2018 03:05:00 12.3 C 78 % 8.58 C
2631 15-09-2018 03:10:00 12.3 C 79 % 8.77 C
2632 15-09-2018 03:15:00 12.3 C 79 % 8.77 C
2633 15-09-2018 03:20:00 12.4 C 79 % 8.86 C
2634 15-09-2018 03:25:00 12.4 C 79 % 8.86 C
2635 15-09-2018 03:30:00 12.4 C 79 % 8.86 C
2636 15-09-2018 03:35:00 12.4 C 79 % 8.86 C
2637 15-09-2018 03:40:00 12.4 C 79 % 8.86 C
2638 15-09-2018 03:45:00 12.4 C 79 % 8.86 C
2639 15-09-2018 03:50:00 12.5 C 79 % 8.96 C
2640 15-09-2018 03:55:00 12.6 C 79 % 9.06 C
2641 15-09-2018 04:00:00 12.6 C 79 % 9.06 C
2642 15-09-2018 04:05:00 12.6 C 79 % 9.06 C
2643 15-09-2018 04:10:00 12.7 C 79 % 9.16 C
2644 15-09-2018 04:15:00 12.8 C 79 % 9.25 C
2645 15-09-2018 04:20:00 12.8 C 79 % 9.25 C
2646 15-09-2018 04:25:00 12.8 C 79 % 9.25 C
2647 15-09-2018 04:30:00 12.8 C 79 % 9.25 C
2648 15-09-2018 04:35:00 12.9 C 79 % 9.35 C
2649 15-09-2018 04:40:00 12.9 C 79 % 9.35 C
2650 15-09-2018 04:45:00 12.9 C 79 % 9.35 C
Sensor: Nr:Datum:Temp:Feuchte:Taupunkt:
Aussen-T/F 2651 15-09-2018 04:50:00 12.9 C 79 % 9.35 C
2652 15-09-2018 04:55:00 12.9 C 79 % 9.35 C
2653 15-09-2018 05:00:00 12.8 C 79 % 9.25 C
2654 15-09-2018 05:05:00 12.8 C 79 % 9.25 C
2655 15-09-2018 05:10:00 12.8 C 79 % 9.25 C
2656 15-09-2018 05:15:00 12.8 C 79 % 9.25 C
2657 15-09-2018 05:20:00 12.7 C 79 % 9.16 C
2658 15-09-2018 05:25:00 12.6 C 79 % 9.06 C
2659 15-09-2018 05:30:00 12.6 C 79 % 9.06 C
2660 15-09-2018 05:35:00 12.5 C 79 % 8.96 C
2661 15-09-2018 05:40:00 12.4 C 79 % 8.86 C
2662 15-09-2018 05:45:00 12.3 C 79 % 8.77 C
2663 15-09-2018 05:50:00 12.2 C 80 % 8.86 C
2664 15-09-2018 05:55:00 12.1 C 80 % 8.76 C
2665 15-09-2018 06:00:00 11.9 C 81 % 8.75 C
2666 15-09-2018 06:05:00 11.8 C 81 % 8.65 C
2667 15-09-2018 06:10:00 11.8 C 82 % 8.83 C
2668 15-09-2018 06:15:00 11.7 C 82 % 8.73 C
2669 15-09-2018 06:20:00 11.7 C 82 % 8.73 C
2670 15-09-2018 06:25:00 11.6 C 82 % 8.64 C
2671 15-09-2018 06:30:00 11.6 C 83 % 8.81 C
2672 15-09-2018 06:35:00 11.5 C 83 % 8.72 C
2673 15-09-2018 06:40:00 11.4 C 83 % 8.62 C
2674 15-09-2018 06:45:00 11.4 C 84 % 8.8 C
2675 15-09-2018 06:50:00 11.4 C 84 % 8.8 C
Sensor: Nr:Datum:Temp:Feuchte:Taupunkt:
Aussen-T/F 2676 15-09-2018 06:55:00 11.5 C 84 % 8.89 C
2677 15-09-2018 07:00:00 11.5 C 84 % 8.89 C
2678 15-09-2018 07:05:00 11.6 C 85 % 9.17 C
2679 15-09-2018 07:10:00 11.6 C 84 % 8.99 C
2680 15-09-2018 07:15:00 11.7 C 84 % 9.09 C
2681 15-09-2018 07:20:00 11.7 C 84 % 9.09 C
2682 15-09-2018 07:25:00 11.7 C 84 % 9.09 C
2683 15-09-2018 07:30:00 11.7 C 84 % 9.09 C
2684 15-09-2018 07:35:00 11.7 C 84 % 9.09 C
2685 15-09-2018 07:40:00 11.7 C 84 % 9.09 C
2686 15-09-2018 07:45:00 11.6 C 83 % 8.81 C
2687 15-09-2018 07:50:00 11.4 C 83 % 8.62 C
2688 15-09-2018 07:55:00 11.3 C 84 % 8.7 C
2689 15-09-2018 08:00:00 11.2 C 84 % 8.6 C
2690 15-09-2018 08:05:00 11.1 C 85 % 8.68 C
2691 15-09-2018 08:10:00 11.1 C 85 % 8.68 C
2692 15-09-2018 08:15:00 11 C 85 % 8.58 C
2693 15-09-2018 08:20:00 11 C 86 % 8.75 C
2694 15-09-2018 08:25:00 10.9 C 86 % 8.65 C
2695 15-09-2018 08:30:00 10.9 C 87 % 8.82 C
2696 15-09-2018 08:35:00 10.9 C 87 % 8.82 C
2697 15-09-2018 08:40:00 10.9 C 87 % 8.82 C
2698 15-09-2018 08:45:00 11 C 87 % 8.92 C
2699 15-09-2018 08:50:00 11 C 87 % 8.92 C
2700 15-09-2018 08:55:00 11.1 C 87 % 9.02 C
Sensor: Nr:Datum:Temp:Feuchte:Taupunkt:
Aussen-T/F 2701 15-09-2018 09:00:00 11.1 C 87 % 9.02 C
2702 15-09-2018 09:05:00 11.2 C 88 % 9.29 C
2703 15-09-2018 09:10:00 11.3 C 88 % 9.39 C
2704 15-09-2018 09:15:00 11.4 C 87 % 9.32 C
2705 15-09-2018 09:20:00 11.5 C 87 % 9.41 C
2706 15-09-2018 09:25:00 11.7 C 87 % 9.61 C
2707 15-09-2018 09:30:00 11.8 C 87 % 9.71 C
2708 15-09-2018 09:35:00 11.9 C 86 % 9.64 C
2709 15-09-2018 09:40:00 12.2 C 85 % 9.76 C
2710 15-09-2018 09:45:00 12.3 C 84 % 9.68 C
2711 15-09-2018 09:50:00 12.5 C 84 % 9.87 C
2712 15-09-2018 09:55:00 12.7 C 83 % 9.89 C
2713 15-09-2018 10:00:00 13.1 C 82 % 10.1 C
2714 15-09-2018 10:05:00 13.3 C 81 % 10.11 C
2715 15-09-2018 10:10:00 13.7 C 79 % 10.13 C
2716 15-09-2018 10:15:00 13.8 C 79 % 10.22 C
2717 15-09-2018 10:20:00 13.9 C 78 % 10.13 C
2718 15-09-2018 10:25:00 14.1 C 78 % 10.33 C
2719 15-09-2018 10:30:00 14.3 C 78 % 10.52 C
2720 15-09-2018 10:35:00 14.3 C 77 % 10.33 C
2721 15-09-2018 10:40:00 14.4 C 77 % 10.42 C
2722 15-09-2018 10:45:00 14.6 C 76 % 10.42 C
2723 15-09-2018 10:50:00 14.8 C 76 % 10.61 C
2724 15-09-2018 10:55:00 14.9 C 75 % 10.51 C
2725 15-09-2018 11:00:00 15.1 C 75 % 10.71 C
Sensor: Nr:Datum:Temp:Feuchte:Taupunkt:
Aussen-T/F 2726 15-09-2018 11:05:00 15.2 C 74 % 10.6 C
2727 15-09-2018 11:10:00 15.4 C 74 % 10.79 C
2728 15-09-2018 11:15:00 15.6 C 73 % 10.78 C
2729 15-09-2018 11:20:00 15.7 C 72 % 10.67 C
2730 15-09-2018 11:25:00 16 C 71 % 10.75 C
2731 15-09-2018 11:30:00 16.3 C 70 % 10.82 C
2732 15-09-2018 11:35:00 16.6 C 70 % 11.11 C
2733 15-09-2018 11:40:00 16.9 C 69 % 11.18 C
2734 15-09-2018 11:45:00 17.2 C 68 % 11.25 C
2735 15-09-2018 11:50:00 17.3 C 67 % 11.12 C
2736 15-09-2018 11:55:00 17.4 C 66 % 10.99 C
2737 15-09-2018 12:00:00 17.3 C 65 % 10.66 C
2738 15-09-2018 12:05:00 17.4 C 66 % 10.99 C
2739 15-09-2018 12:10:00 17.4 C 65 % 10.76 C
2740 15-09-2018 12:15:00 17.3 C 65 % 10.66 C
2741 15-09-2018 12:20:00 17.4 C 65 % 10.76 C
2742 15-09-2018 12:25:00 17.4 C 65 % 10.76 C
2743 15-09-2018 12:30:00 17.6 C 64 % 10.72 C
2744 15-09-2018 12:35:00 17.7 C 64 % 10.81 C
2745 15-09-2018 12:40:00 17.8 C 65 % 11.14 C
2746 15-09-2018 12:45:00 18 C 64 % 11.09 C
2747 15-09-2018 12:50:00 18.2 C 62 % 10.81 C
2748 15-09-2018 12:55:00 18.4 C 62 % 10.99 C
2749 15-09-2018 13:00:00 18.6 C 60 % 10.69 C
2750 15-09-2018 13:05:00 18.6 C 60 % 10.69 C
Sensor: Nr:Datum:Temp:Feuchte:Taupunkt:
Aussen-T/F 2751 15-09-2018 13:10:00 18.4 C 60 % 10.5 C
2752 15-09-2018 13:15:00 18.3 C 60 % 10.41 C
2753 15-09-2018 13:20:00 18.3 C 61 % 10.66 C
2754 15-09-2018 13:25:00 18.3 C 61 % 10.66 C
2755 15-09-2018 13:30:00 18.4 C 61 % 10.75 C
2756 15-09-2018 13:35:00 18.5 C 61 % 10.84 C
2757 15-09-2018 13:40:00 18.6 C 60 % 10.69 C
2758 15-09-2018 13:45:00 18.7 C 60 % 10.78 C
2759 15-09-2018 13:50:00 18.8 C 60 % 10.88 C
2760 15-09-2018 13:55:00 18.8 C 59 % 10.63 C
2761 15-09-2018 14:00:00 18.9 C 59 % 10.72 C
2762 15-09-2018 14:05:00 18.9 C 58 % 10.46 C
2763 15-09-2018 14:10:00 18.9 C 58 % 10.46 C
2764 15-09-2018 14:15:00 18.8 C 59 % 10.63 C
2765 15-09-2018 14:20:00 18.9 C 60 % 10.97 C
2766 15-09-2018 14:25:00 19 C 59 % 10.81 C
2767 15-09-2018 14:30:00 19.2 C 60 % 11.25 C
2768 15-09-2018 14:35:00 19.3 C 59 % 11.09 C
2769 15-09-2018 14:40:00 19.3 C 57 % 10.58 C
2770 15-09-2018 14:45:00 19.4 C 59 % 11.19 C
2771 15-09-2018 14:50:00 19.5 C 57 % 10.76 C
2772 15-09-2018 14:55:00 19.6 C 57 % 10.86 C
2773 15-09-2018 15:00:00 19.7 C 56 % 10.68 C
2774 15-09-2018 15:05:00 19.7 C 57 % 10.95 C
2775 15-09-2018 15:10:00 19.7 C 57 % 10.95 C
Sensor: Nr:Datum:Temp:Feuchte:Taupunkt:
Aussen-T/F 2776 15-09-2018 15:15:00 19.8 C 57 % 11.04 C
2777 15-09-2018 15:20:00 20.1 C 56 % 11.06 C
2778 15-09-2018 15:25:00 20.2 C 55 % 10.88 C
2779 15-09-2018 15:30:00 20.3 C 55 % 10.97 C
2780 15-09-2018 15:35:00 20.3 C 53 % 10.41 C
2781 15-09-2018 15:40:00 20.4 C 54 % 10.79 C
2782 15-09-2018 15:45:00 20.4 C 53 % 10.51 C
2783 15-09-2018 15:50:00 20.4 C 54 % 10.79 C
2784 15-09-2018 15:55:00 20.3 C 53 % 10.41 C
2785 15-09-2018 16:00:00 20.2 C 54 % 10.6 C
2786 15-09-2018 16:05:00 20 C 55 % 10.69 C
2787 15-09-2018 16:10:00 19.9 C 55 % 10.6 C
2788 15-09-2018 16:15:00 19.8 C 55 % 10.51 C
2789 15-09-2018 16:20:00 19.8 C 56 % 10.78 C
2790 15-09-2018 16:25:00 19.8 C 55 % 10.51 C
2791 15-09-2018 16:30:00 19.8 C 55 % 10.51 C
2792 15-09-2018 16:35:00 19.8 C 56 % 10.78 C
2793 15-09-2018 16:40:00 19.8 C 55 % 10.51 C
2794 15-09-2018 16:45:00 19.9 C 55 % 10.6 C
2795 15-09-2018 16:50:00 20.1 C 54 % 10.51 C
2796 15-09-2018 16:55:00 20.4 C 53 % 10.51 C
2797 15-09-2018 17:00:00 20.7 C 53 % 10.78 C
2798 15-09-2018 17:05:00 20.7 C 52 % 10.5 C
2799 15-09-2018 17:10:00 20.6 C 53 % 10.69 C
2800 15-09-2018 17:15:00 20.5 C 52 % 10.31 C
Sensor: Nr:Datum:Temp:Feuchte:Taupunkt:
Aussen-T/F 2801 15-09-2018 17:20:00 20.4 C 54 % 10.79 C
2802 15-09-2018 17:25:00 20.3 C 53 % 10.41 C
2803 15-09-2018 17:30:00 20.2 C 54 % 10.6 C
2804 15-09-2018 17:35:00 20.2 C 54 % 10.6 C
2805 15-09-2018 17:40:00 20.1 C 53 % 10.23 C
2806 15-09-2018 17:45:00 19.9 C 53 % 10.04 C
2807 15-09-2018 17:50:00 19.9 C 53 % 10.04 C
2808 15-09-2018 17:55:00 19.9 C 53 % 10.04 C
2809 15-09-2018 18:00:00 19.9 C 53 % 10.04 C
2810 15-09-2018 18:05:00 19.9 C 51 % 9.47 C
2811 15-09-2018 18:10:00 19.9 C 52 % 9.76 C
2812 15-09-2018 18:15:00 19.9 C 50 % 9.18 C
2813 15-09-2018 18:20:00 19.9 C 51 % 9.47 C
2814 15-09-2018 18:25:00 19.9 C 51 % 9.47 C
2815 15-09-2018 18:30:00 19.9 C 51 % 9.47 C
2816 15-09-2018 18:35:00 20 C 56 % 10.96 C
2817 15-09-2018 18:40:00 20 C 52 % 9.85 C
2818 15-09-2018 18:45:00 20.1 C 52 % 9.94 C
2819 15-09-2018 18:50:00 20.2 C 54 % 10.6 C
2820 15-09-2018 18:55:00 20.2 C 55 % 10.88 C
2821 15-09-2018 19:00:00 20.2 C 51 % 9.75 C
2822 15-09-2018 19:05:00 20.1 C 52 % 9.94 C
2823 15-09-2018 19:10:00 19.8 C 54 % 10.23 C
2824 15-09-2018 19:15:00 19.4 C 56 % 10.4 C
2825 15-09-2018 19:20:00 18.9 C 56 % 9.94 C
Sensor: Nr:Datum:Temp:Feuchte:Taupunkt:
Aussen-T/F 2826 15-09-2018 19:25:00 18.4 C 58 % 9.99 C
2827 15-09-2018 19:30:00 18 C 59 % 9.88 C
2828 15-09-2018 19:35:00 17.6 C 61 % 10 C
2829 15-09-2018 19:40:00 17.3 C 61 % 9.71 C
2830 15-09-2018 19:45:00 16.9 C 61 % 9.34 C
2831 15-09-2018 19:50:00 16.7 C 62 % 9.39 C
2832 15-09-2018 19:55:00 16.4 C 62 % 9.11 C
2833 15-09-2018 20:00:00 16.2 C 63 % 9.16 C
2834 15-09-2018 20:05:00 16 C 63 % 8.97 C
2835 15-09-2018 20:10:00 15.8 C 64 % 9.01 C
2836 15-09-2018 20:15:00 15.7 C 64 % 8.92 C
2837 15-09-2018 20:20:00 15.6 C 64 % 8.82 C
2838 15-09-2018 20:25:00 15.6 C 64 % 8.82 C
2839 15-09-2018 20:30:00 15.4 C 65 % 8.86 C
2840 15-09-2018 20:35:00 15.3 C 65 % 8.77 C
2841 15-09-2018 20:40:00 15.3 C 66 % 8.99 C
2842 15-09-2018 20:45:00 15.2 C 66 % 8.9 C
2843 15-09-2018 20:50:00 15 C 67 % 8.93 C
2844 15-09-2018 20:55:00 14.8 C 67 % 8.74 C
2845 15-09-2018 21:00:00 14.6 C 68 % 8.77 C
2846 15-09-2018 21:05:00 14.4 C 69 % 8.79 C
2847 15-09-2018 21:10:00 14.2 C 70 % 8.81 C
2848 15-09-2018 21:15:00 14.1 C 71 % 8.93 C
2849 15-09-2018 21:20:00 13.9 C 71 % 8.73 C
2850 15-09-2018 21:25:00 13.8 C 72 % 8.85 C
Sensor: Nr:Datum:Temp:Feuchte:Taupunkt:
Aussen-T/F 2851 15-09-2018 21:30:00 13.6 C 72 % 8.65 C
2852 15-09-2018 21:35:00 13.5 C 73 % 8.76 C
2853 15-09-2018 21:40:00 13.4 C 74 % 8.87 C
2854 15-09-2018 21:45:00 13.3 C 74 % 8.77 C
2855 15-09-2018 21:50:00 13.1 C 75 % 8.77 C
2856 15-09-2018 21:55:00 13 C 75 % 8.68 C
2857 15-09-2018 22:00:00 12.9 C 76 % 8.78 C
2858 15-09-2018 22:05:00 12.9 C 76 % 8.78 C
2859 15-09-2018 22:10:00 12.8 C 76 % 8.68 C
2860 15-09-2018 22:15:00 12.7 C 76 % 8.58 C
2861 15-09-2018 22:20:00 12.6 C 76 % 8.49 C
2862 15-09-2018 22:25:00 12.6 C 77 % 8.68 C
2863 15-09-2018 22:30:00 12.6 C 77 % 8.68 C
2864 15-09-2018 22:35:00 12.5 C 77 % 8.58 C
2865 15-09-2018 22:40:00 12.4 C 77 % 8.49 C
2866 15-09-2018 22:45:00 12.4 C 77 % 8.49 C
2867 15-09-2018 22:50:00 12.3 C 78 % 8.58 C
2868 15-09-2018 22:55:00 12.3 C 78 % 8.58 C
2869 15-09-2018 23:00:00 12.2 C 78 % 8.48 C
2870 15-09-2018 23:05:00 12.2 C 78 % 8.48 C
2871 15-09-2018 23:10:00 12.2 C 79 % 8.67 C
2872 15-09-2018 23:15:00 12.1 C 79 % 8.57 C
2873 15-09-2018 23:20:00 12.1 C 79 % 8.57 C
2874 15-09-2018 23:25:00 12 C 79 % 8.48 C
2875 15-09-2018 23:30:00 11.9 C 79 % 8.38 C
Sensor: Nr:Datum:Temp:Feuchte:Taupunkt:
Aussen-T/F 2876 15-09-2018 23:35:00 11.9 C 79 % 8.38 C
2877 15-09-2018 23:40:00 11.8 C 79 % 8.28 C
2878 15-09-2018 23:45:00 11.8 C 79 % 8.28 C
2879 15-09-2018 23:50:00 11.7 C 79 % 8.18 C
2880 15-09-2018 23:55:00 11.6 C 80 % 8.27 C
2881 16-09-2018 00:00:00 11.5 C 80 % 8.17 C
2882 16-09-2018 00:05:00 11.4 C 80 % 8.08 C
2883 16-09-2018 00:10:00 11.3 C 80 % 7.98 C
2884 16-09-2018 00:15:00 11.2 C 81 % 8.06 C
2885 16-09-2018 00:20:00 11.1 C 81 % 7.97 C
2886 16-09-2018 00:25:00 11.1 C 81 % 7.97 C
2887 16-09-2018 00:30:00 10.9 C 82 % 7.95 C
2888 16-09-2018 00:35:00 10.8 C 82 % 7.85 C
2889 16-09-2018 00:40:00 10.8 C 82 % 7.85 C
2890 16-09-2018 00:45:00 10.8 C 82 % 7.85 C
2891 16-09-2018 00:50:00 10.7 C 82 % 7.76 C
2892 16-09-2018 00:55:00 10.6 C 83 % 7.84 C
2893 16-09-2018 01:00:00 10.5 C 83 % 7.74 C
2894 16-09-2018 01:05:00 10.4 C 83 % 7.64 C
2895 16-09-2018 01:10:00 10.3 C 83 % 7.54 C
2896 16-09-2018 01:15:00 10.3 C 84 % 7.72 C
2897 16-09-2018 01:20:00 10.2 C 84 % 7.62 C
2898 16-09-2018 01:25:00 10.2 C 84 % 7.62 C
2899 16-09-2018 01:30:00 10.1 C 84 % 7.52 C
2900 16-09-2018 01:35:00 10.1 C 85 % 7.7 C
Sensor: Nr:Datum:Temp:Feuchte:Taupunkt:
Aussen-T/F 2901 16-09-2018 01:40:00 10.1 C 85 % 7.7 C
2902 16-09-2018 01:45:00 10 C 85 % 7.6 C
2903 16-09-2018 01:50:00 9.9 C 85 % 7.5 C
2904 16-09-2018 01:55:00 9.8 C 85 % 7.4 C
2905 16-09-2018 02:00:00 9.7 C 85 % 7.3 C
2906 16-09-2018 02:05:00 9.7 C 86 % 7.47 C
2907 16-09-2018 02:10:00 9.6 C 86 % 7.38 C
2908 16-09-2018 02:15:00 9.4 C 86 % 7.18 C
2909 16-09-2018 02:20:00 9.4 C 87 % 7.35 C
2910 16-09-2018 02:25:00 9.3 C 87 % 7.25 C
2911 16-09-2018 02:30:00 9.3 C 87 % 7.25 C
2912 16-09-2018 02:35:00 9.3 C 87 % 7.25 C
2913 16-09-2018 02:40:00 9.2 C 88 % 7.32 C
2914 16-09-2018 02:45:00 9.2 C 88 % 7.32 C
2915 16-09-2018 02:50:00 9.2 C 88 % 7.32 C
2916 16-09-2018 02:55:00 9.2 C 88 % 7.32 C
2917 16-09-2018 03:00:00 9.2 C 88 % 7.32 C
2918 16-09-2018 03:05:00 9.1 C 88 % 7.22 C
2919 16-09-2018 03:10:00 9.1 C 89 % 7.39 C
2920 16-09-2018 03:15:00 9.1 C 89 % 7.39 C
2921 16-09-2018 03:20:00 9.1 C 89 % 7.39 C
2922 16-09-2018 03:25:00 9.1 C 89 % 7.39 C
2923 16-09-2018 03:30:00 8.9 C 89 % 7.19 C
2924 16-09-2018 03:35:00 8.9 C 89 % 7.19 C
2925 16-09-2018 03:40:00 8.9 C 89 % 7.19 C
Sensor: Nr:Datum:Temp:Feuchte:Taupunkt:
Aussen-T/F 2926 16-09-2018 03:45:00 8.8 C 89 % 7.09 C
2927 16-09-2018 03:50:00 8.8 C 89 % 7.09 C
2928 16-09-2018 03:55:00 8.7 C 89 % 6.99 C
2929 16-09-2018 04:00:00 8.6 C 89 % 6.89 C
2930 16-09-2018 04:05:00 8.6 C 90 % 7.06 C
2931 16-09-2018 04:10:00 8.6 C 90 % 7.06 C
2932 16-09-2018 04:15:00 8.5 C 90 % 6.96 C
2933 16-09-2018 04:20:00 8.5 C 90 % 6.96 C
2934 16-09-2018 04:25:00 8.5 C 90 % 6.96 C
2935 16-09-2018 04:30:00 8.4 C 90 % 6.86 C
2936 16-09-2018 04:35:00 8.3 C 90 % 6.76 C
2937 16-09-2018 04:40:00 8.3 C 90 % 6.76 C
2938 16-09-2018 04:45:00 8.2 C 90 % 6.66 C
2939 16-09-2018 04:50:00 8.1 C 91 % 6.72 C
2940 16-09-2018 04:55:00 8.1 C 91 % 6.72 C
2941 16-09-2018 05:00:00 8.1 C 91 % 6.72 C
2942 16-09-2018 05:05:00 8 C 91 % 6.62 C
2943 16-09-2018 05:10:00 8.1 C 91 % 6.72 C
2944 16-09-2018 05:15:00 8.1 C 91 % 6.72 C
2945 16-09-2018 05:20:00 8 C 91 % 6.62 C
2946 16-09-2018 05:25:00 7.9 C 91 % 6.52 C
2947 16-09-2018 05:30:00 7.9 C 91 % 6.52 C
2948 16-09-2018 05:35:00 7.8 C 91 % 6.43 C
2949 16-09-2018 05:40:00 7.8 C 91 % 6.43 C
2950 16-09-2018 05:45:00 7.8 C 92 % 6.58 C
Sensor: Nr:Datum:Temp:Feuchte:Taupunkt:
Aussen-T/F 2951 16-09-2018 05:50:00 7.8 C 92 % 6.58 C
2952 16-09-2018 05:55:00 7.7 C 92 % 6.48 C
2953 16-09-2018 06:00:00 7.7 C 92 % 6.48 C
2954 16-09-2018 06:05:00 7.7 C 92 % 6.48 C
2955 16-09-2018 06:10:00 7.6 C 92 % 6.39 C
2956 16-09-2018 06:15:00 7.6 C 92 % 6.39 C
2957 16-09-2018 06:20:00 7.5 C 92 % 6.29 C
2958 16-09-2018 06:25:00 7.4 C 92 % 6.19 C
2959 16-09-2018 06:30:00 7.4 C 92 % 6.19 C
2960 16-09-2018 06:35:00 7.4 C 92 % 6.19 C
2961 16-09-2018 06:40:00 7.4 C 92 % 6.19 C
2962 16-09-2018 06:45:00 7.3 C 92 % 6.09 C
2963 16-09-2018 06:50:00 7.3 C 92 % 6.09 C
2964 16-09-2018 06:55:00 7.2 C 92 % 5.99 C
2965 16-09-2018 07:00:00 7.2 C 92 % 5.99 C
2966 16-09-2018 07:05:00 7.1 C 92 % 5.89 C
2967 16-09-2018 07:10:00 7.1 C 93 % 6.05 C
2968 16-09-2018 07:15:00 7.1 C 93 % 6.05 C
2969 16-09-2018 07:20:00 7.1 C 93 % 6.05 C
2970 16-09-2018 07:25:00 7.1 C 93 % 6.05 C
2971 16-09-2018 07:30:00 7.1 C 93 % 6.05 C
2972 16-09-2018 07:35:00 7.1 C 93 % 6.05 C
2973 16-09-2018 07:40:00 7.1 C 93 % 6.05 C
2974 16-09-2018 07:45:00 7.1 C 93 % 6.05 C
2975 16-09-2018 07:50:00 7.1 C 93 % 6.05 C
Sensor: Nr:Datum:Temp:Feuchte:Taupunkt:
Aussen-T/F 2976 16-09-2018 07:55:00 7.1 C 93 % 6.05 C
2977 16-09-2018 08:00:00 7.2 C 93 % 6.15 C
2978 16-09-2018 08:05:00 7.2 C 93 % 6.15 C
2979 16-09-2018 08:10:00 7.2 C 93 % 6.15 C
2980 16-09-2018 08:15:00 7.3 C 94 % 6.4 C
2981 16-09-2018 08:20:00 7.3 C 94 % 6.4 C
2982 16-09-2018 08:25:00 7.3 C 94 % 6.4 C
2983 16-09-2018 08:30:00 7.4 C 94 % 6.5 C
2984 16-09-2018 08:35:00 7.5 C 94 % 6.6 C
2985 16-09-2018 08:40:00 7.6 C 94 % 6.7 C
2986 16-09-2018 08:45:00 7.6 C 94 % 6.7 C
2987 16-09-2018 08:50:00 7.7 C 94 % 6.8 C
2988 16-09-2018 08:55:00 7.8 C 94 % 6.9 C
2989 16-09-2018 09:00:00 7.8 C 94 % 6.9 C
2990 16-09-2018 09:05:00 7.9 C 94 % 7 C
2991 16-09-2018 09:10:00 7.9 C 94 % 7 C
2992 16-09-2018 09:15:00 8.1 C 94 % 7.19 C
2993 16-09-2018 09:20:00 8.2 C 94 % 7.29 C
2994 16-09-2018 09:25:00 8.3 C 95 % 7.55 C
2995 16-09-2018 09:30:00 8.3 C 95 % 7.55 C
2996 16-09-2018 09:35:00 8.5 C 95 % 7.75 C
2997 16-09-2018 09:40:00 8.6 C 95 % 7.85 C
2998 16-09-2018 09:45:00 8.7 C 95 % 7.94 C
2999 16-09-2018 09:50:00 8.8 C 95 % 8.04 C
3000 16-09-2018 09:55:00 9 C 95 % 8.24 C
Sensor: Nr:Datum:Temp:Feuchte:Taupunkt:
Aussen-T/F 3001 16-09-2018 10:00:00 9.1 C 95 % 8.34 C
3002 16-09-2018 10:05:00 9.3 C 95 % 8.54 C
3003 16-09-2018 10:10:00 9.4 C 95 % 8.64 C
3004 16-09-2018 10:15:00 9.6 C 95 % 8.84 C
3005 16-09-2018 10:20:00 9.7 C 95 % 8.94 C
3006 16-09-2018 10:25:00 9.9 C 95 % 9.14 C
3007 16-09-2018 10:30:00 10.1 C 95 % 9.34 C
3008 16-09-2018 10:35:00 10.3 C 95 % 9.54 C
3009 16-09-2018 10:40:00 10.4 C 95 % 9.63 C
3010 16-09-2018 10:45:00 10.6 C 94 % 9.68 C
3011 16-09-2018 10:50:00 10.9 C 94 % 9.97 C
3012 16-09-2018 10:55:00 11.2 C 94 % 10.27 C
3013 16-09-2018 11:00:00 11.5 C 93 % 10.41 C
3014 16-09-2018 11:05:00 11.8 C 93 % 10.71 C
3015 16-09-2018 11:10:00 12.1 C 92 % 10.84 C
3016 16-09-2018 11:15:00 12.3 C 91 % 10.87 C
3017 16-09-2018 11:20:00 12.7 C 90 % 11.1 C
3018 16-09-2018 11:25:00 13.1 C 89 % 11.33 C
3019 16-09-2018 11:30:00 13.4 C 88 % 11.45 C
3020 16-09-2018 11:35:00 13.7 C 86 % 11.4 C
3021 16-09-2018 11:40:00 14.1 C 85 % 11.62 C
3022 16-09-2018 11:45:00 14.4 C 82 % 11.37 C
3023 16-09-2018 11:50:00 14.9 C 80 % 11.48 C
3024 16-09-2018 11:55:00 15.3 C 78 % 11.49 C
3025 16-09-2018 12:00:00 15.8 C 75 % 11.38 C
Sensor: Nr:Datum:Temp:Feuchte:Taupunkt:
Aussen-T/F 3026 16-09-2018 12:05:00 16.4 C 71 % 11.13 C
3027 16-09-2018 12:10:00 17 C 68 % 11.06 C
3028 16-09-2018 12:15:00 17.3 C 67 % 11.12 C
3029 16-09-2018 12:20:00 17.7 C 64 % 10.81 C
3030 16-09-2018 12:25:00 17.9 C 61 % 10.28 C
3031 16-09-2018 12:30:00 18.3 C 62 % 10.9 C
3032 16-09-2018 12:35:00 18.7 C 61 % 11.03 C
3033 16-09-2018 12:40:00 19 C 57 % 10.3 C
3034 16-09-2018 12:45:00 19.2 C 59 % 11 C
3035 16-09-2018 12:50:00 19.5 C 54 % 9.95 C
3036 16-09-2018 12:55:00 19.8 C 54 % 10.23 C
3037 16-09-2018 13:00:00 20 C 53 % 10.14 C
3038 16-09-2018 13:05:00 20.2 C 52 % 10.04 C
3039 16-09-2018 13:10:00 20.4 C 52 % 10.22 C
3040 16-09-2018 13:15:00 20.6 C 50 % 9.82 C
3041 16-09-2018 13:20:00 20.8 C 49 % 9.7 C
3042 16-09-2018 13:25:00 21 C 49 % 9.89 C
3043 16-09-2018 13:30:00 21.3 C 48 % 9.85 C
3044 16-09-2018 13:35:00 21.4 C 48 % 9.94 C
3045 16-09-2018 13:40:00 21.6 C 47 % 9.81 C
3046 16-09-2018 13:45:00 21.7 C 47 % 9.9 C
3047 16-09-2018 13:50:00 21.9 C 49 % 10.71 C
3048 16-09-2018 13:55:00 21.9 C 51 % 11.31 C
3049 16-09-2018 14:00:00 21.9 C 47 % 10.09 C
3050 16-09-2018 14:05:00 22.1 C 46 % 9.95 C
Sensor: Nr:Datum:Temp:Feuchte:Taupunkt:
Aussen-T/F 3051 16-09-2018 14:10:00 22.3 C 44 % 9.47 C
3052 16-09-2018 14:15:00 22.3 C 44 % 9.47 C
3053 16-09-2018 14:20:00 22.3 C 45 % 9.8 C
3054 16-09-2018 14:25:00 22.3 C 44 % 9.47 C
3055 16-09-2018 14:30:00 22.5 C 44 % 9.65 C
3056 16-09-2018 14:35:00 22.7 C 43 % 9.49 C
3057 16-09-2018 14:40:00 22.8 C 43 % 9.58 C
3058 16-09-2018 14:45:00 22.9 C 44 % 10.01 C
3059 16-09-2018 14:50:00 23.1 C 43 % 9.85 C
3060 16-09-2018 14:55:00 23.1 C 43 % 9.85 C
3061 16-09-2018 15:00:00 23.1 C 43 % 9.85 C
3062 16-09-2018 15:05:00 23.2 C 43 % 9.94 C
3063 16-09-2018 15:10:00 23.2 C 42 % 9.59 C
3064 16-09-2018 15:15:00 23.2 C 42 % 9.59 C
3065 16-09-2018 15:20:00 23.2 C 42 % 9.59 C
3066 16-09-2018 15:25:00 23.3 C 41 % 9.32 C
3067 16-09-2018 15:30:00 23.4 C 42 % 9.77 C
3068 16-09-2018 15:35:00 23.6 C 41 % 9.59 C
3069 16-09-2018 15:40:00 23.7 C 43 % 10.39 C
3070 16-09-2018 15:45:00 23.7 C 40 % 9.31 C
3071 16-09-2018 15:50:00 23.8 C 39 % 9.02 C
3072 16-09-2018 15:55:00 23.9 C 40 % 9.49 C
3073 16-09-2018 16:00:00 23.9 C 39 % 9.11 C
3074 16-09-2018 16:05:00 23.9 C 39 % 9.11 C
3075 16-09-2018 16:10:00 24.1 C 40 % 9.67 C
Sensor: Nr:Datum:Temp:Feuchte:Taupunkt:
Aussen-T/F 3076 16-09-2018 16:15:00 24.2 C 38 % 8.99 C
3077 16-09-2018 16:20:00 24.2 C 38 % 8.99 C
3078 16-09-2018 16:25:00 24.2 C 38 % 8.99 C
3079 16-09-2018 16:30:00 24.2 C 38 % 8.99 C
3080 16-09-2018 16:35:00 24.2 C 38 % 8.99 C
3081 16-09-2018 16:40:00 24.2 C 39 % 9.38 C
3082 16-09-2018 16:45:00 24.1 C 39 % 9.29 C
3083 16-09-2018 16:50:00 24.2 C 39 % 9.38 C
3084 16-09-2018 16:55:00 24.2 C 39 % 9.38 C
3085 16-09-2018 17:00:00 24.3 C 39 % 9.47 C
3086 16-09-2018 17:05:00 24.5 C 39 % 9.65 C
3087 16-09-2018 17:10:00 24.8 C 37 % 9.13 C
3088 16-09-2018 17:15:00 24.9 C 38 % 9.61 C
3089 16-09-2018 17:20:00 25.1 C 37 % 9.39 C
3090 16-09-2018 17:25:00 25.2 C 37 % 9.48 C
3091 16-09-2018 17:30:00 25.2 C 38 % 9.88 C
3092 16-09-2018 17:35:00 25 C 38 % 9.7 C
3093 16-09-2018 17:40:00 24.8 C 37 % 9.13 C
3094 16-09-2018 17:45:00 24.7 C 38 % 9.44 C
3095 16-09-2018 17:50:00 24.6 C 40 % 10.11 C
3096 16-09-2018 17:55:00 24.4 C 41 % 10.3 C
3097 16-09-2018 18:00:00 24.4 C 46 % 12.04 C
3098 16-09-2018 18:05:00 24.4 C 41 % 10.3 C
3099 16-09-2018 18:10:00 24.4 C 45 % 11.7 C
3100 16-09-2018 18:15:00 24.4 C 45 % 11.7 C
Sensor: Nr:Datum:Temp:Feuchte:Taupunkt:
Aussen-T/F 3101 16-09-2018 18:20:00 24.4 C 46 % 12.04 C
3102 16-09-2018 18:25:00 24.4 C 44 % 11.36 C
3103 16-09-2018 18:30:00 24.3 C 45 % 11.61 C
3104 16-09-2018 18:35:00 24.1 C 46 % 11.76 C
3105 16-09-2018 18:40:00 23.8 C 47 % 11.82 C
3106 16-09-2018 18:45:00 23.6 C 47 % 11.63 C
3107 16-09-2018 18:50:00 23.4 C 47 % 11.45 C
3108 16-09-2018 18:55:00 23 C 48 % 11.41 C
3109 16-09-2018 19:00:00 22.5 C 49 % 11.26 C
3110 16-09-2018 19:05:00 22 C 49 % 10.8 C
3111 16-09-2018 19:10:00 21.5 C 50 % 10.65 C
3112 16-09-2018 19:15:00 21.1 C 51 % 10.58 C
3113 16-09-2018 19:20:00 20.8 C 52 % 10.59 C
3114 16-09-2018 19:25:00 20.4 C 51 % 9.93 C
3115 16-09-2018 19:30:00 20.2 C 52 % 10.04 C
3116 16-09-2018 19:35:00 19.9 C 53 % 10.04 C
3117 16-09-2018 19:40:00 19.6 C 53 % 9.77 C
3118 16-09-2018 19:45:00 19.4 C 54 % 9.86 C
3119 16-09-2018 19:50:00 19.2 C 54 % 9.67 C
3120 16-09-2018 19:55:00 19 C 55 % 9.76 C
3121 16-09-2018 20:00:00 18.8 C 55 % 9.58 C
3122 16-09-2018 20:05:00 18.7 C 56 % 9.75 C
3123 16-09-2018 20:10:00 18.6 C 56 % 9.66 C
3124 16-09-2018 20:15:00 18.5 C 57 % 9.83 C
3125 16-09-2018 20:20:00 18.4 C 57 % 9.74 C
Sensor: Nr:Datum:Temp:Feuchte:Taupunkt:
Aussen-T/F 3126 16-09-2018 20:25:00 18.3 C 57 % 9.64 C
3127 16-09-2018 20:30:00 18.3 C 57 % 9.64 C
3128 16-09-2018 20:35:00 18.3 C 58 % 9.9 C
3129 16-09-2018 20:40:00 18.2 C 59 % 10.06 C
3130 16-09-2018 20:45:00 18.1 C 59 % 9.97 C
3131 16-09-2018 20:50:00 18.1 C 60 % 10.22 C
3132 16-09-2018 20:55:00 17.9 C 60 % 10.03 C
3133 16-09-2018 21:00:00 17.9 C 60 % 10.03 C
3134 16-09-2018 21:05:00 17.8 C 60 % 9.94 C
3135 16-09-2018 21:10:00 17.8 C 60 % 9.94 C
3136 16-09-2018 21:15:00 17.7 C 61 % 10.09 C
3137 16-09-2018 21:20:00 17.7 C 61 % 10.09 C
3138 16-09-2018 21:25:00 17.7 C 61 % 10.09 C
3139 16-09-2018 21:30:00 17.6 C 62 % 10.24 C
3140 16-09-2018 21:35:00 17.5 C 63 % 10.38 C
3141 16-09-2018 21:40:00 17.3 C 63 % 10.2 C
3142 16-09-2018 21:45:00 17 C 64 % 10.15 C
3143 16-09-2018 21:50:00 16.7 C 65 % 10.09 C
3144 16-09-2018 21:55:00 16.5 C 66 % 10.13 C
3145 16-09-2018 22:00:00 16.2 C 67 % 10.07 C
3146 16-09-2018 22:05:00 16 C 67 % 9.88 C
3147 16-09-2018 22:10:00 15.8 C 68 % 9.91 C
3148 16-09-2018 22:15:00 15.7 C 68 % 9.82 C
3149 16-09-2018 22:20:00 15.6 C 68 % 9.72 C
3150 16-09-2018 22:25:00 15.5 C 69 % 9.84 C
Sensor: Nr:Datum:Temp:Feuchte:Taupunkt:
Aussen-T/F 3151 16-09-2018 22:30:00 15.3 C 69 % 9.65 C
3152 16-09-2018 22:35:00 15.2 C 70 % 9.77 C
3153 16-09-2018 22:40:00 15 C 71 % 9.79 C
3154 16-09-2018 22:45:00 14.8 C 71 % 9.6 C
3155 16-09-2018 22:50:00 14.8 C 71 % 9.6 C
3156 16-09-2018 22:55:00 14.8 C 72 % 9.81 C
3157 16-09-2018 23:00:00 14.8 C 72 % 9.81 C
3158 16-09-2018 23:05:00 14.6 C 72 % 9.61 C
3159 16-09-2018 23:10:00 14.4 C 73 % 9.63 C
3160 16-09-2018 23:15:00 14.2 C 74 % 9.64 C
3161 16-09-2018 23:20:00 14.1 C 75 % 9.74 C
3162 16-09-2018 23:25:00 13.9 C 75 % 9.55 C
3163 16-09-2018 23:30:00 13.9 C 76 % 9.74 C
3164 16-09-2018 23:35:00 13.9 C 76 % 9.74 C
3165 16-09-2018 23:40:00 13.9 C 75 % 9.55 C
3166 16-09-2018 23:45:00 13.8 C 76 % 9.65 C
3167 16-09-2018 23:50:00 13.7 C 75 % 9.35 C
3168 16-09-2018 23:55:00 13.5 C 76 % 9.36 C
3169 17-09-2018 00:00:00 13.3 C 77 % 9.36 C
3170 17-09-2018 00:05:00 13.2 C 78 % 9.45 C
3171 17-09-2018 00:10:00 13.2 C 78 % 9.45 C
3172 17-09-2018 00:15:00 13.1 C 78 % 9.36 C
3173 17-09-2018 00:20:00 13.1 C 78 % 9.36 C
3174 17-09-2018 00:25:00 13 C 78 % 9.26 C
3175 17-09-2018 00:30:00 12.9 C 79 % 9.35 C
Sensor: Nr:Datum:Temp:Feuchte:Taupunkt:
Aussen-T/F 3176 17-09-2018 00:35:00 12.9 C 79 % 9.35 C
3177 17-09-2018 00:40:00 12.8 C 79 % 9.25 C
3178 17-09-2018 00:45:00 12.8 C 79 % 9.25 C
3179 17-09-2018 00:50:00 12.7 C 79 % 9.16 C
3180 17-09-2018 00:55:00 12.6 C 79 % 9.06 C
3181 17-09-2018 01:00:00 12.5 C 79 % 8.96 C
3182 17-09-2018 01:05:00 12.4 C 80 % 9.05 C
3183 17-09-2018 01:10:00 12.5 C 80 % 9.15 C
3184 17-09-2018 01:15:00 12.4 C 79 % 8.86 C
3185 17-09-2018 01:20:00 12.4 C 79 % 8.86 C
3186 17-09-2018 01:25:00 12.4 C 80 % 9.05 C
3187 17-09-2018 01:30:00 12.4 C 80 % 9.05 C
3188 17-09-2018 01:35:00 12.3 C 80 % 8.95 C
3189 17-09-2018 01:40:00 12.3 C 81 % 9.14 C
3190 17-09-2018 01:45:00 12.3 C 80 % 8.95 C
3191 17-09-2018 01:50:00 12.2 C 80 % 8.86 C
3192 17-09-2018 01:55:00 12.1 C 81 % 8.94 C
3193 17-09-2018 02:00:00 11.9 C 81 % 8.75 C
3194 17-09-2018 02:05:00 11.8 C 82 % 8.83 C
3195 17-09-2018 02:10:00 11.7 C 82 % 8.73 C
3196 17-09-2018 02:15:00 11.6 C 82 % 8.64 C
3197 17-09-2018 02:20:00 11.5 C 83 % 8.72 C
3198 17-09-2018 02:25:00 11.5 C 83 % 8.72 C
3199 17-09-2018 02:30:00 11.5 C 83 % 8.72 C
3200 17-09-2018 02:35:00 11.4 C 83 % 8.62 C
Sensor: Nr:Datum:Temp:Feuchte:Taupunkt:
Aussen-T/F 3201 17-09-2018 02:40:00 11.4 C 83 % 8.62 C
3202 17-09-2018 02:45:00 11.3 C 83 % 8.52 C
3203 17-09-2018 02:50:00 11.3 C 84 % 8.7 C
3204 17-09-2018 02:55:00 11.2 C 84 % 8.6 C
3205 17-09-2018 03:00:00 11.2 C 84 % 8.6 C
3206 17-09-2018 03:05:00 11.1 C 85 % 8.68 C
3207 17-09-2018 03:10:00 11.3 C 85 % 8.87 C
3208 17-09-2018 03:15:00 11.4 C 84 % 8.8 C
3209 17-09-2018 03:20:00 11.4 C 83 % 8.62 C
3210 17-09-2018 03:25:00 11.3 C 83 % 8.52 C
3211 17-09-2018 03:30:00 11.1 C 84 % 8.5 C
3212 17-09-2018 03:35:00 11.1 C 85 % 8.68 C
3213 17-09-2018 03:40:00 11 C 85 % 8.58 C
3214 17-09-2018 03:45:00 11 C 85 % 8.58 C
3215 17-09-2018 03:50:00 10.9 C 85 % 8.48 C
3216 17-09-2018 03:55:00 10.8 C 85 % 8.38 C
3217 17-09-2018 04:00:00 10.8 C 85 % 8.38 C
3218 17-09-2018 04:05:00 10.7 C 85 % 8.28 C
3219 17-09-2018 04:10:00 10.6 C 86 % 8.36 C
3220 17-09-2018 04:15:00 10.5 C 86 % 8.26 C
3221 17-09-2018 04:20:00 10.3 C 86 % 8.06 C
3222 17-09-2018 04:25:00 10.2 C 86 % 7.97 C
3223 17-09-2018 04:30:00 10.2 C 87 % 8.14 C
3224 17-09-2018 04:35:00 10.2 C 87 % 8.14 C
3225 17-09-2018 04:40:00 10.2 C 88 % 8.3 C
Sensor: Nr:Datum:Temp:Feuchte:Taupunkt:
Aussen-T/F 3226 17-09-2018 04:45:00 10.2 C 88 % 8.3 C
3227 17-09-2018 04:50:00 10.1 C 88 % 8.21 C
3228 17-09-2018 04:55:00 10 C 88 % 8.11 C
3229 17-09-2018 05:00:00 9.8 C 88 % 7.91 C
3230 17-09-2018 05:05:00 9.8 C 88 % 7.91 C
3231 17-09-2018 05:10:00 9.7 C 88 % 7.81 C
3232 17-09-2018 05:15:00 9.6 C 88 % 7.71 C
3233 17-09-2018 05:20:00 9.6 C 89 % 7.88 C
3234 17-09-2018 05:25:00 9.4 C 89 % 7.68 C
3235 17-09-2018 05:30:00 9.4 C 89 % 7.68 C
3236 17-09-2018 05:35:00 9.4 C 89 % 7.68 C
3237 17-09-2018 05:40:00 9.4 C 90 % 7.85 C
3238 17-09-2018 05:45:00 9.4 C 90 % 7.85 C
3239 17-09-2018 05:50:00 9.3 C 90 % 7.75 C
3240 17-09-2018 05:55:00 9.2 C 90 % 7.65 C
3241 17-09-2018 06:00:00 9.3 C 91 % 7.91 C
3242 17-09-2018 06:05:00 9.3 C 90 % 7.75 C
3243 17-09-2018 06:10:00 9.3 C 90 % 7.75 C
3244 17-09-2018 06:15:00 9.2 C 90 % 7.65 C
3245 17-09-2018 06:20:00 9.1 C 90 % 7.55 C
3246 17-09-2018 06:25:00 9.1 C 90 % 7.55 C
3247 17-09-2018 06:30:00 9 C 90 % 7.45 C
3248 17-09-2018 06:35:00 9 C 91 % 7.61 C
3249 17-09-2018 06:40:00 8.9 C 90 % 7.35 C
3250 17-09-2018 06:45:00 8.9 C 91 % 7.51 C
Sensor: Nr:Datum:Temp:Feuchte:Taupunkt:
Aussen-T/F 3251 17-09-2018 06:50:00 8.8 C 91 % 7.41 C
3252 17-09-2018 06:55:00 8.9 C 91 % 7.51 C
3253 17-09-2018 07:00:00 8.9 C 91 % 7.51 C
3254 17-09-2018 07:05:00 8.8 C 91 % 7.41 C
3255 17-09-2018 07:10:00 8.7 C 91 % 7.32 C
3256 17-09-2018 07:15:00 8.6 C 91 % 7.22 C
3257 17-09-2018 07:20:00 8.7 C 92 % 7.47 C
3258 17-09-2018 07:25:00 8.9 C 93 % 7.83 C
3259 17-09-2018 07:30:00 8.9 C 92 % 7.67 C
3260 17-09-2018 07:35:00 8.8 C 92 % 7.57 C
3261 17-09-2018 07:40:00 8.8 C 92 % 7.57 C
3262 17-09-2018 07:45:00 8.7 C 92 % 7.47 C
3263 17-09-2018 07:50:00 8.8 C 93 % 7.73 C
3264 17-09-2018 07:55:00 8.9 C 93 % 7.83 C
3265 17-09-2018 08:00:00 9 C 92 % 7.77 C
3266 17-09-2018 08:05:00 9 C 92 % 7.77 C
3267 17-09-2018 08:10:00 9.1 C 92 % 7.87 C
3268 17-09-2018 08:15:00 9.1 C 93 % 8.03 C
3269 17-09-2018 08:20:00 9.3 C 93 % 8.23 C
3270 17-09-2018 08:25:00 9.4 C 93 % 8.33 C
3271 17-09-2018 08:30:00 9.5 C 92 % 8.27 C
3272 17-09-2018 08:35:00 9.5 C 92 % 8.27 C
3273 17-09-2018 08:40:00 9.5 C 92 % 8.27 C
3274 17-09-2018 08:45:00 9.5 C 92 % 8.27 C
3275 17-09-2018 08:50:00 9.6 C 92 % 8.37 C
Sensor: Nr:Datum:Temp:Feuchte:Taupunkt:
Aussen-T/F 3276 17-09-2018 08:55:00 9.6 C 92 % 8.37 C
3277 17-09-2018 09:00:00 9.7 C 93 % 8.62 C
3278 17-09-2018 09:05:00 9.8 C 93 % 8.72 C
3279 17-09-2018 09:10:00 9.8 C 92 % 8.56 C
3280 17-09-2018 09:15:00 9.9 C 93 % 8.82 C
3281 17-09-2018 09:20:00 9.9 C 92 % 8.66 C
3282 17-09-2018 09:25:00 10 C 92 % 8.76 C
3283 17-09-2018 09:30:00 10.1 C 92 % 8.86 C
3284 17-09-2018 09:35:00 10.1 C 92 % 8.86 C
3285 17-09-2018 09:40:00 10.2 C 93 % 9.12 C
3286 17-09-2018 09:45:00 10.3 C 93 % 9.22 C
3287 17-09-2018 09:50:00 10.4 C 93 % 9.32 C
3288 17-09-2018 09:55:00 10.6 C 93 % 9.52 C
3289 17-09-2018 10:00:00 10.7 C 93 % 9.62 C
3290 17-09-2018 10:05:00 10.8 C 92 % 9.55 C
3291 17-09-2018 10:10:00 10.9 C 92 % 9.65 C
3292 17-09-2018 10:15:00 11.1 C 92 % 9.85 C
3293 17-09-2018 10:20:00 11.3 C 92 % 10.05 C
3294 17-09-2018 10:25:00 11.5 C 92 % 10.25 C
3295 17-09-2018 10:30:00 11.7 C 91 % 10.28 C
3296 17-09-2018 10:35:00 11.9 C 90 % 10.31 C
3297 17-09-2018 10:40:00 12.2 C 89 % 10.44 C
3298 17-09-2018 10:45:00 12.5 C 88 % 10.57 C
3299 17-09-2018 10:50:00 12.7 C 88 % 10.77 C
3300 17-09-2018 10:55:00 12.9 C 87 % 10.79 C
Sensor: Nr:Datum:Temp:Feuchte:Taupunkt:
Aussen-T/F 3301 17-09-2018 11:00:00 13.1 C 86 % 10.81 C
3302 17-09-2018 11:05:00 13.3 C 86 % 11.01 C
3303 17-09-2018 11:10:00 13.7 C 84 % 11.05 C
3304 17-09-2018 11:15:00 14 C 83 % 11.16 C
3305 17-09-2018 11:20:00 14.3 C 82 % 11.27 C
3306 17-09-2018 11:25:00 14.6 C 81 % 11.38 C
3307 17-09-2018 11:30:00 14.9 C 80 % 11.48 C
3308 17-09-2018 11:35:00 15.3 C 79 % 11.68 C
3309 17-09-2018 11:40:00 15.6 C 79 % 11.97 C
3310 17-09-2018 11:45:00 15.8 C 78 % 11.97 C
3311 17-09-2018 11:50:00 16 C 77 % 11.97 C
3312 17-09-2018 11:55:00 16.3 C 76 % 12.07 C
3313 17-09-2018 12:00:00 16.7 C 75 % 12.25 C
3314 17-09-2018 12:05:00 17.1 C 74 % 12.43 C
3315 17-09-2018 12:10:00 17.3 C 73 % 12.42 C
3316 17-09-2018 12:15:00 17.7 C 71 % 12.38 C
3317 17-09-2018 12:20:00 18 C 69 % 12.23 C
3318 17-09-2018 12:25:00 18.3 C 68 % 12.3 C
3319 17-09-2018 12:30:00 18.7 C 68 % 12.68 C
3320 17-09-2018 12:35:00 18.9 C 68 % 12.87 C
3321 17-09-2018 12:40:00 19.2 C 69 % 13.38 C
3322 17-09-2018 12:45:00 19.3 C 67 % 13.02 C
3323 17-09-2018 12:50:00 19.5 C 68 % 13.44 C
3324 17-09-2018 12:55:00 19.7 C 64 % 12.7 C
3325 17-09-2018 13:00:00 20.2 C 62 % 12.69 C
Sensor: Nr:Datum:Temp:Feuchte:Taupunkt:
Aussen-T/F 3326 17-09-2018 13:05:00 20.4 C 59 % 12.12 C
3327 17-09-2018 13:10:00 20.8 C 59 % 12.5 C
3328 17-09-2018 13:15:00 21.1 C 62 % 13.54 C
3329 17-09-2018 13:20:00 21.2 C 59 % 12.87 C
3330 17-09-2018 13:25:00 21.4 C 55 % 11.99 C
3331 17-09-2018 13:30:00 21.8 C 53 % 11.8 C
3332 17-09-2018 13:35:00 22.2 C 52 % 11.88 C
3333 17-09-2018 13:40:00 22.5 C 51 % 11.86 C
3334 17-09-2018 13:45:00 22.8 C 52 % 12.43 C
3335 17-09-2018 13:50:00 23.2 C 50 % 12.21 C
3336 17-09-2018 13:55:00 23.3 C 50 % 12.3 C
3337 17-09-2018 14:00:00 23.6 C 48 % 11.95 C
3338 17-09-2018 14:05:00 23.8 C 49 % 12.45 C
3339 17-09-2018 14:10:00 24.1 C 46 % 11.76 C
3340 17-09-2018 14:15:00 24.2 C 46 % 11.85 C
3341 17-09-2018 14:20:00 24.4 C 44 % 11.36 C
3342 17-09-2018 14:25:00 24.6 C 44 % 11.54 C
3343 17-09-2018 14:30:00 24.8 C 44 % 11.72 C
3344 17-09-2018 14:35:00 25.1 C 42 % 11.29 C
3345 17-09-2018 14:40:00 25.3 C 41 % 11.11 C
3346 17-09-2018 14:45:00 25.4 C 41 % 11.2 C
3347 17-09-2018 14:50:00 25.6 C 41 % 11.38 C
3348 17-09-2018 14:55:00 25.6 C 40 % 11 C
3349 17-09-2018 15:00:00 25.6 C 47 % 13.45 C
3350 17-09-2018 15:05:00 25.6 C 46 % 13.12 C
Sensor: Nr:Datum:Temp:Feuchte:Taupunkt:
Aussen-T/F 3351 17-09-2018 15:10:00 25.5 C 47 % 13.36 C
3352 17-09-2018 15:15:00 25.4 C 47 % 13.27 C
3353 17-09-2018 15:20:00 25.3 C 41 % 11.11 C
3354 17-09-2018 15:25:00 25.3 C 39 % 10.36 C
3355 17-09-2018 15:30:00 25.4 C 40 % 10.83 C
3356 17-09-2018 15:35:00 25.5 C 41 % 11.29 C
3357 17-09-2018 15:40:00 25.7 C 37 % 9.92 C
3358 17-09-2018 15:45:00 25.9 C 37 % 10.1 C
3359 17-09-2018 15:50:00 26.1 C 37 % 10.28 C
3360 17-09-2018 15:55:00 26.3 C 36 % 10.05 C
3361 17-09-2018 16:00:00 26.4 C 36 % 10.13 C
3362 17-09-2018 16:05:00 26.6 C 35 % 9.89 C
3363 17-09-2018 16:10:00 26.7 C 36 % 10.4 C
3364 17-09-2018 16:15:00 26.8 C 37 % 10.9 C
3365 17-09-2018 16:20:00 26.9 C 35 % 10.15 C
3366 17-09-2018 16:25:00 27 C 34 % 9.81 C
3367 17-09-2018 16:30:00 27 C 34 % 9.81 C
3368 17-09-2018 16:35:00 27 C 38 % 11.48 C
3369 17-09-2018 16:40:00 27 C 35 % 10.24 C
3370 17-09-2018 16:45:00 27.1 C 35 % 10.33 C
3371 17-09-2018 16:50:00 27.1 C 36 % 10.75 C
3372 17-09-2018 16:55:00 27.2 C 33 % 9.54 C
3373 17-09-2018 17:00:00 27.3 C 33 % 9.62 C
3374 17-09-2018 17:05:00 27.4 C 33 % 9.71 C
3375 17-09-2018 17:10:00 27.7 C 33 % 9.97 C
Sensor: Nr:Datum:Temp:Feuchte:Taupunkt:
Aussen-T/F 3376 17-09-2018 17:15:00 27.9 C 35 % 11.03 C
3377 17-09-2018 17:20:00 28.4 C 34 % 11.03 C
3378 17-09-2018 17:25:00 28.7 C 31 % 9.91 C
3379 17-09-2018 17:30:00 28.8 C 32 % 10.47 C
3380 17-09-2018 17:35:00 28.9 C 32 % 10.55 C
3381 17-09-2018 17:40:00 29.1 C 37 % 12.93 C
3382 17-09-2018 17:45:00 29.1 C 36 % 12.51 C
3383 17-09-2018 17:50:00 29.1 C 37 % 12.93 C
3384 17-09-2018 17:55:00 28.9 C 38 % 13.16 C
3385 17-09-2018 18:00:00 28.7 C 38 % 12.98 C
3386 17-09-2018 18:05:00 28.3 C 38 % 12.63 C
3387 17-09-2018 18:10:00 28 C 39 % 12.76 C
3388 17-09-2018 18:15:00 27.6 C 40 % 12.79 C
3389 17-09-2018 18:20:00 27.2 C 40 % 12.43 C
3390 17-09-2018 18:25:00 26.9 C 40 % 12.16 C
3391 17-09-2018 18:30:00 26.6 C 40 % 11.9 C
3392 17-09-2018 18:35:00 26.2 C 42 % 12.28 C
3393 17-09-2018 18:40:00 25.9 C 43 % 12.37 C
3394 17-09-2018 18:45:00 25.7 C 43 % 12.19 C
3395 17-09-2018 18:50:00 25.3 C 43 % 11.83 C
3396 17-09-2018 18:55:00 25 C 43 % 11.56 C
3397 17-09-2018 19:00:00 24.7 C 44 % 11.63 C
3398 17-09-2018 19:05:00 24.3 C 44 % 11.27 C
3399 17-09-2018 19:10:00 24.1 C 45 % 11.43 C
3400 17-09-2018 19:15:00 23.8 C 44 % 10.82 C
Sensor: Nr:Datum:Temp:Feuchte:Taupunkt:
Aussen-T/F 3401 17-09-2018 19:20:00 23.6 C 44 % 10.64 C
3402 17-09-2018 19:25:00 23.3 C 44 % 10.37 C
3403 17-09-2018 19:30:00 23.2 C 44 % 10.28 C
3404 17-09-2018 19:35:00 23 C 44 % 10.1 C
3405 17-09-2018 19:40:00 22.8 C 44 % 9.92 C
3406 17-09-2018 19:45:00 22.6 C 45 % 10.07 C
3407 17-09-2018 19:50:00 22.3 C 46 % 10.13 C
3408 17-09-2018 19:55:00 22.1 C 47 % 10.27 C
3409 17-09-2018 20:00:00 21.9 C 48 % 10.4 C
3410 17-09-2018 20:05:00 21.7 C 49 % 10.53 C
3411 17-09-2018 20:10:00 21.4 C 50 % 10.55 C
3412 17-09-2018 20:15:00 21.2 C 51 % 10.67 C
3413 17-09-2018 20:20:00 20.9 C 52 % 10.68 C
3414 17-09-2018 20:25:00 20.8 C 53 % 10.88 C
3415 17-09-2018 20:30:00 20.6 C 53 % 10.69 C
3416 17-09-2018 20:35:00 20.4 C 54 % 10.79 C
3417 17-09-2018 20:40:00 20.3 C 55 % 10.97 C
3418 17-09-2018 20:45:00 20.2 C 56 % 11.15 C
3419 17-09-2018 20:50:00 20.1 C 56 % 11.06 C
3420 17-09-2018 20:55:00 20 C 56 % 10.96 C
3421 17-09-2018 21:00:00 19.9 C 57 % 11.14 C
3422 17-09-2018 21:05:00 19.9 C 57 % 11.14 C
3423 17-09-2018 21:10:00 19.8 C 58 % 11.3 C
3424 17-09-2018 21:15:00 19.8 C 59 % 11.56 C
3425 17-09-2018 21:20:00 19.6 C 59 % 11.37 C
Sensor: Nr:Datum:Temp:Feuchte:Taupunkt:
Aussen-T/F 3426 17-09-2018 21:25:00 19.4 C 60 % 11.44 C
3427 17-09-2018 21:30:00 19.3 C 60 % 11.35 C
3428 17-09-2018 21:35:00 19.1 C 61 % 11.41 C
3429 17-09-2018 21:40:00 18.9 C 62 % 11.47 C
3430 17-09-2018 21:45:00 18.8 C 62 % 11.37 C
3431 17-09-2018 21:50:00 18.7 C 63 % 11.52 C
3432 17-09-2018 21:55:00 18.6 C 63 % 11.42 C
3433 17-09-2018 22:00:00 18.5 C 64 % 11.57 C
3434 17-09-2018 22:05:00 18.4 C 64 % 11.47 C
3435 17-09-2018 22:10:00 18.4 C 64 % 11.47 C
3436 17-09-2018 22:15:00 18.4 C 65 % 11.71 C
3437 17-09-2018 22:20:00 18.3 C 65 % 11.61 C
3438 17-09-2018 22:25:00 18.2 C 65 % 11.52 C
3439 17-09-2018 22:30:00 18.2 C 65 % 11.52 C
3440 17-09-2018 22:35:00 18.2 C 66 % 11.75 C
3441 17-09-2018 22:40:00 18.1 C 66 % 11.65 C
3442 17-09-2018 22:45:00 18.1 C 66 % 11.65 C
3443 17-09-2018 22:50:00 18.1 C 66 % 11.65 C
3444 17-09-2018 22:55:00 18 C 66 % 11.56 C
3445 17-09-2018 23:00:00 17.9 C 66 % 11.46 C
3446 17-09-2018 23:05:00 17.8 C 67 % 11.6 C
3447 17-09-2018 23:10:00 17.8 C 67 % 11.6 C
3448 17-09-2018 23:15:00 17.7 C 67 % 11.5 C
3449 17-09-2018 23:20:00 17.6 C 67 % 11.4 C
3450 17-09-2018 23:25:00 17.5 C 68 % 11.53 C
Sensor: Nr:Datum:Temp:Feuchte:Taupunkt:
Aussen-T/F 3451 17-09-2018 23:30:00 17.3 C 68 % 11.34 C
3452 17-09-2018 23:35:00 17.2 C 69 % 11.47 C
3453 17-09-2018 23:40:00 17 C 69 % 11.28 C
3454 17-09-2018 23:45:00 16.8 C 69 % 11.09 C
3455 17-09-2018 23:50:00 16.7 C 70 % 11.21 C
3456 17-09-2018 23:55:00 16.4 C 71 % 11.13 C
3457 18-09-2018 00:00:00 16.3 C 71 % 11.04 C
3458 18-09-2018 00:05:00 16.1 C 72 % 11.06 C
3459 18-09-2018 00:10:00 15.8 C 73 % 10.97 C
3460 18-09-2018 00:15:00 15.5 C 74 % 10.89 C
3461 18-09-2018 00:20:00 15.3 C 75 % 10.9 C
3462 18-09-2018 00:25:00 15.1 C 75 % 10.71 C
3463 18-09-2018 00:30:00 14.9 C 76 % 10.71 C
3464 18-09-2018 00:35:00 14.8 C 76 % 10.61 C
3465 18-09-2018 00:40:00 14.6 C 77 % 10.62 C
3466 18-09-2018 00:45:00 14.4 C 78 % 10.62 C
3467 18-09-2018 00:50:00 14.3 C 78 % 10.52 C
3468 18-09-2018 00:55:00 14.2 C 78 % 10.42 C
3469 18-09-2018 01:00:00 14.1 C 79 % 10.52 C
3470 18-09-2018 01:05:00 14 C 79 % 10.42 C
3471 18-09-2018 01:10:00 13.8 C 80 % 10.41 C
3472 18-09-2018 01:15:00 13.8 C 81 % 10.6 C
3473 18-09-2018 01:20:00 13.7 C 80 % 10.32 C
3474 18-09-2018 01:25:00 13.6 C 81 % 10.4 C
3475 18-09-2018 01:30:00 13.6 C 81 % 10.4 C
Sensor: Nr:Datum:Temp:Feuchte:Taupunkt:
Aussen-T/F 3476 18-09-2018 01:35:00 13.5 C 82 % 10.49 C
3477 18-09-2018 01:40:00 13.4 C 82 % 10.39 C
3478 18-09-2018 01:45:00 13.4 C 82 % 10.39 C
3479 18-09-2018 01:50:00 13.3 C 82 % 10.3 C
3480 18-09-2018 01:55:00 13.3 C 82 % 10.3 C
3481 18-09-2018 02:00:00 13.2 C 82 % 10.2 C
3482 18-09-2018 02:05:00 13.1 C 82 % 10.1 C
3483 18-09-2018 02:10:00 12.9 C 82 % 9.9 C
3484 18-09-2018 02:15:00 12.8 C 83 % 9.99 C
3485 18-09-2018 02:20:00 12.7 C 84 % 10.07 C
3486 18-09-2018 02:25:00 12.7 C 84 % 10.07 C
3487 18-09-2018 02:30:00 12.6 C 84 % 9.97 C
3488 18-09-2018 02:35:00 12.5 C 84 % 9.87 C
3489 18-09-2018 02:40:00 12.4 C 84 % 9.78 C
3490 18-09-2018 02:45:00 12.3 C 85 % 9.85 C
3491 18-09-2018 02:50:00 12.3 C 85 % 9.85 C
3492 18-09-2018 02:55:00 12.2 C 85 % 9.76 C
3493 18-09-2018 03:00:00 12.2 C 85 % 9.76 C
3494 18-09-2018 03:05:00 12.2 C 85 % 9.76 C
3495 18-09-2018 03:10:00 12.2 C 85 % 9.76 C
3496 18-09-2018 03:15:00 12.1 C 86 % 9.83 C
3497 18-09-2018 03:20:00 12.1 C 86 % 9.83 C
3498 18-09-2018 03:25:00 12 C 86 % 9.73 C
3499 18-09-2018 03:30:00 12 C 86 % 9.73 C
3500 18-09-2018 03:35:00 11.9 C 86 % 9.64 C
Sensor: Nr:Datum:Temp:Feuchte:Taupunkt:
Aussen-T/F 3501 18-09-2018 03:40:00 11.8 C 86 % 9.54 C
3502 18-09-2018 03:45:00 11.8 C 86 % 9.54 C
3503 18-09-2018 03:50:00 11.8 C 87 % 9.71 C
3504 18-09-2018 03:55:00 11.7 C 86 % 9.44 C
3505 18-09-2018 04:00:00 11.6 C 86 % 9.34 C
3506 18-09-2018 04:05:00 11.6 C 87 % 9.51 C
3507 18-09-2018 04:10:00 11.6 C 87 % 9.51 C
3508 18-09-2018 04:15:00 11.6 C 88 % 9.68 C
3509 18-09-2018 04:20:00 11.6 C 87 % 9.51 C
3510 18-09-2018 04:25:00 11.6 C 88 % 9.68 C
3511 18-09-2018 04:30:00 11.5 C 87 % 9.41 C
3512 18-09-2018 04:35:00 11.4 C 88 % 9.49 C
3513 18-09-2018 04:40:00 11.3 C 88 % 9.39 C
3514 18-09-2018 04:45:00 11.3 C 88 % 9.39 C
3515 18-09-2018 04:50:00 11.3 C 89 % 9.55 C
3516 18-09-2018 04:55:00 11.2 C 89 % 9.46 C
3517 18-09-2018 05:00:00 11.2 C 89 % 9.46 C
3518 18-09-2018 05:05:00 11.1 C 89 % 9.36 C
3519 18-09-2018 05:10:00 11.1 C 89 % 9.36 C
3520 18-09-2018 05:15:00 11.1 C 89 % 9.36 C
3521 18-09-2018 05:20:00 11 C 89 % 9.26 C
3522 18-09-2018 05:25:00 10.9 C 89 % 9.16 C
3523 18-09-2018 05:30:00 10.9 C 89 % 9.16 C
3524 18-09-2018 05:35:00 10.8 C 89 % 9.06 C
3525 18-09-2018 05:40:00 10.8 C 89 % 9.06 C
Sensor: Nr:Datum:Temp:Feuchte:Taupunkt:
Aussen-T/F 3526 18-09-2018 05:45:00 10.8 C 89 % 9.06 C
3527 18-09-2018 05:50:00 10.7 C 89 % 8.96 C
3528 18-09-2018 05:55:00 10.7 C 89 % 8.96 C
3529 18-09-2018 06:00:00 10.6 C 89 % 8.86 C
3530 18-09-2018 06:05:00 10.5 C 90 % 8.93 C
3531 18-09-2018 06:10:00 10.5 C 90 % 8.93 C
3532 18-09-2018 06:15:00 10.5 C 90 % 8.93 C
3533 18-09-2018 06:20:00 10.5 C 90 % 8.93 C
3534 18-09-2018 06:25:00 10.4 C 90 % 8.83 C
3535 18-09-2018 06:30:00 10.4 C 90 % 8.83 C
3536 18-09-2018 06:35:00 10.3 C 90 % 8.73 C
3537 18-09-2018 06:40:00 10.3 C 90 % 8.73 C
3538 18-09-2018 06:45:00 10.3 C 91 % 8.9 C
3539 18-09-2018 06:50:00 10.3 C 91 % 8.9 C
3540 18-09-2018 06:55:00 10.3 C 91 % 8.9 C
3541 18-09-2018 07:00:00 10.2 C 91 % 8.8 C
3542 18-09-2018 07:05:00 10.2 C 91 % 8.8 C
3543 18-09-2018 07:10:00 10.3 C 92 % 9.06 C
3544 18-09-2018 07:15:00 10.3 C 91 % 8.9 C
3545 18-09-2018 07:20:00 10.2 C 91 % 8.8 C
3546 18-09-2018 07:25:00 10.2 C 91 % 8.8 C
3547 18-09-2018 07:30:00 10.2 C 91 % 8.8 C
3548 18-09-2018 07:35:00 10.2 C 92 % 8.96 C
3549 18-09-2018 07:40:00 10.3 C 92 % 9.06 C
3550 18-09-2018 07:45:00 10.4 C 92 % 9.16 C
Sensor: Nr:Datum:Temp:Feuchte:Taupunkt:
Aussen-T/F 3551 18-09-2018 07:50:00 10.4 C 92 % 9.16 C
3552 18-09-2018 07:55:00 10.4 C 92 % 9.16 C
3553 18-09-2018 08:00:00 10.5 C 92 % 9.26 C
3554 18-09-2018 08:05:00 10.5 C 92 % 9.26 C
3555 18-09-2018 08:10:00 10.5 C 92 % 9.26 C
3556 18-09-2018 08:15:00 10.5 C 92 % 9.26 C
3557 18-09-2018 08:20:00 10.5 C 92 % 9.26 C
3558 18-09-2018 08:25:00 10.6 C 92 % 9.36 C
3559 18-09-2018 08:30:00 10.6 C 92 % 9.36 C
3560 18-09-2018 08:35:00 10.6 C 92 % 9.36 C
3561 18-09-2018 08:40:00 10.6 C 92 % 9.36 C
3562 18-09-2018 08:45:00 10.7 C 92 % 9.45 C
3563 18-09-2018 08:50:00 10.7 C 92 % 9.45 C
3564 18-09-2018 08:55:00 10.8 C 92 % 9.55 C
3565 18-09-2018 09:00:00 10.9 C 92 % 9.65 C
3566 18-09-2018 09:05:00 10.9 C 92 % 9.65 C
3567 18-09-2018 09:10:00 11.1 C 93 % 10.01 C
3568 18-09-2018 09:15:00 11.2 C 93 % 10.11 C
3569 18-09-2018 09:20:00 11.3 C 93 % 10.21 C
3570 18-09-2018 09:25:00 11.4 C 93 % 10.31 C
3571 18-09-2018 09:30:00 11.5 C 92 % 10.25 C
3572 18-09-2018 09:35:00 11.7 C 92 % 10.44 C
3573 18-09-2018 09:40:00 11.8 C 92 % 10.54 C
3574 18-09-2018 09:45:00 11.9 C 92 % 10.64 C
3575 18-09-2018 09:50:00 12.1 C 92 % 10.84 C
Sensor: Nr:Datum:Temp:Feuchte:Taupunkt:
Aussen-T/F 3576 18-09-2018 09:55:00 12.2 C 92 % 10.94 C
3577 18-09-2018 10:00:00 12.3 C 92 % 11.04 C
3578 18-09-2018 10:05:00 12.6 C 92 % 11.34 C
3579 18-09-2018 10:10:00 12.7 C 92 % 11.43 C
3580 18-09-2018 10:15:00 12.9 C 91 % 11.47 C
3581 18-09-2018 10:20:00 13.2 C 91 % 11.76 C
3582 18-09-2018 10:25:00 13.4 C 90 % 11.79 C
3583 18-09-2018 10:30:00 13.8 C 89 % 12.02 C
3584 18-09-2018 10:35:00 14.2 C 88 % 12.24 C
3585 18-09-2018 10:40:00 14.7 C 86 % 12.38 C
3586 18-09-2018 10:45:00 15.1 C 84 % 12.42 C
3587 18-09-2018 10:50:00 15.4 C 84 % 12.71 C
3588 18-09-2018 10:55:00 15.6 C 83 % 12.72 C
3589 18-09-2018 11:00:00 15.9 C 82 % 12.83 C
3590 18-09-2018 11:05:00 16.1 C 82 % 13.03 C
3591 18-09-2018 11:10:00 16.3 C 81 % 13.04 C
3592 18-09-2018 11:15:00 16.6 C 79 % 12.95 C
3593 18-09-2018 11:20:00 16.9 C 78 % 13.04 C
3594 18-09-2018 11:25:00 17.2 C 76 % 12.94 C
3595 18-09-2018 11:30:00 17.4 C 75 % 12.93 C
3596 18-09-2018 11:35:00 17.8 C 73 % 12.9 C
3597 18-09-2018 11:40:00 18.2 C 73 % 13.28 C
3598 18-09-2018 11:45:00 18.4 C 72 % 13.26 C
3599 18-09-2018 11:50:00 18.6 C 71 % 13.24 C
3600 18-09-2018 11:55:00 18.9 C 71 % 13.53 C
Sensor: Nr:Datum:Temp:Feuchte:Taupunkt:
Aussen-T/F 3601 18-09-2018 12:00:00 19.2 C 71 % 13.82 C
3602 18-09-2018 12:05:00 19.5 C 71 % 14.1 C
3603 18-09-2018 12:10:00 19.9 C 70 % 14.27 C
3604 18-09-2018 12:15:00 20.3 C 68 % 14.2 C
3605 18-09-2018 12:20:00 20.8 C 67 % 14.45 C
3606 18-09-2018 12:25:00 21.3 C 66 % 14.69 C
3607 18-09-2018 12:30:00 21.9 C 62 % 14.29 C
3608 18-09-2018 12:35:00 22.6 C 62 % 14.95 C
3609 18-09-2018 12:40:00 23.5 C 57 % 14.49 C
3610 18-09-2018 12:45:00 24.3 C 54 % 14.4 C
3611 18-09-2018 12:50:00 24.8 C 53 % 14.57 C
3612 18-09-2018 12:55:00 25.3 C 51 % 14.44 C
3613 18-09-2018 13:00:00 25.5 C 51 % 14.62 C
3614 18-09-2018 13:05:00 25.8 C 49 % 14.28 C
3615 18-09-2018 13:10:00 26.1 C 52 % 15.48 C
3616 18-09-2018 13:15:00 26.2 C 50 % 14.96 C
3617 18-09-2018 13:20:00 26.4 C 49 % 14.83 C
3618 18-09-2018 13:25:00 26.7 C 49 % 15.1 C
3619 18-09-2018 13:30:00 27 C 49 % 15.38 C
3620 18-09-2018 13:35:00 27.4 C 49 % 15.74 C
3621 18-09-2018 13:40:00 27.6 C 49 % 15.92 C
3622 18-09-2018 13:45:00 27.7 C 49 % 16.01 C
3623 18-09-2018 13:50:00 27.8 C 49 % 16.11 C
3624 18-09-2018 13:55:00 27.8 C 49 % 16.11 C
3625 18-09-2018 14:00:00 27.8 C 50 % 16.42 C
Sensor: Nr:Datum:Temp:Feuchte:Taupunkt:
Aussen-T/F 3626 18-09-2018 14:05:00 27.9 C 49 % 16.2 C
3627 18-09-2018 14:10:00 28 C 50 % 16.61 C
3628 18-09-2018 14:15:00 28.1 C 49 % 16.38 C
3629 18-09-2018 14:20:00 28.3 C 49 % 16.56 C
3630 18-09-2018 14:25:00 28.4 C 50 % 16.97 C
3631 18-09-2018 14:30:00 28.6 C 48 % 16.51 C
3632 18-09-2018 14:35:00 28.9 C 48 % 16.79 C
3633 18-09-2018 14:40:00 29.2 C 47 % 16.73 C
3634 18-09-2018 14:45:00 29.3 C 47 % 16.82 C
3635 18-09-2018 14:50:00 29.3 C 46 % 16.48 C
3636 18-09-2018 14:55:00 29.3 C 46 % 16.48 C
3637 18-09-2018 15:00:00 29.3 C 45 % 16.13 C
3638 18-09-2018 15:05:00 29.4 C 46 % 16.57 C
3639 18-09-2018 15:10:00 29.4 C 45 % 16.23 C
3640 18-09-2018 15:15:00 29.6 C 45 % 16.41 C
3641 18-09-2018 15:20:00 29.5 C 44 % 15.96 C
3642 18-09-2018 15:25:00 29.4 C 44 % 15.87 C
3643 18-09-2018 15:30:00 29.4 C 43 % 15.51 C
3644 18-09-2018 15:35:00 29.4 C 44 % 15.87 C
3645 18-09-2018 15:40:00 29.3 C 44 % 15.78 C
3646 18-09-2018 15:45:00 29.3 C 44 % 15.78 C
3647 18-09-2018 15:50:00 29.4 C 44 % 15.87 C
3648 18-09-2018 15:55:00 29.6 C 44 % 16.05 C
3649 18-09-2018 16:00:00 29.7 C 44 % 16.14 C
3650 18-09-2018 16:05:00 29.8 C 44 % 16.23 C
Sensor: Nr:Datum:Temp:Feuchte:Taupunkt:
Aussen-T/F 3651 18-09-2018 16:10:00 29.9 C 44 % 16.32 C
3652 18-09-2018 16:15:00 29.9 C 41 % 15.22 C
3653 18-09-2018 16:20:00 29.8 C 41 % 15.13 C
3654 18-09-2018 16:25:00 29.7 C 42 % 15.42 C
3655 18-09-2018 16:30:00 29.7 C 42 % 15.42 C
3656 18-09-2018 16:35:00 29.7 C 41 % 15.04 C
3657 18-09-2018 16:40:00 29.8 C 41 % 15.13 C
3658 18-09-2018 16:45:00 30.1 C 40 % 15.01 C
3659 18-09-2018 16:50:00 30.2 C 40 % 15.1 C
3660 18-09-2018 16:55:00 30.4 C 40 % 15.28 C
3661 18-09-2018 17:00:00 30.5 C 40 % 15.37 C
3662 18-09-2018 17:05:00 30.7 C 40 % 15.55 C
3663 18-09-2018 17:10:00 30.8 C 40 % 15.64 C
3664 18-09-2018 17:15:00 31 C 40 % 15.82 C
3665 18-09-2018 17:20:00 31.1 C 40 % 15.9 C
3666 18-09-2018 17:25:00 31 C 40 % 15.82 C
3667 18-09-2018 17:30:00 30.6 C 40 % 15.46 C
3668 18-09-2018 17:35:00 30.3 C 41 % 15.58 C
3669 18-09-2018 17:40:00 30.3 C 41 % 15.58 C
3670 18-09-2018 17:45:00 30.3 C 41 % 15.58 C
3671 18-09-2018 17:50:00 30.2 C 41 % 15.49 C
3672 18-09-2018 17:55:00 29.8 C 42 % 15.51 C
3673 18-09-2018 18:00:00 29.5 C 43 % 15.6 C
3674 18-09-2018 18:05:00 29.2 C 44 % 15.69 C
3675 18-09-2018 18:10:00 29.2 C 44 % 15.69 C
Sensor: Nr:Datum:Temp:Feuchte:Taupunkt:
Aussen-T/F 3676 18-09-2018 18:15:00 29.2 C 44 % 15.69 C
3677 18-09-2018 18:20:00 29.1 C 45 % 15.95 C
3678 18-09-2018 18:25:00 29.1 C 45 % 15.95 C
3679 18-09-2018 18:30:00 29.1 C 45 % 15.95 C
3680 18-09-2018 18:35:00 29.2 C 45 % 16.04 C
3681 18-09-2018 18:40:00 29.2 C 45 % 16.04 C
3682 18-09-2018 18:45:00 29.2 C 45 % 16.04 C
3683 18-09-2018 18:50:00 29.1 C 45 % 15.95 C
3684 18-09-2018 18:55:00 29 C 46 % 16.21 C
3685 18-09-2018 19:00:00 28.8 C 47 % 16.36 C
3686 18-09-2018 19:05:00 28.4 C 47 % 16 C
3687 18-09-2018 19:10:00 28.1 C 48 % 16.06 C
3688 18-09-2018 19:15:00 27.7 C 49 % 16.01 C
3689 18-09-2018 19:20:00 27.2 C 50 % 15.87 C
3690 18-09-2018 19:25:00 26.8 C 51 % 15.82 C
3691 18-09-2018 19:30:00 26.3 C 52 % 15.66 C
3692 18-09-2018 19:35:00 26 C 53 % 15.68 C
3693 18-09-2018 19:40:00 25.7 C 54 % 15.7 C
3694 18-09-2018 19:45:00 25.4 C 54 % 15.42 C
3695 18-09-2018 19:50:00 25.3 C 55 % 15.61 C
3696 18-09-2018 19:55:00 25.2 C 54 % 15.23 C
3697 18-09-2018 20:00:00 25.1 C 55 % 15.43 C
3698 18-09-2018 20:05:00 24.9 C 55 % 15.24 C
3699 18-09-2018 20:10:00 24.8 C 55 % 15.15 C
3700 18-09-2018 20:15:00 24.7 C 55 % 15.05 C
Sensor: Nr:Datum:Temp:Feuchte:Taupunkt:
Aussen-T/F 3701 18-09-2018 20:20:00 24.5 C 54 % 14.58 C
3702 18-09-2018 20:25:00 24.3 C 55 % 14.68 C
3703 18-09-2018 20:30:00 24.2 C 55 % 14.59 C
3704 18-09-2018 20:35:00 23.9 C 54 % 14.03 C
3705 18-09-2018 20:40:00 23.7 C 55 % 14.13 C
3706 18-09-2018 20:45:00 23.5 C 55 % 13.94 C
3707 18-09-2018 20:50:00 23.3 C 54 % 13.47 C
3708 18-09-2018 20:55:00 23.2 C 55 % 13.66 C
3709 18-09-2018 21:00:00 23.1 C 55 % 13.57 C
3710 18-09-2018 21:05:00 22.9 C 55 % 13.38 C
3711 18-09-2018 21:10:00 22.8 C 56 % 13.57 C
3712 18-09-2018 21:15:00 22.7 C 56 % 13.47 C
3713 18-09-2018 21:20:00 22.6 C 56 % 13.38 C
3714 18-09-2018 21:25:00 22.4 C 56 % 13.2 C
3715 18-09-2018 21:30:00 22.3 C 58 % 13.64 C
3716 18-09-2018 21:35:00 22.2 C 58 % 13.55 C
3717 18-09-2018 21:40:00 22 C 58 % 13.36 C
3718 18-09-2018 21:45:00 21.9 C 58 % 13.27 C
3719 18-09-2018 21:50:00 21.8 C 60 % 13.69 C
3720 18-09-2018 21:55:00 21.7 C 67 % 15.31 C
3721 18-09-2018 22:00:00 21.4 C 74 % 16.57 C
3722 18-09-2018 22:05:00 21.1 C 76 % 16.7 C
3723 18-09-2018 22:10:00 20.6 C 77 % 16.43 C
3724 18-09-2018 22:15:00 20.2 C 79 % 16.44 C
3725 18-09-2018 22:20:00 19.8 C 79 % 16.05 C
Sensor: Nr:Datum:Temp:Feuchte:Taupunkt:
Aussen-T/F 3726 18-09-2018 22:25:00 19.5 C 79 % 15.76 C
3727 18-09-2018 22:30:00 19.3 C 80 % 15.76 C
3728 18-09-2018 22:35:00 19.1 C 80 % 15.57 C
3729 18-09-2018 22:40:00 18.8 C 80 % 15.28 C
3730 18-09-2018 22:45:00 18.6 C 79 % 14.89 C
3731 18-09-2018 22:50:00 18.4 C 80 % 14.89 C
3732 18-09-2018 22:55:00 18.4 C 80 % 14.89 C
3733 18-09-2018 23:00:00 18.3 C 80 % 14.79 C
3734 18-09-2018 23:05:00 18.3 C 79 % 14.6 C
3735 18-09-2018 23:10:00 18.3 C 79 % 14.6 C
3736 18-09-2018 23:15:00 18.3 C 79 % 14.6 C
3737 18-09-2018 23:20:00 18.3 C 79 % 14.6 C
3738 18-09-2018 23:25:00 18.3 C 79 % 14.6 C
3739 18-09-2018 23:30:00 18.2 C 79 % 14.5 C
3740 18-09-2018 23:35:00 18.2 C 78 % 14.3 C
3741 18-09-2018 23:40:00 18.2 C 79 % 14.5 C
3742 18-09-2018 23:45:00 18.2 C 78 % 14.3 C
3743 18-09-2018 23:50:00 18.2 C 78 % 14.3 C
3744 18-09-2018 23:55:00 18.2 C 78 % 14.3 C
3745 19-09-2018 00:00:00 18.1 C 79 % 14.4 C
3746 19-09-2018 00:05:00 18 C 79 % 14.31 C
3747 19-09-2018 00:10:00 17.8 C 79 % 14.11 C
3748 19-09-2018 00:15:00 17.8 C 79 % 14.11 C
3749 19-09-2018 00:20:00 17.7 C 79 % 14.01 C
3750 19-09-2018 00:25:00 17.6 C 80 % 14.11 C
Sensor: Nr:Datum:Temp:Feuchte:Taupunkt:
Aussen-T/F 3751 19-09-2018 00:30:00 17.6 C 79 % 13.92 C
3752 19-09-2018 00:35:00 17.6 C 79 % 13.92 C
3753 19-09-2018 00:40:00 17.6 C 80 % 14.11 C
3754 19-09-2018 00:45:00 17.6 C 80 % 14.11 C
3755 19-09-2018 00:50:00 17.7 C 80 % 14.21 C
3756 19-09-2018 00:55:00 17.8 C 79 % 14.11 C
3757 19-09-2018 01:00:00 17.9 C 79 % 14.21 C
3758 19-09-2018 01:05:00 17.8 C 79 % 14.11 C
3759 19-09-2018 01:10:00 17.7 C 78 % 13.82 C
3760 19-09-2018 01:15:00 17.6 C 79 % 13.92 C
3761 19-09-2018 01:20:00 17.4 C 79 % 13.72 C
3762 19-09-2018 01:25:00 17.3 C 80 % 13.82 C
3763 19-09-2018 01:30:00 17.2 C 80 % 13.72 C
3764 19-09-2018 01:35:00 17.1 C 80 % 13.62 C
3765 19-09-2018 01:40:00 17.1 C 81 % 13.82 C
3766 19-09-2018 01:45:00 17.1 C 80 % 13.62 C
3767 19-09-2018 01:50:00 17 C 81 % 13.72 C
3768 19-09-2018 01:55:00 16.8 C 81 % 13.52 C
3769 19-09-2018 02:00:00 16.8 C 81 % 13.52 C
3770 19-09-2018 02:05:00 16.8 C 81 % 13.52 C
3771 19-09-2018 02:10:00 16.8 C 81 % 13.52 C
3772 19-09-2018 02:15:00 16.8 C 81 % 13.52 C
3773 19-09-2018 02:20:00 16.8 C 82 % 13.71 C
3774 19-09-2018 02:25:00 16.7 C 82 % 13.61 C
3775 19-09-2018 02:30:00 16.7 C 82 % 13.61 C
Sensor: Nr:Datum:Temp:Feuchte:Taupunkt:
Aussen-T/F 3776 19-09-2018 02:35:00 16.7 C 83 % 13.8 C
3777 19-09-2018 02:40:00 16.6 C 83 % 13.7 C
3778 19-09-2018 02:45:00 16.6 C 83 % 13.7 C
3779 19-09-2018 02:50:00 16.6 C 83 % 13.7 C
3780 19-09-2018 02:55:00 16.6 C 83 % 13.7 C
3781 19-09-2018 03:00:00 16.6 C 83 % 13.7 C
3782 19-09-2018 03:05:00 16.6 C 82 % 13.52 C
3783 19-09-2018 03:10:00 16.7 C 82 % 13.61 C
3784 19-09-2018 03:15:00 16.6 C 82 % 13.52 C
3785 19-09-2018 03:20:00 16.6 C 82 % 13.52 C
3786 19-09-2018 03:25:00 16.6 C 83 % 13.7 C
3787 19-09-2018 03:30:00 16.5 C 82 % 13.42 C
3788 19-09-2018 03:35:00 16.4 C 82 % 13.32 C
3789 19-09-2018 03:40:00 16.4 C 82 % 13.32 C
3790 19-09-2018 03:45:00 16.3 C 82 % 13.22 C
3791 19-09-2018 03:50:00 16.3 C 83 % 13.41 C
3792 19-09-2018 03:55:00 16.3 C 83 % 13.41 C
3793 19-09-2018 04:00:00 16.3 C 83 % 13.41 C
3794 19-09-2018 04:05:00 16.3 C 83 % 13.41 C
3795 19-09-2018 04:10:00 16.3 C 83 % 13.41 C
3796 19-09-2018 04:15:00 16.2 C 83 % 13.31 C
3797 19-09-2018 04:20:00 16.2 C 83 % 13.31 C
3798 19-09-2018 04:25:00 16.2 C 83 % 13.31 C
3799 19-09-2018 04:30:00 16.1 C 83 % 13.21 C
3800 19-09-2018 04:35:00 16 C 84 % 13.3 C
Sensor: Nr:Datum:Temp:Feuchte:Taupunkt:
Aussen-T/F 3801 19-09-2018 04:40:00 15.9 C 84 % 13.2 C
3802 19-09-2018 04:45:00 15.9 C 84 % 13.2 C
3803 19-09-2018 04:50:00 15.8 C 84 % 13.1 C
3804 19-09-2018 04:55:00 15.8 C 84 % 13.1 C
3805 19-09-2018 05:00:00 15.7 C 85 % 13.19 C
3806 19-09-2018 05:05:00 15.6 C 85 % 13.09 C
3807 19-09-2018 05:10:00 15.5 C 86 % 13.17 C
3808 19-09-2018 05:15:00 15.4 C 86 % 13.07 C
3809 19-09-2018 05:20:00 15.4 C 86 % 13.07 C
3810 19-09-2018 05:25:00 15.3 C 86 % 12.97 C
3811 19-09-2018 05:30:00 15.3 C 87 % 13.15 C
3812 19-09-2018 05:35:00 15.3 C 88 % 13.33 C
3813 19-09-2018 05:40:00 15.4 C 87 % 13.25 C
3814 19-09-2018 05:45:00 15.4 C 87 % 13.25 C
3815 19-09-2018 05:50:00 15.3 C 86 % 12.97 C
3816 19-09-2018 05:55:00 15.2 C 86 % 12.88 C
3817 19-09-2018 06:00:00 15.1 C 86 % 12.78 C
3818 19-09-2018 06:05:00 15.1 C 87 % 12.95 C
3819 19-09-2018 06:10:00 14.9 C 86 % 12.58 C
3820 19-09-2018 06:15:00 14.8 C 87 % 12.66 C
3821 19-09-2018 06:20:00 14.6 C 87 % 12.46 C
3822 19-09-2018 06:25:00 14.5 C 88 % 12.54 C
3823 19-09-2018 06:30:00 14.4 C 88 % 12.44 C
3824 19-09-2018 06:35:00 14.3 C 88 % 12.34 C
3825 19-09-2018 06:40:00 14.2 C 88 % 12.24 C
Sensor: Nr:Datum:Temp:Feuchte:Taupunkt:
Aussen-T/F 3826 19-09-2018 06:45:00 14.1 C 89 % 12.32 C
3827 19-09-2018 06:50:00 14.1 C 89 % 12.32 C
3828 19-09-2018 06:55:00 14 C 90 % 12.39 C
3829 19-09-2018 07:00:00 13.9 C 90 % 12.29 C
3830 19-09-2018 07:05:00 13.9 C 91 % 12.46 C
3831 19-09-2018 07:10:00 14 C 91 % 12.56 C
3832 19-09-2018 07:15:00 13.9 C 90 % 12.29 C
3833 19-09-2018 07:20:00 13.8 C 90 % 12.19 C
3834 19-09-2018 07:25:00 13.8 C 91 % 12.36 C
3835 19-09-2018 07:30:00 13.8 C 91 % 12.36 C
3836 19-09-2018 07:35:00 13.9 C 91 % 12.46 C
3837 19-09-2018 07:40:00 13.9 C 91 % 12.46 C
3838 19-09-2018 07:45:00 13.8 C 91 % 12.36 C
3839 19-09-2018 07:50:00 13.8 C 92 % 12.52 C
3840 19-09-2018 07:55:00 13.9 C 92 % 12.62 C
3841 19-09-2018 08:00:00 13.8 C 92 % 12.52 C
3842 19-09-2018 08:05:00 13.9 C 92 % 12.62 C
3843 19-09-2018 08:10:00 14 C 92 % 12.72 C
3844 19-09-2018 08:15:00 14.1 C 92 % 12.82 C
3845 19-09-2018 08:20:00 14.1 C 92 % 12.82 C
3846 19-09-2018 08:25:00 14.1 C 92 % 12.82 C
3847 19-09-2018 08:30:00 14.2 C 92 % 12.92 C
3848 19-09-2018 08:35:00 14.3 C 93 % 13.18 C
3849 19-09-2018 08:40:00 14.4 C 93 % 13.28 C
3850 19-09-2018 08:45:00 14.6 C 93 % 13.48 C
Sensor: Nr:Datum:Temp:Feuchte:Taupunkt:
Aussen-T/F 3851 19-09-2018 08:50:00 14.7 C 93 % 13.58 C
3852 19-09-2018 08:55:00 14.8 C 92 % 13.51 C
3853 19-09-2018 09:00:00 14.9 C 92 % 13.61 C
3854 19-09-2018 09:05:00 14.9 C 92 % 13.61 C
3855 19-09-2018 09:10:00 15 C 92 % 13.71 C
3856 19-09-2018 09:15:00 15.1 C 92 % 13.81 C
3857 19-09-2018 09:20:00 15.2 C 92 % 13.91 C
3858 19-09-2018 09:25:00 15.3 C 92 % 14.01 C
3859 19-09-2018 09:30:00 15.4 C 92 % 14.11 C
3860 19-09-2018 09:35:00 15.6 C 92 % 14.31 C
3861 19-09-2018 09:40:00 15.7 C 92 % 14.4 C
3862 19-09-2018 09:45:00 15.8 C 92 % 14.5 C
3863 19-09-2018 09:50:00 15.9 C 92 % 14.6 C
3864 19-09-2018 09:55:00 16 C 92 % 14.7 C
3865 19-09-2018 10:00:00 16.2 C 92 % 14.9 C
3866 19-09-2018 10:05:00 16.4 C 92 % 15.1 C
3867 19-09-2018 10:10:00 16.6 C 92 % 15.3 C
3868 19-09-2018 10:15:00 16.8 C 91 % 15.32 C
3869 19-09-2018 10:20:00 17 C 91 % 15.52 C
3870 19-09-2018 10:25:00 17.2 C 91 % 15.72 C
3871 19-09-2018 10:30:00 17.5 C 89 % 15.67 C
3872 19-09-2018 10:35:00 17.9 C 88 % 15.88 C
3873 19-09-2018 10:40:00 18.3 C 87 % 16.1 C
3874 19-09-2018 10:45:00 18.6 C 85 % 16.03 C
3875 19-09-2018 10:50:00 19 C 84 % 16.24 C
Sensor: Nr:Datum:Temp:Feuchte:Taupunkt:
Aussen-T/F 3876 19-09-2018 10:55:00 19.3 C 82 % 16.15 C
3877 19-09-2018 11:00:00 19.6 C 81 % 16.25 C
3878 19-09-2018 11:05:00 19.9 C 80 % 16.35 C
3879 19-09-2018 11:10:00 20.2 C 79 % 16.44 C
3880